[[{"header":{"parameterUnit":"m.s-1","parameterCategory":1,"la1":30.6,"la2":29.2853,"lo1":-89.7004,"lo2":-87.6739,"dy":0.0162,"dx":0.0183,"nx":112,"ny":82,"refTime":"2024-02-07T18:00:00:Z","depth":0,"parameterNumber":2,"parameterNumberName":"U-component_of_WINDS"},"data":[0.0,0.0,0.0,0.0,0.0,0.0,0.0,0.0,0.0,0.0,0.0,0.0,0.0,0.0,0.0,0.0,0.0,0.0,0.0,0.0,0.0,0.0,0.0,0.0,0.0,0.0,0.0,0.0,0.0,0.0,0.0,0.0,0.0,0.0,0.0,0.0,0.0,0.0,0.0,0.0,0.0,0.0,0.0,0.0,0.0,0.0,0.0,0.0,0.0,0.0,0.0,0.0,0.0,0.0,0.0,0.0,0.0,0.0,0.0,0.0,0.0,0.0,0.0,0.0,0.0,0.0,0.0,0.0,0.0,0.0,0.0,0.0,0.0,0.0,0.0,0.0,0.0,0.0,0.0,0.0,0.0,0.0,0.0,0.0,0.0,0.0,0.0,0.0,0.0,0.0,-3.9015,-4.1296,-4.2223,-4.2669,-4.2606,-4.1244,-3.8654,-3.452,0.0,0.0,0.0,0.0,0.0,0.0,0.0,0.0,0.0,0.0,0.0,0.0,0.0,0.0,0.0,0.0,0.0,0.0,0.0,0.0,0.0,0.0,0.0,0.0,0.0,0.0,0.0,0.0,0.0,0.0,0.0,0.0,0.0,0.0,0.0,0.0,0.0,0.0,0.0,0.0,0.0,0.0,0.0,0.0,0.0,0.0,0.0,0.0,0.0,0.0,0.0,0.0,0.0,0.0,0.0,0.0,0.0,0.0,0.0,0.0,0.0,0.0,0.0,0.0,0.0,0.0,0.0,0.0,0.0,0.0,0.0,0.0,0.0,0.0,0.0,0.0,0.0,0.0,0.0,0.0,0.0,0.0,0.0,0.0,0.0,0.0,0.0,0.0,0.0,0.0,0.0,0.0,0.0,0.0,0.0,0.0,0.0,0.0,0.0,0.0,0.0,0.0,0.0,0.0,-3.7392,-4.0899,-4.1296,-4.1053,-4.0444,-3.7676,-3.5541,-3.452,0.0,0.0,0.0,0.0,0.0,0.0,0.0,0.0,0.0,0.0,0.0,0.0,0.0,0.0,0.0,0.0,0.0,0.0,0.0,0.0,0.0,0.0,0.0,0.0,0.0,0.0,0.0,0.0,0.0,0.0,0.0,0.0,0.0,0.0,0.0,0.0,0.0,0.0,0.0,0.0,0.0,0.0,0.0,0.0,0.0,0.0,0.0,0.0,0.0,0.0,0.0,0.0,0.0,0.0,0.0,0.0,0.0,0.0,0.0,0.0,0.0,0.0,0.0,0.0,0.0,0.0,0.0,0.0,0.0,0.0,0.0,0.0,0.0,0.0,0.0,0.0,0.0,0.0,0.0,0.0,0.0,0.0,0.0,0.0,0.0,0.0,0.0,0.0,0.0,0.0,0.0,0.0,0.0,0.0,0.0,0.0,0.0,0.0,0.0,0.0,0.0,0.0,0.0,-3.7273,-3.8115,-4.0368,-4.0489,-4.0083,-3.933,-3.6656,-3.4491,-3.3331,-3.283,0.0,0.0,0.0,0.0,0.0,0.0,0.0,0.0,0.0,0.0,0.0,0.0,0.0,0.0,0.0,0.0,0.0,0.0,0.0,0.0,0.0,0.0,0.0,0.0,0.0,0.0,0.0,0.0,0.0,0.0,0.0,0.0,0.0,0.0,0.0,0.0,0.0,0.0,0.0,0.0,0.0,0.0,0.0,0.0,0.0,0.0,0.0,0.0,0.0,0.0,0.0,0.0,0.0,0.0,0.0,0.0,0.0,0.0,0.0,0.0,0.0,0.0,0.0,0.0,0.0,0.0,0.0,0.0,0.0,0.0,0.0,0.0,0.0,0.0,0.0,0.0,0.0,0.0,0.0,0.0,0.0,0.0,0.0,0.0,0.0,0.0,0.0,0.0,0.0,0.0,0.0,0.0,0.0,0.0,0.0,0.0,0.0,0.0,0.0,0.0,0.0,0.0,-3.8263,-3.8766,-3.9467,-3.9452,-3.9045,-3.8276,-3.5807,-3.3657,-3.2121,-3.034,0.0,0.0,0.0,0.0,0.0,0.0,0.0,0.0,0.0,0.0,0.0,0.0,0.0,0.0,0.0,0.0,0.0,0.0,0.0,0.0,0.0,0.0,0.0,0.0,0.0,0.0,0.0,0.0,0.0,0.0,0.0,0.0,0.0,0.0,0.0,0.0,0.0,0.0,0.0,0.0,0.0,0.0,0.0,0.0,0.0,0.0,0.0,0.0,0.0,0.0,0.0,0.0,0.0,0.0,0.0,0.0,0.0,0.0,0.0,0.0,0.0,0.0,0.0,0.0,0.0,0.0,0.0,0.0,0.0,0.0,0.0,0.0,0.0,0.0,0.0,0.0,0.0,0.0,0.0,0.0,0.0,0.0,0.0,0.0,0.0,0.0,0.0,0.0,0.0,0.0,0.0,0.0,0.0,0.0,0.0,0.0,0.0,0.0,0.0,0.0,0.0,0.0,-3.6647,-3.7942,-3.7956,-3.7912,-3.753,-3.6801,-3.4008,-3.2072,-3.1476,-2.8804,0.0,0.0,0.0,0.0,0.0,0.0,0.0,0.0,0.0,0.0,0.0,0.0,0.0,0.0,0.0,0.0,0.0,0.0,0.0,0.0,0.0,0.0,0.0,0.0,0.0,0.0,0.0,0.0,0.0,0.0,0.0,0.0,0.0,0.0,0.0,0.0,0.0,0.0,0.0,0.0,0.0,0.0,0.0,0.0,0.0,0.0,0.0,0.0,0.0,0.0,0.0,0.0,0.0,0.0,0.0,0.0,0.0,0.0,0.0,0.0,0.0,0.0,0.0,0.0,0.0,0.0,0.0,0.0,0.0,0.0,0.0,0.0,0.0,0.0,0.0,0.0,0.0,0.0,0.0,0.0,0.0,0.0,0.0,0.0,0.0,0.0,0.0,0.0,0.0,0.0,0.0,0.0,0.0,0.0,0.0,0.0,0.0,0.0,0.0,0.0,0.0,0.0,-3.5347,-3.6187,0.0,-3.7032,-3.6473,-3.508,-3.3078,-3.1349,-3.0003,0.0,0.0,0.0,0.0,0.0,0.0,0.0,0.0,0.0,0.0,0.0,0.0,0.0,0.0,0.0,0.0,0.0,0.0,0.0,0.0,0.0,0.0,0.0,0.0,0.0,0.0,0.0,0.0,0.0,0.0,0.0,0.0,0.0,0.0,0.0,0.0,0.0,0.0,0.0,0.0,0.0,0.0,0.0,0.0,0.0,0.0,0.0,0.0,0.0,0.0,0.0,0.0,0.0,0.0,0.0,0.0,0.0,0.0,0.0,0.0,0.0,0.0,0.0,0.0,0.0,0.0,0.0,0.0,0.0,0.0,0.0,0.0,0.0,0.0,0.0,0.0,0.0,0.0,0.0,0.0,0.0,0.0,0.0,0.0,0.0,0.0,0.0,0.0,0.0,0.0,0.0,0.0,0.0,0.0,0.0,0.0,0.0,0.0,0.0,0.0,0.0,0.0,-3.381,-3.4037,-3.4501,0.0,-3.6044,-3.5418,-3.41,-3.2344,-3.0545,-2.8753,0.0,0.0,0.0,0.0,0.0,0.0,0.0,0.0,0.0,0.0,0.0,0.0,0.0,0.0,0.0,0.0,0.0,0.0,0.0,0.0,0.0,0.0,0.0,0.0,0.0,0.0,0.0,0.0,0.0,0.0,0.0,0.0,0.0,0.0,0.0,0.0,0.0,0.0,0.0,0.0,0.0,0.0,0.0,0.0,0.0,0.0,0.0,0.0,0.0,0.0,0.0,0.0,0.0,0.0,0.0,0.0,0.0,0.0,0.0,0.0,0.0,0.0,0.0,0.0,0.0,0.0,0.0,0.0,0.0,0.0,0.0,0.0,0.0,0.0,0.0,0.0,0.0,0.0,0.0,0.0,0.0,0.0,0.0,0.0,0.0,0.0,0.0,0.0,0.0,0.0,0.0,0.0,0.0,0.0,0.0,0.0,0.0,0.0,0.0,0.0,0.0,0.0,-3.3041,-3.2672,-3.3016,-3.5225,-3.4859,-3.4327,-3.3989,-3.1691,-2.9611,0.0,0.0,0.0,0.0,0.0,0.0,0.0,0.0,0.0,0.0,0.0,0.0,0.0,0.0,0.0,0.0,0.0,0.0,0.0,0.0,0.0,0.0,0.0,0.0,0.0,0.0,0.0,0.0,0.0,0.0,0.0,0.0,0.0,0.0,0.0,0.0,0.0,0.0,0.0,0.0,0.0,0.0,0.0,0.0,0.0,0.0,0.0,0.0,0.0,0.0,0.0,0.0,0.0,0.0,0.0,0.0,0.0,0.0,0.0,0.0,0.0,0.0,0.0,0.0,0.0,0.0,0.0,0.0,0.0,0.0,0.0,0.0,0.0,0.0,0.0,0.0,0.0,0.0,0.0,0.0,0.0,0.0,0.0,0.0,0.0,0.0,0.0,0.0,0.0,0.0,0.0,0.0,0.0,0.0,0.0,0.0,0.0,0.0,0.0,0.0,0.0,0.0,0.0,-3.2157,-3.174,-3.1775,-3.3301,-3.3259,-3.2702,-3.157,-3.0045,-2.8525,-2.6998,0.0,0.0,0.0,0.0,0.0,0.0,0.0,0.0,0.0,0.0,0.0,0.0,0.0,0.0,0.0,0.0,0.0,0.0,0.0,0.0,0.0,0.0,0.0,0.0,0.0,0.0,0.0,0.0,0.0,0.0,0.0,0.0,0.0,0.0,0.0,0.0,0.0,0.0,0.0,0.0,0.0,0.0,0.0,0.0,0.0,0.0,0.0,0.0,0.0,0.0,0.0,0.0,0.0,0.0,0.0,0.0,0.0,0.0,0.0,0.0,0.0,0.0,0.0,0.0,0.0,0.0,0.0,0.0,0.0,0.0,0.0,0.0,0.0,0.0,0.0,0.0,0.0,0.0,0.0,0.0,0.0,0.0,0.0,0.0,0.0,0.0,0.0,0.0,0.0,0.0,0.0,0.0,0.0,0.0,0.0,0.0,0.0,0.0,0.0,0.0,0.0,0.0,-3.1259,-3.0831,-3.089,-3.2433,-3.2351,-3.1722,-3.0497,-2.9302,-2.7913,-2.6265,0.0,0.0,0.0,0.0,0.0,0.0,0.0,0.0,0.0,0.0,0.0,0.0,0.0,0.0,0.0,0.0,0.0,0.0,0.0,0.0,0.0,0.0,0.0,0.0,0.0,0.0,0.0,0.0,0.0,0.0,0.0,0.0,0.0,0.0,0.0,0.0,0.0,0.0,0.0,0.0,0.0,0.0,0.0,0.0,0.0,0.0,0.0,0.0,0.0,0.0,0.0,0.0,0.0,0.0,0.0,0.0,0.0,0.0,0.0,0.0,0.0,0.0,0.0,0.0,0.0,0.0,0.0,0.0,0.0,0.0,0.0,0.0,0.0,0.0,0.0,0.0,0.0,0.0,0.0,0.0,0.0,0.0,0.0,0.0,0.0,0.0,0.0,0.0,0.0,0.0,0.0,0.0,0.0,0.0,0.0,0.0,0.0,0.0,0.0,0.0,0.0,0.0,-3.0329,-2.9925,-3.0135,-3.2126,-3.1793,-3.1113,-3.0326,-2.9114,-2.7626,-2.5879,0.0,0.0,0.0,0.0,0.0,0.0,0.0,0.0,0.0,0.0,0.0,0.0,0.0,0.0,0.0,0.0,0.0,0.0,0.0,0.0,0.0,0.0,0.0,0.0,0.0,0.0,0.0,0.0,0.0,0.0,0.0,0.0,0.0,0.0,0.0,0.0,0.0,0.0,0.0,0.0,0.0,0.0,0.0,0.0,0.0,0.0,0.0,0.0,0.0,0.0,0.0,0.0,0.0,0.0,0.0,0.0,0.0,0.0,0.0,0.0,-2.7555,-2.8023,0.0,0.0,0.0,0.0,0.0,0.0,0.0,0.0,0.0,0.0,0.0,0.0,0.0,0.0,0.0,0.0,0.0,0.0,0.0,0.0,0.0,0.0,0.0,0.0,0.0,0.0,0.0,0.0,0.0,0.0,0.0,0.0,0.0,0.0,0.0,0.0,0.0,0.0,0.0,0.0,-2.9422,-2.8948,-2.8917,-3.0265,-3.0291,-2.9921,-2.9288,-2.8185,-2.7366,-2.6964,-2.4387,0.0,0.0,0.0,0.0,0.0,0.0,0.0,0.0,0.0,0.0,0.0,0.0,0.0,0.0,0.0,0.0,0.0,0.0,0.0,0.0,0.0,0.0,0.0,0.0,0.0,0.0,0.0,0.0,0.0,0.0,0.0,0.0,0.0,0.0,0.0,0.0,0.0,0.0,0.0,0.0,0.0,0.0,0.0,0.0,0.0,0.0,0.0,0.0,0.0,0.0,0.0,0.0,0.0,0.0,0.0,0.0,0.0,0.0,0.0,-2.6299,-2.7108,0.0,0.0,0.0,0.0,0.0,0.0,0.0,0.0,0.0,0.0,0.0,0.0,0.0,0.0,0.0,0.0,0.0,0.0,0.0,0.0,0.0,0.0,0.0,0.0,0.0,0.0,0.0,0.0,0.0,0.0,0.0,0.0,0.0,0.0,0.0,0.0,0.0,0.0,0.0,0.0,-2.749,-2.7041,-2.6935,-2.7786,-2.8056,-2.8194,-2.8128,-2.7604,-2.6956,-2.6234,-2.4317,0.0,0.0,0.0,0.0,0.0,0.0,0.0,0.0,0.0,0.0,0.0,0.0,0.0,0.0,0.0,0.0,0.0,0.0,0.0,0.0,0.0,0.0,0.0,0.0,0.0,0.0,0.0,0.0,0.0,0.0,0.0,0.0,0.0,0.0,0.0,0.0,0.0,0.0,0.0,0.0,0.0,0.0,0.0,0.0,0.0,0.0,0.0,0.0,0.0,0.0,0.0,0.0,0.0,-2.4157,-2.4007,-2.3744,-2.3626,-2.3411,-2.3263,-2.5171,-2.5891,-2.574,-2.6241,0.0,0.0,0.0,0.0,0.0,0.0,0.0,0.0,0.0,0.0,0.0,0.0,0.0,0.0,0.0,0.0,0.0,0.0,0.0,0.0,0.0,0.0,-2.4541,-2.3836,-2.3398,-2.3494,-2.4873,0.0,0.0,0.0,0.0,0.0,0.0,0.0,0.0,0.0,0.0,0.0,-2.544,-2.5135,-2.5099,-2.5633,-2.6087,-2.6546,-2.6995,-2.7027,-2.6459,-2.5201,-2.4039,-2.2831,0.0,0.0,0.0,0.0,0.0,0.0,0.0,0.0,0.0,0.0,0.0,0.0,0.0,0.0,0.0,0.0,0.0,0.0,0.0,0.0,0.0,0.0,0.0,0.0,0.0,0.0,0.0,0.0,0.0,0.0,0.0,0.0,-2.6383,-2.5222,0.0,0.0,0.0,0.0,0.0,0.0,0.0,0.0,0.0,0.0,0.0,0.0,0.0,-2.3568,-2.3861,-2.2865,-2.2387,-2.2387,-2.2583,-2.2549,-2.2267,-2.226,-2.224,-2.2236,-2.3254,0.0,-2.3693,-2.2947,0.0,0.0,0.0,0.0,0.0,0.0,0.0,0.0,0.0,0.0,0.0,0.0,0.0,0.0,0.0,0.0,0.0,0.0,0.0,0.0,0.0,0.0,-2.4244,-2.3389,-2.314,-2.3159,-2.3394,-2.3883,-2.4135,-2.3554,-2.3896,-2.4078,0.0,0.0,0.0,0.0,0.0,0.0,-2.4513,-2.4461,-2.4621,-2.5216,-2.5661,-2.592,-2.5972,-2.5881,-2.5751,-2.552,-2.346,-2.2321,-2.2505,-1.9988,0.0,0.0,0.0,0.0,0.0,0.0,0.0,0.0,0.0,0.0,0.0,0.0,0.0,0.0,0.0,0.0,0.0,0.0,0.0,0.0,0.0,0.0,0.0,0.0,0.0,0.0,0.0,0.0,0.0,-2.6764,-2.6084,-2.4382,-2.4981,-2.5372,0.0,0.0,0.0,0.0,0.0,0.0,0.0,0.0,0.0,-2.4832,-2.3724,-2.3123,-2.3263,-2.2917,-2.2652,-2.2485,-2.2786,-2.2772,-2.2478,-2.2478,-2.2385,-2.2271,-2.248,-2.251,-2.2425,-2.3089,-2.336,-2.3402,0.0,0.0,0.0,0.0,-2.3617,-2.3181,-2.2781,-2.286,-2.3015,-2.2637,0.0,0.0,0.0,0.0,0.0,0.0,0.0,-2.1561,-2.1176,-2.1337,-2.1615,-2.1435,-2.1743,-2.2141,-2.2438,-2.3013,-2.3355,-2.2945,-2.3268,-2.3563,-2.3349,-2.3542,0.0,0.0,0.0,-2.3224,-2.3021,-2.2727,-2.2679,-2.2916,-2.3544,-2.4198,-2.4843,-2.504,-2.5072,-2.4813,-2.382,-2.2714,-2.1583,-2.0582,-1.9894,0.0,0.0,0.0,0.0,0.0,0.0,0.0,0.0,0.0,0.0,0.0,0.0,0.0,0.0,0.0,0.0,0.0,0.0,0.0,0.0,0.0,0.0,0.0,0.0,0.0,0.0,0.0,0.0,-2.5682,-2.5102,-2.3105,-2.3837,-2.418,0.0,0.0,0.0,0.0,0.0,0.0,-2.4882,-2.4035,-2.3875,-2.4527,-2.377,-2.3354,-2.3427,-2.3587,-2.3587,-2.3427,-2.3514,-2.3467,-2.3313,-2.316,-2.2973,-2.2739,-2.2291,-2.1931,-2.1784,-2.305,-2.3254,-2.2799,-2.2625,-2.2285,-2.1852,-2.2023,-2.1687,-2.1285,-2.1836,-2.1613,-2.1155,-2.1655,-2.145,-2.0883,-2.0235,0.0,0.0,0.0,0.0,-1.9497,-1.9497,-1.9497,-1.9563,-1.9873,-2.0412,-2.0925,-2.1288,-2.1807,-2.2246,-2.246,-2.2773,-2.3001,-2.2971,-2.2797,0.0,-2.3349,0.0,-2.1914,-2.1659,-2.1301,-2.1064,-2.1064,-2.1836,-2.2671,-2.3546,-2.4052,-2.4237,-2.3949,-2.3815,-2.289,-2.1026,-2.1006,-2.0605,-1.9639,0.0,0.0,0.0,0.0,0.0,0.0,0.0,0.0,0.0,0.0,0.0,0.0,0.0,0.0,0.0,0.0,0.0,0.0,0.0,0.0,0.0,0.0,0.0,0.0,0.0,0.0,0.0,0.0,0.0,-2.0577,-2.242,0.0,0.0,0.0,0.0,-2.336,-2.237,-2.2119,-2.2991,-2.299,-2.3339,-2.4226,-2.4396,-2.4683,-2.497,-2.4703,-2.4703,-2.4963,-2.4416,-2.4295,-2.4529,-2.3975,-2.3714,-2.3654,-2.2779,-2.2231,-2.1897,-2.1198,-2.1465,-2.2253,-2.1695,-2.2204,-2.3126,-2.1557,-2.0937,-2.0711,-1.923,-1.9306,-2.0104,-2.0886,-2.1556,-2.1829,-2.0867,-2.0241,0.0,0.0,-1.9497,-1.9497,-1.9497,-1.9497,-1.9497,-1.9521,-1.955,-1.9588,-1.9613,-1.9642,-2.0247,-2.2141,-2.2529,-2.2402,-2.2036,0.0,-2.24,-2.1501,-2.1708,-2.1669,-2.0789,-2.0664,-2.0635,-2.0635,-2.1387,-2.1955,-2.1997,-2.2742,-2.3169,-2.3149,-2.282,-2.2347,-2.1846,-2.1075,-2.0605,-2.0537,-1.9734,0.0,0.0,0.0,0.0,0.0,0.0,0.0,0.0,0.0,0.0,0.0,0.0,0.0,0.0,0.0,0.0,0.0,0.0,0.0,0.0,0.0,0.0,0.0,0.0,0.0,0.0,0.0,0.0,-2.1016,-2.225,0.0,-2.2242,-2.2366,-2.2593,-2.298,-2.2849,-2.308,-2.3955,-2.4182,-2.4609,-2.5311,-2.5431,-2.5444,-2.5358,-2.5251,-2.5064,-2.479,-2.4583,-2.4536,-2.4542,-2.4035,-2.3774,-2.3721,-2.2812,-2.2251,-2.1944,-2.1507,-2.1256,-2.127,-2.1048,-2.1019,-2.0995,-2.0424,-2.009,-1.9853,-1.9256,-1.9067,-1.8952,-1.867,-1.8764,-1.8832,-1.8281,-1.784,-1.7565,-1.7457,-1.7276,-1.7109,-1.7109,-1.7109,-1.7109,-1.7109,-1.7762,-1.8319,-1.8319,-1.8948,-1.9954,-2.144,-2.1729,-2.1826,-2.2227,-2.2244,-2.1979,-2.131,-2.1154,-2.0972,-2.0644,-2.0605,-2.0605,-2.0605,-2.1398,-2.1885,-2.1885,-2.2412,-2.2691,-2.2691,-2.2344,-2.1914,-2.1484,-2.1162,-2.0732,-2.0156,-1.9844,-1.9561,0.0,0.0,0.0,0.0,0.0,0.0,0.0,0.0,0.0,0.0,0.0,0.0,0.0,0.0,0.0,0.0,0.0,0.0,0.0,0.0,0.0,0.0,0.0,0.0,0.0,-2.1741,-2.1828,-2.0631,-2.2102,-2.2979,-2.2485,-2.2619,-2.2933,-2.342,-2.3748,-2.4255,-2.5037,-2.5271,-2.5558,-2.6023,-2.6037,-2.5812,-2.5518,-2.5418,-2.517,-2.4783,-2.4583,-2.4489,-2.4469,-2.3888,-2.3561,-2.342,-2.2619,-2.2111,-2.1817,-2.1523,-2.1176,-2.0822,-2.0822,-2.0822,-2.0847,-2.0743,-2.0507,-2.0157,-1.9452,-1.8965,-1.8504,-1.7709,-1.7448,-1.7375,-1.6974,-1.6653,-1.64,-1.6348,-1.6059,-1.5784,-1.5784,-1.5784,-1.5784,-1.5784,-1.6433,-1.7178,-1.7598,-1.7994,-1.8756,-2.0395,-2.1025,-2.1539,-2.2355,-2.2168,-2.1787,-2.1494,-2.0947,-2.0664,-2.0771,-2.0693,-2.0664,-2.0781,-2.1445,-2.1885,-2.1885,-2.2402,-2.2607,-2.2314,-2.2041,-2.1689,-2.121,-2.1094,-2.0732,-2.0146,-1.964,-1.924,-1.8965,0.0,0.0,0.0,0.0,0.0,0.0,0.0,0.0,0.0,0.0,0.0,0.0,0.0,0.0,0.0,0.0,0.0,0.0,0.0,0.0,0.0,0.0,0.0,-1.8693,-1.9224,-1.9378,-1.9279,-2.1957,-2.3701,-2.342,-2.3908,-2.4369,-2.4656,-2.4943,-2.5364,-2.6016,-2.605,-2.6043,-2.6037,-2.6037,-2.5812,-2.5504,-2.5211,-2.5064,-2.5044,-2.4469,-2.4189,-2.4168,-2.3587,-2.3153,-2.2901,-2.2238,-2.1817,-2.1594,-2.1229,-2.1109,-2.1109,-2.1109,-2.1776,-2.2785,-2.2535,-2.2194,-2.1619,-1.9606,-1.8911,-1.8811,-1.8169,-1.7975,-1.7869,-1.738,-1.6947,-1.666,-1.6402,-1.6114,-1.5886,-1.5927,-1.5872,-1.5879,-1.5879,-1.5832,-1.6157,-1.7365,-1.6662,-1.6513,-1.9039,-2.0395,-2.145,-2.2312,-2.2136,-2.1904,-2.1885,-2.1192,0.0,-2.1161,-2.0869,-2.0771,-2.1171,-2.1641,-2.1904,-2.1904,-2.2637,-2.2711,-2.1934,-2.1855,-2.166,-2.121,-2.082,-2.0625,-2.0625,-1.9053,-1.8303,-1.8303,0.0,0.0,0.0,0.0,0.0,0.0,0.0,0.0,0.0,0.0,0.0,0.0,0.0,0.0,0.0,0.0,0.0,0.0,0.0,0.0,0.0,-1.5056,-1.4389,-1.6493,-1.8568,-2.012,-2.0621,-2.3063,-2.477,-2.4903,-2.5057,-2.5271,-2.5571,-2.5671,-2.5879,-2.6253,-2.6273,-2.6172,-2.6043,-2.6037,-2.5712,-2.5204,-2.4903,-2.4656,-2.4442,-2.4068,-2.3888,-2.3881,-2.35,-2.3153,-2.2901,-2.2238,-2.1817,-2.1594,-2.1229,-2.1109,-2.1109,-2.1109,-2.1044,-2.0935,-2.0853,-2.0555,-1.9958,-1.898,-1.8611,-1.851,-1.7909,-1.7709,-1.7642,-1.7313,-1.7146,-1.7123,-1.7518,-1.7536,-1.7596,-1.8326,-1.7809,-1.7178,-1.7178,-1.648,-1.592,-1.6244,-1.6062,-1.6513,-1.9039,-1.9039,-1.9208,-2.0927,-2.1831,-2.2236,-2.1934,-2.168,-2.1572,-2.1689,-2.1602,-2.1572,-2.1689,-2.209,-2.2344,-2.2344,-2.2275,-2.2129,-2.1904,-2.1319,-2.1016,-2.1181,-2.1073,-2.1055,-2.1055,-1.8754,-1.7994,0.0,0.0,0.0,0.0,0.0,0.0,0.0,0.0,0.0,0.0,0.0,0.0,0.0,0.0,0.0,0.0,0.0,0.0,0.0,0.0,0.0,0.0,-1.3613,-1.3013,-1.404,-1.7067,-1.9464,-2.0236,-2.3179,-2.5291,-2.5825,-2.5772,-2.5825,-2.6112,-2.6139,-2.6213,-2.638,-2.6273,-2.6072,-2.5778,-2.5651,-2.5364,-2.4897,-2.4603,-2.4369,-2.4202,-2.3781,-2.3587,-2.3574,-2.3273,-2.2899,-2.2472,-2.2138,-2.175,-2.1356,-2.1182,-2.1109,-2.1096,0.0,0.0,0.0,0.0,-2.0445,-2.0151,-1.8766,-1.8384,-1.839,-1.7782,-1.7582,-1.7528,-1.7286,-1.7112,-1.7019,-1.7267,-1.722,-1.726,-1.7807,-1.7444,-1.6897,-1.6897,-1.6339,-1.5967,-1.648,-1.6204,-1.6379,-1.8357,-1.8187,0.0,-1.9888,-2.1051,-2.1907,-2.2327,-2.2119,-2.1953,-2.2129,-2.1992,-2.1953,-2.2129,-2.2363,-2.251,-2.251,-2.2451,0.0,0.0,0.0,-2.1104,-2.0957,-2.1093,0.0,0.0,0.0,-1.7681,-1.7987,-1.6875,0.0,0.0,-1.7456,-1.7738,0.0,0.0,0.0,0.0,0.0,0.0,0.0,0.0,0.0,0.0,0.0,0.0,0.0,0.0,0.0,0.0,-1.2815,-1.2628,-1.1918,-1.5329,-1.8263,-1.9152,-2.2727,-2.5464,-2.6306,-2.6126,-2.6079,-2.6366,-2.636,-2.6339,-2.6339,-2.6099,0.0,0.0,0.0,-2.4937,-2.4562,-2.4315,-2.4155,-2.4148,-2.3561,-2.3273,-2.326,-2.2953,-2.2512,-2.1984,-2.1951,-2.1623,-2.1109,-2.1109,-2.1069,-2.0982,-2.0728,-2.1282,-2.2075,-2.1168,-2.1055,-2.0955,-1.8762,0.0,0.0,-1.7769,-1.7582,-1.7528,-1.7286,-1.7018,-1.6737,-1.6555,-1.6272,-1.6103,-1.6204,-1.6103,-1.6015,-1.6015,-1.592,-1.6109,-1.7225,-1.6622,-1.6204,-1.7451,-1.7598,-1.7956,-1.9443,-2.0163,-2.1124,-2.2848,-2.2372,-2.2023,-2.2487,-2.2256,-2.2168,-2.2539,-2.2578,0.0,-2.2578,-2.2838,-2.2711,-2.2002,-2.1953,-2.1602,-2.086,-2.0912,-2.0527,-1.9587,-1.8339,-1.7336,-1.6595,-1.5651,-1.5156,-1.5093,-1.6754,-1.7149,0.0,0.0,0.0,0.0,0.0,0.0,0.0,0.0,0.0,0.0,0.0,0.0,0.0,0.0,0.0,-1.2869,-1.2236,-1.1821,-1.2022,-1.5645,-1.8514,-1.9233,-2.2917,-2.5678,-2.6326,-2.6126,-2.6079,-2.6366,-2.6172,-2.6117,-2.6117,-2.6063,-2.5712,-2.5184,-2.511,-2.4937,-2.4562,-2.4115,-2.3855,-2.3848,-2.324,0.0,-2.2939,-2.2639,-2.2318,-2.1971,-2.1802,-2.1436,-2.1109,-2.1109,-2.0828,-2.0394,-2.0341,-2.0315,-2.0267,-1.9546,-1.9398,-1.9301,-1.8318,-1.8029,-1.8015,-1.7702,-1.7582,-1.7528,-1.7286,-1.7159,0.0,-1.7622,-1.7702,-1.7823,-1.8604,-1.8041,-1.7318,-1.7318,-1.6527,-1.5872,-1.6109,-1.5967,-1.6204,-1.7451,-1.685,-1.7203,-2.0387,-2.029,-2.0497,-2.2765,-2.213,-2.1782,-2.2868,-2.2906,-2.2886,-2.2964,-2.2974,-2.2974,-2.2974,-2.2783,-2.2568,-2.2402,-2.2393,-2.2314,-2.2139,-2.042,-1.98,-2.0447,-1.8189,-1.687,-1.6595,-1.6507,-1.6083,-1.5311,-1.57,-1.5791,0.0,0.0,0.0,0.0,0.0,0.0,0.0,0.0,0.0,0.0,0.0,-1.2866,-1.227,0.0,-1.1776,-1.219,-1.197,-1.1833,-1.2135,-1.5808,-1.8678,-1.9315,-2.2989,-2.5745,-2.6333,-2.6259,-2.6233,-2.638,-2.6259,-2.6106,-2.6043,-2.5818,-2.5531,-2.5097,-2.4937,-2.479,-2.4636,-2.4062,-2.3774,-2.3761,-2.2999,-2.2639,-2.2632,-2.2338,-2.2044,-2.1764,-2.1681,-2.1383,-2.1109,-2.1109,-2.0762,-2.0173,-2.0173,-1.9967,-1.9526,-1.9085,-1.8925,-1.8781,-1.8195,-1.7995,-1.7942,-1.7682,-1.7482,-1.736,-1.7014,-1.6878,-1.6763,-1.6931,-1.6942,-1.7042,-1.752,-1.721,-1.6763,-1.6763,-1.6251,-1.5784,-1.5784,-1.5784,-1.5967,-1.6622,-1.6251,-1.6608,-1.9085,-1.9001,-1.9633,-2.2643,-2.1578,-2.1033,-2.2862,-2.258,-2.2448,-2.3047,-2.3091,-2.3091,-2.3091,-2.2906,-2.2779,-2.2779,-2.2779,-2.2734,-2.2519,-2.1401,-2.0777,-2.0716,-1.9418,-1.8498,-1.8061,-1.8105,-1.793,-1.7423,-1.6846,-1.6529,0.0,0.0,0.0,0.0,0.0,0.0,0.0,0.0,-1.3138,-1.2179,-1.1971,-1.1622,-1.0681,-1.0833,-1.1136,-1.1596,-1.2297,-1.2871,-1.3032,-1.6671,-1.9519,-1.9964,-2.3227,-2.5745,-2.6333,-2.6339,-2.6306,-2.6306,-2.6253,-2.6092,-2.5805,-2.5558,-2.5297,-2.5003,-2.4763,-2.4636,-2.4636,-2.4062,-2.3774,-2.3761,-2.2853,-2.2418,-2.2405,-2.2064,-2.177,-2.1614,-2.1554,-2.1329,-2.1109,-2.1049,-2.0715,-2.0167,-2.0113,-1.9826,-1.939,-1.9032,-1.8885,-1.8764,-1.8175,-1.7955,-1.7916,-1.7662,-1.7474,-1.7226,-1.6881,-1.6587,-1.6299,-1.5999,-1.5872,-1.5784,-1.5784,-1.5784,-1.5784,-1.5784,-1.5784,-1.5784,-1.5784,-1.5784,-1.5784,-1.5784,-1.5784,-1.6197,-1.7505,-1.7692,-1.8872,-2.2227,-2.0908,-2.0359,-2.2775,-2.2031,-2.1756,-2.296,-2.3091,-2.3091,-2.3091,-2.3091,-2.3091,-2.3091,-2.2862,-2.2621,-2.2284,-2.1825,-2.12,-2.0474,-2.0474,-2.0137,-1.9497,-1.9716,-1.9633,-1.9131,-1.8411,-1.7917,-1.8469,-1.7315,-1.5965,-1.4975,-1.4463,-1.4307,0.0,0.0,-1.2384,-1.2573,-1.1705,-1.0851,-1.0687,-1.1162,-1.1603,-1.1779,-1.3806,-1.5403,-1.5579,-1.9327,-2.2069,-2.2127,-2.4092,-2.5745,-2.6333,-2.6152,-2.6005,-2.6005,-2.5758,-2.5484,-2.5191,-2.5144,-2.499,-2.4696,-2.4656,-2.4636,-2.4636,-2.4062,-2.3774,-2.3761,-2.2853,-2.2418,-2.2398,-2.185,-2.1648,-2.1601,-2.1269,-2.1136,-2.1089,-2.0828,-2.0535,-2.0207,-1.9947,-1.9653,-1.939,-1.9032,-1.8764,-1.849,-1.8109,-1.7862,-1.7629,-1.7595,-1.7562,-1.7482,-1.7239,-1.6945,-1.66,-1.6306,-1.6032,-1.5784,-1.5784,-1.5784,-1.5784,-1.5784,-1.5784,-1.5784,-1.5784,-1.5784,-1.5784,-1.5784,-1.5784,-1.6197,-1.7505,-1.7692,-1.8549,-2.1114,-2.035,-2.0359,-2.2775,-2.2031,-2.1756,-2.296,-2.3091,-2.3091,-2.3091,-2.3091,-2.3091,-2.3091,-2.2076,-2.1497,-2.1461,-1.9393,-1.867,-1.9612,-1.9612,-1.9592,-1.9497,-2.0576,-1.9988,-1.7917,-1.8864,-1.8726,-1.5928,-1.5071,0.0,0.0,-1.2716,-1.2735,-1.2328,-1.1647,-1.1154,-1.1378,-1.1163,-1.1339,-1.2645,-1.3283,-1.4026,0.0,-1.6761,-1.7649,-1.7735,-2.0292,-2.2218,-2.2218,-2.4011,-2.5424,-2.5838,-2.5772,-2.5698,-2.5698,-2.5585,-2.5384,-2.5097,-2.5077,-2.4943,-2.4649,-2.4636,-2.4556,-2.4389,-2.3975,-2.3681,-2.35,-2.2599,-2.2164,-2.2151,-2.1563,-2.1296,-2.1289,-2.1162,-2.1109,-2.1089,-2.0795,-2.0501,-2.014,-1.9913,-1.9626,-1.9352,-1.9225,-1.8891,-1.847,-1.835,-1.7989,-1.7582,-1.7582,-1.7468,-1.7326,-1.6981,-1.6687,-1.6393,-1.6099,-1.5925,-1.5784,-1.5784,-1.5784,-1.5784,-1.5784,-1.5784,-1.5784,-1.5784,-1.5784,-1.5784,-1.5784,-1.5784,-1.6197,-1.7505,-1.828,-1.9314,-2.1025,-1.967,-1.9093,-2.0773,-2.0584,-2.0989,-2.2906,-2.3091,-2.3091,-2.3091,-2.3091,-2.3091,-2.3091,-2.1987,-2.1293,-2.1293,-2.035,-2.0034,-2.0531,-2.1221,-2.1587,-2.1587,-2.1391,-2.08,-1.9761,-1.8864,-1.8187,-1.3598,0.0,0.0,-1.1269,-1.1288,-1.1387,-1.0385,-1.029,-1.0568,-1.1297,-1.1672,-1.2521,-1.4731,-1.5493,-1.6283,-1.7955,-1.9223,-1.9897,-1.9828,-2.1655,-2.2885,-2.2733,-2.396,-2.489,-2.5017,-2.5324,-2.5478,-2.5404,-2.5391,-2.5264,-2.497,-2.4957,-2.4857,-2.4643,-2.4556,-2.4416,-2.4209,-2.3834,-2.35,-2.3187,-2.2372,-2.1944,-2.185,-2.1343,-2.1109,-2.1109,-2.1029,-2.0989,-2.0962,-2.0588,-2.0307,-2.0087,-1.9793,-1.9553,-1.9424,-1.9424,-1.8998,-1.849,-1.849,-1.809,-1.7582,-1.7582,-1.7494,-1.7253,-1.682,-1.656,-1.6313,-1.5939,-1.5784,-1.5784,-1.5784,-1.5784,-1.5784,-1.5784,-1.5784,-1.5784,-1.5784,-1.5784,-1.5784,-1.5784,-1.5784,-1.6109,-1.7037,-1.818,-1.9177,-1.9699,-1.8902,-1.8726,-2.0268,-2.0494,-2.1177,-2.2916,-2.3091,-2.3091,-2.3091,-2.3091,-2.3091,-2.3091,-2.1987,-2.1159,-2.08,-2.08,-2.08,-2.08,-2.1987,-2.2775,-2.3091,-2.1889,-2.1114,-2.0747,-1.8688,-1.7505,-1.1601,0.0,-1.1277,-1.0144,-1.0098,-1.0367,-1.0446,-1.0599,-1.1272,-1.3282,-1.3532,-1.4127,-1.649,-1.7208,-1.7508,-1.7875,-2.0394,-2.2265,-2.1936,-2.3909,-2.5208,-2.4568,-2.4329,-2.4122,0.0,-2.485,-2.5398,-2.5117,-2.5097,-2.4963,-2.4663,-2.4649,-2.4649,-2.4636,-2.4362,-2.4209,-2.4202,-2.3627,-2.3187,-2.2866,-2.2271,-2.1837,-2.1621,-2.1249,-2.1109,-2.1096,-2.0815,-2.0688,-2.0641,-2.0067,-1.982,-1.9786,-1.9492,-1.943,-1.9424,-1.9424,-1.8998,-1.849,-1.849,-1.809,-1.7582,-1.7582,-1.7575,-1.7462,-1.6881,-1.67,-1.6573,-1.5992,-1.5784,-1.5784,-1.5784,-1.5784,-1.5784,-1.5784,-1.5784,-1.5784,-1.5784,-1.5784,-1.5784,-1.5784,-1.5784,-1.5825,-1.5825,-1.6897,-1.7358,-1.6157,-1.794,-2.0314,-2.2687,-2.3003,-2.3003,-2.3091,-2.3091,-2.3091,-2.3091,-2.3091,-2.3091,-2.3091,-2.1987,-2.08,-1.9579,-1.9534,-1.9534,-1.9534,-2.0755,-2.1933,-2.3091,-2.1889,-2.0711,-1.9542,-1.828,-1.7037,-0.9743,-0.9215,-0.897,-0.9733,-1.0198,-1.046,-1.0609,-1.1527,-1.2626,-1.3339,-1.4101,-1.539,-1.7582,-1.8173,-1.8925,-2.0914,-2.2586,-2.3751,-2.4033,-2.4862,-2.5224,-2.4442,-2.4436,0.0,0.0,0.0,0.0,-2.4496,-2.4496,-2.4536,-2.4636,-2.4449,-2.4349,-2.4349,-2.4068,-2.3821,-2.3621,-2.322,-2.2866,-2.2559,-2.1977,-2.1543,-2.1256,-2.1156,-2.1002,-2.0815,-2.0722,-2.0568,-2.0354,-1.996,-1.98,-1.9773,-1.9479,-1.9424,-1.9345,-1.9145,-1.8824,-1.849,-1.849,-1.809,-1.7582,-1.7582,-1.7507,-1.7273,-1.6827,-1.6573,-1.638,-1.6179,-1.5979,-1.5872,-1.6072,-1.5979,-1.5784,-1.5784,-1.5784,-1.5784,-1.5784,-1.5784,-1.5784,-1.5784,-1.5784,-1.6062,-1.6897,-1.7412,-1.7824,-1.8218,-1.8272,-1.9185,-2.1623,-2.2193,-2.2546,-2.3042,-2.3398,-2.3457,-2.312,-2.3091,-2.3091,-2.3091,-2.1987,-2.1114,-2.0702,-2.0702,-2.0702,-2.0702,-2.1898,-2.2306,-2.1889,-2.0711,-1.9497,-1.828,-1.703,-1.6204,-0.8989,-0.8716,-0.8641,-0.984,-1.0392,-1.073,-1.1479,-1.2479,-1.3665,-1.5039,-1.5736,-1.677,-1.9027,-1.9337,-1.9886,-2.1905,-2.2893,-2.3654,-2.4356,-2.4616,-2.4603,-2.4249,-2.4275,-2.4182,0.0,0.0,0.0,-2.4329,-2.4456,-2.4502,-2.4482,-2.4302,-2.4155,-2.4055,-2.3654,-2.3354,-2.316,-2.2752,-2.2398,-2.2104,-2.1623,-2.1296,-2.1109,-2.1109,-2.0949,-2.0668,-2.0568,-2.0347,-2.0054,-1.9766,-1.9646,-1.9626,-1.9497,-1.9424,-1.9345,-1.9152,-1.8831,-1.8477,-1.837,-1.8003,-1.7582,-1.7582,-1.744,-1.7146,-1.6794,-1.6506,-1.6301,-1.6146,-1.5979,-1.5872,-1.6066,-1.5972,-1.5784,-1.5784,-1.5912,-1.5959,-1.5852,-1.5992,-1.6079,-1.5824,-1.6238,-1.6878,-1.7769,-1.8271,-1.8915,-1.996,-1.9497,-1.9542,-2.1114,-2.2079,-2.2808,-2.331,-2.3623,-2.3682,-2.3398,-2.3188,-2.3091,-2.3091,-2.235,-2.1756,-2.1337,-2.1712,-2.1747,-2.1293,-2.2076,-2.2076,-2.1293,-1.967,-1.8457,-1.7692,-1.6386,-1.5784,-0.9276,-0.9663,-1.0012,-1.0419,-1.0671,-1.124,-1.2931,-1.3447,-1.459,-1.818,-1.8276,-1.8324,0.0,0.0,-2.0259,-2.0863,-2.1422,-2.207,-2.2885,-2.3036,-2.3318,0.0,0.0,0.0,0.0,0.0,0.0,-2.4596,-2.4883,-2.479,-2.4235,-2.4189,-2.4042,-2.3734,-2.3146,-2.2901,-2.2819,-2.2251,-2.1817,-2.1594,-2.1243,-2.1109,-2.1109,-2.1096,-2.0929,-2.0635,-2.0341,-2.0047,-1.976,-1.9479,-1.9424,-1.9424,-1.9424,-1.9424,-1.9424,-1.941,-1.8985,-1.8444,-1.8095,-1.7842,-1.7582,-1.7582,-1.744,-1.7146,-1.6814,-1.6513,-1.6219,-1.5952,-1.5865,-1.5804,-1.5824,-1.5872,-1.5872,-1.5872,-1.6092,-1.6219,-1.5884,-1.6362,-1.6639,-1.6074,-1.7182,-1.8288,-1.8432,-1.9446,-2.0492,-2.123,-2.1401,-2.1436,-2.1418,-2.2846,-2.3828,-2.3828,-2.3838,-2.3848,-2.3828,-2.3418,-2.313,-2.313,-2.311,-2.2589,-2.1436,-2.2492,-2.2536,-2.1426,-2.1337,-2.1248,-2.1203,-1.8864,-1.7692,-1.7544,-1.6339,-1.5784,-0.9131,-0.902,-0.8831,-1.0146,-1.1573,-1.2738,-1.3193,-1.5148,-1.7055,-1.7567,-1.8138,-1.8634,0.0,0.0,0.0,-1.8625,-1.8549,0.0,-1.9508,-1.9845,0.0,-2.1842,0.0,-2.268,-2.3964,-2.4289,0.0,-2.4623,-2.4502,-2.4362,-2.4209,-2.3995,-2.3641,-2.3182,-2.2726,-2.2425,-2.2211,-2.1909,-2.1516,-2.1223,-2.1149,-2.1109,-2.1102,-2.0882,-2.0628,-2.0327,-2.004,-1.9746,-1.9472,-1.9457,-1.9424,-1.9424,-1.9424,-1.9424,-1.9339,-1.9118,-1.8804,-1.8444,-1.8095,-1.7842,-1.7582,-1.7582,-1.744,-1.7186,-1.7112,-1.673,-1.6299,-1.6446,-1.6326,-1.6206,-1.6426,-1.648,-1.648,-1.648,-1.654,-1.6573,-1.65,-1.7372,-1.8162,-1.8001,-1.9132,-2.0102,-2.015,-2.1152,-2.2031,-2.2222,-2.3046,-2.3501,-2.3185,-2.3803,-2.4258,-2.4258,-2.4551,-2.4609,-2.4287,-2.3867,-2.3623,-2.3623,-2.3276,-2.296,-2.2633,-2.295,-2.296,-2.2633,-2.1756,-2.0845,-1.9943,-1.8457,-1.7225,-1.6292,-1.5967,-1.5784,-1.1276,-1.1102,-1.0661,-1.243,-1.357,-1.4378,-1.4891,-1.6312,-1.7599,-1.7735,-1.8056,0.0,-1.7903,-1.7565,0.0,0.0,0.0,0.0,-1.8832,-1.8544,-1.9011,0.0,-2.1513,0.0,-2.4183,-2.4543,-2.4583,0.0,-2.4409,-2.4282,-2.4028,-2.3734,-2.33,-2.2686,-2.2378,-2.2031,-2.1603,-2.1443,-2.1276,-2.1109,-2.1109,-2.1109,-2.1102,-2.0942,-2.0708,-2.0408,-2.012,-1.9826,-1.9546,-1.9419,-1.9424,-1.9424,-1.9424,-1.9424,-1.941,-1.9178,-1.8851,-1.847,-1.8297,-1.7949,-1.7582,-1.7582,-1.744,-1.7199,-1.7199,-1.6878,-1.65,-1.666,-1.6587,-1.65,-1.666,-1.6707,-1.6707,-1.6707,-1.6807,-1.7062,-1.7463,-1.8382,-1.938,-2.0402,-2.1303,-2.2022,-2.233,-2.3128,-2.3627,-2.3439,-2.3988,-2.4404,-2.4355,-2.456,-2.4697,-2.4697,-2.4922,-2.4971,-2.4727,-2.4316,-2.3984,-2.3799,-2.3555,-2.3296,-2.3101,-2.3091,-2.3091,-2.3091,-2.14,-2.0169,-1.9497,-1.7716,-1.648,-1.5784,-1.5784,-1.5899,-1.4195,-1.4274,-1.3777,-1.5435,-1.5834,-1.6003,-1.6983,-1.7138,-1.7347,-1.8167,0.0,-1.7502,-1.7422,-1.7503,-1.7821,-1.8514,0.0,-1.7686,-1.8988,-1.7862,-1.8005,-2.0831,-2.1222,-2.213,-2.4408,-2.4636,-2.4516,-2.4222,-2.4402,-2.4289,-2.3741,-2.3427,-2.2966,-2.2325,-2.2024,-2.1623,-2.1116,-2.1109,-2.1109,-2.1109,-2.1109,-2.1109,-2.1109,-2.1069,-2.0915,-2.0661,-2.0321,-2.0034,-1.978,-1.9486,-1.9424,-1.9424,-1.9424,-1.9424,-1.9366,-1.9325,-1.8965,-1.8484,-1.8444,-1.8056,-1.7582,-1.7582,-1.7467,-1.7259,-1.7259,-1.7052,-1.6767,-1.6767,-1.6767,-1.6767,-1.6767,-1.6794,-1.6871,-1.7015,-1.7347,-1.79,-1.896,-1.9778,-2.0928,-2.3028,-2.3608,-2.3875,-2.4472,-2.4912,-2.5029,-2.4648,-2.459,-2.4727,-2.5107,-2.5155,-2.5135,-2.5146,-2.5156,-2.5156,-2.5156,-2.4756,-2.4326,-2.3896,-2.3818,-2.3594,-2.311,-2.3091,-2.3003,-2.2862,-2.0629,-1.9405,-1.9268,-1.6929,-1.5784,-1.5784,-1.5872,-1.6025,-1.5196,-1.5267,-1.5214,-1.5625,-1.6479,-1.7228,-1.7184,-1.7889,0.0,0.0,-1.7347,-1.7125,-1.6643,-1.5975,-1.5918,-1.7144,-1.6293,0.0,0.0,0.0,-1.612,0.0,0.0,0.0,0.0,-2.4636,0.0,0.0,-2.4028,-2.3768,-2.342,-2.3113,-2.2565,-2.173,-2.1416,-2.1209,-2.1109,-2.1109,-2.1109,-2.1109,-2.1109,-2.1109,-2.1102,-2.0862,-2.0722,-2.0648,-2.0107,-1.9846,-1.978,-1.9486,-1.9424,-1.9424,-1.9424,-1.9424,-1.9397,-1.9092,-1.8784,-1.8457,-1.8155,-1.7889,-1.7582,-1.7582,-1.7549,-1.7508,-1.7508,-1.7353,-1.7125,-1.7125,-1.7125,-1.7125,-1.7125,-1.7306,-1.7735,-1.8854,-1.9457,-2.0091,-2.1382,-2.2928,-2.4394,-2.5564,-2.5855,-2.5769,-2.5538,-2.5528,-2.5547,-2.5469,-2.546,-2.5489,-2.5567,-2.5293,-2.5205,-2.5586,-2.5625,-2.5625,-2.5625,-2.5215,-2.4766,-2.4336,-2.3984,-2.3594,-2.311,-2.3091,-2.2633,-2.1614,-2.0215,-1.9001,-1.801,-1.6527,-1.5784,-1.5791,-1.6079,-1.6226,-1.759,-1.7622,-1.7268,-1.8091,-1.852,-1.853,-1.7765,0.0,0.0,0.0,-1.6466,-1.6373,-1.6092,-1.6086,0.0,-1.7384,-1.6606,0.0,0.0,0.0,0.0,0.0,0.0,0.0,0.0,-2.4496,-2.4289,-2.4001,-2.3708,-2.348,-2.3333,-2.2886,-2.2365,-2.1862,-2.149,-2.1263,-2.1109,-2.1109,-2.1109,-2.1109,-2.1109,-2.1109,-2.1109,-2.0962,-2.0902,-2.0869,-2.0281,-2.0027,-1.9993,-1.9546,-1.9424,-1.9424,-1.9424,-1.9272,-1.9118,-1.8978,-1.8644,-1.8237,-1.8042,-1.7842,-1.7582,-1.7582,-1.7582,-1.7582,-1.7582,-1.7482,-1.7524,-1.8236,-1.8442,-1.8677,-1.9612,-1.9926,-2.0241,-2.1084,-2.2038,-2.2896,-2.3592,-2.4954,-2.6148,-2.6596,-2.6709,-2.665,-2.6445,-2.6221,-2.6074,-2.6074,-2.584,-2.5693,-2.5693,-2.5547,-2.5498,-2.5664,-2.5693,-2.5693,-2.5693,-2.5537,-2.5225,-2.4785,-2.456,-2.4258,-2.3783,-2.3594,-2.2923,-2.1672,-2.0235,-1.8952,-1.7898,-1.6669,-1.6139,-1.6286,-1.6433,-1.658,-1.9798,-1.9832,-1.9146,-2.0398,-2.0234,-1.9492,-1.8262,-1.7629,0.0,0.0,-1.5784,-1.5784,-1.5784,-1.64,-1.7121,0.0,-1.7428,-1.6848,0.0,0.0,0.0,0.0,0.0,0.0,0.0,-2.4242,0.0,-2.3694,-2.3394,-2.32,-2.3133,-2.2679,-2.2258,-2.1904,-2.1735,-2.141,-2.1109,-2.1109,-2.1109,-2.1109,-2.1109,-2.1109,-2.1109,-2.1109,-2.1109,-2.1076,-2.0488,-2.0173,-2.0187,-1.9606,-1.9424,-1.9424,-1.9424,-1.9225,-1.9011,-1.8945,-1.8575,-1.8169,-1.8109,-1.7943,-1.7695,-1.7756,-1.7689,-1.7595,-1.7662,-1.794,-1.8415,-1.9508,-2.0045,-2.062,-2.2045,-2.2432,-2.2628,-2.3305,-2.4562,-2.5611,-2.5694,-2.6532,-2.7256,-2.7178,-2.7158,-2.7129,-2.7031,-2.6738,-2.6523,-2.6523,-2.6152,-2.5859,-2.5947,-2.5879,-2.5859,-2.5947,-2.5801,-2.5723,-2.582,-2.5742,-2.5547,-2.5145,-2.5116,-2.4873,-2.4434,-2.4102,-2.3362,-2.2152,-2.0856,-1.9542,-1.8226,-1.7273,-1.6769,-1.6707,-1.6774,-1.6927,-2.038,-2.0372,-2.0123,-2.0615,-2.0234,-1.9492,-1.8262,0.0,0.0,-1.6017,-1.5784,-1.5784,-1.5784,-1.5844,-1.6406,0.0,-1.7722,-1.7685,0.0,0.0,0.0,0.0,0.0,0.0,0.0,-2.3828,-2.3688,-2.3387,-2.308,-2.2786,-2.2519,-2.2445,-2.2164,-2.1675,-2.1635,-2.141,-2.1109,-2.1109,-2.1109,-2.1109,-2.1109,-2.1109,-2.1109,-2.1109,-2.1109,-2.1076,-2.0488,-2.0173,-2.0187,-1.9606,-1.9424,-1.9424,-1.9424,-1.941,-1.9292,-1.9025,-1.8835,-1.8804,-1.8544,-1.8257,-1.7995,-1.8317,-1.8036,-1.7635,-1.7862,-1.8935,-2.0136,-2.0488,-2.1577,-2.265,-2.2797,-2.285,-2.326,-2.4969,-2.6439,-2.7548,-2.7927,-2.8067,-2.8066,-2.7738,-2.766,-2.748,-2.708,-2.6982,-2.6953,-2.6953,-2.6602,-2.6465,-2.6846,-2.6562,-2.6475,-2.6855,-2.6152,-2.5849,-2.6299,-2.5967,-2.5547,-2.5145,-2.5116,-2.4873,-2.4434,-2.4375,-2.3792,-2.2559,-2.2373,-2.1116,-1.8652,-1.8505,-1.7895,-1.6714,-1.7032,-1.7172,-2.012,-2.0454,-2.0481,-2.0428,-1.9833,-1.9011,-1.7996,0.0,-1.6607,-1.5959,-1.5784,-1.5784,-1.5784,-1.5784,-1.6084,-1.7074,-1.6981,-1.6761,-1.6629,0.0,0.0,0.0,0.0,0.0,0.0,0.0,-2.338,-2.3073,-2.2766,-2.2545,-2.2425,-2.2585,-2.2418,-2.183,-2.181,-2.1583,-2.1109,-2.1109,-2.1109,-2.1109,-2.1109,-2.1109,-2.1109,-2.1109,-2.1109,-2.1076,-2.0488,-2.0173,-2.0187,-1.9606,-1.9424,-1.9424,-1.9424,-1.9259,-1.9085,-1.8965,-1.8811,-1.8644,-1.8531,-1.841,-1.8337,-1.8457,-1.896,-1.9417,-1.9313,-1.9842,-2.0872,-2.2427,-2.3513,-2.4395,-2.5496,-2.5954,-2.6335,-2.7047,-2.7646,-2.8086,-2.8262,-2.8291,-2.8242,-2.8076,-2.8047,-2.7988,-2.7812,-2.7578,-2.7402,-2.7402,-2.7041,-2.6826,-2.6992,-2.6865,-2.6924,-2.7363,-2.6865,-2.6475,-2.6396,-2.623,-2.5937,-2.5498,-2.5469,-2.5391,-2.5177,-2.4951,-2.4231,-2.3015,-2.2731,-2.18,-2.0205,-1.9388,-1.8801,-1.844,-1.7757,-1.7508,-1.9553,-2.006,-2.0261,-2.0134,-1.9512,-1.8691,0.0,0.0,-1.6293,-1.5905,-1.5784,-1.5784,-1.5784,-1.5784,-1.5992,-1.6493,-1.6406,-1.6273,-1.6205,-1.7501,0.0,0.0,0.0,-2.1904,0.0,-2.308,-2.2966,-2.2746,-2.2458,-2.2291,-2.2291,-2.2492,-2.2372,-2.1877,-2.1857,-2.1617,-2.1116,-2.1109,-2.1109,-2.1109,-2.1109,-2.1109,-2.1109,-2.1022,-2.0982,-2.0949,-2.0361,-2.0107,-2.0067,-1.9573,-1.9424,-1.9424,-1.9424,-1.9239,-1.9052,-1.9052,-1.8925,-1.8751,-1.8751,-1.8691,-1.8631,-1.8718,-1.9709,-2.0867,-2.0964,-2.1532,-2.2535,-2.4306,-2.5374,-2.6265,-2.7554,-2.8066,-2.8291,-2.8291,-2.8291,-2.8291,-2.8291,-2.8291,-2.8291,-2.8291,-2.8291,-2.8291,-2.8291,-2.8047,-2.7851,-2.7851,-2.748,-2.7246,-2.7373,-2.7285,-2.7373,-2.7803,-2.7578,-2.7217,-2.6797,-2.665,-2.6387,-2.5957,-2.5937,-2.582,-2.5693,-2.5439,-2.4871,-2.4033,-2.3697,-2.2997,-2.1965,-2.098,-2.0413,-2.0187,-1.8905,-1.8244,-1.8691,-1.9152,-1.9511,-1.9733,-1.9359,-1.8691,0.0,-1.7128,-1.6533,-1.5904,-1.5784,-1.5784,-1.5784,-1.5784,-1.5925,-1.6226,-1.6279,-1.6687,-1.7822,-1.8303,0.0,0.0,0.0,-2.0601,-2.1554,-2.2091,-2.2425,-2.2425,-2.2158,-2.1991,-2.1991,-2.1991,-2.1857,-2.1635,-2.1621,-2.141,-2.1109,-2.1109,-2.1109,-2.1109,-2.1109,-2.1109,-2.1096,-2.0815,-2.0681,-2.0648,-2.006,-1.9806,-1.978,-1.9492,-1.9424,-1.9424,-1.9424,-1.9424,-1.9366,-1.9366,-1.9417,-1.9417,-1.9417,-1.9165,-1.8965,-1.9265,-2.0146,-2.1355,-2.2731,-2.4306,-2.5629,-2.5973,-2.7149,-2.8281,-2.8281,-2.8291,-2.8291,-2.8291,-2.8291,-2.8291,-2.8291,-2.8291,-2.8291,-2.8291,-2.8291,-2.8291,-2.8291,-2.8291,-2.8281,-2.8281,-2.793,-2.7865,-2.8223,-2.792,-2.7875,-2.8242,-2.8281,-2.8105,-2.7738,-2.7256,-2.6826,-2.6406,-2.6387,-2.6182,-2.5703,-2.5684,-2.5684,-2.5684,-2.5674,-2.5011,-2.3683,-2.3683,-2.2968,-2.1659,-2.0585,-1.951,-1.9069,-1.887,-1.8484,-1.8522,-1.8156,-1.7635,-1.7094,-1.6526,-1.6004,-1.5824,-1.5784,-1.5784,-1.5784,-1.5784,-1.5992,-1.6486,-1.6567,-1.6774,0.0,0.0,0.0,-1.9426,-2.0648,-2.1543,0.0,-2.2017,-2.2124,-2.2124,-2.185,-2.1755,-2.1755,-2.1496,-2.1436,-2.1614,-2.1614,-2.141,-2.1109,-2.0909,-2.0815,-2.0815,-2.0815,-2.0708,-2.0514,-2.0628,-2.0568,-2.0354,-1.9967,-1.98,-1.978,-1.9486,-1.9424,-1.9424,-1.9424,-1.9424,-1.9424,-1.9424,-1.9424,-1.9533,-2.0529,-2.0193,-1.9577,-2.1734,-2.2631,-2.3205,-2.4758,-2.5522,-2.6154,-2.7292,-2.795,-2.8291,-2.8291,-2.8291,-2.8291,-2.8291,-2.8291,-2.8291,-2.8291,-2.8525,-2.8633,-2.835,-2.8525,-2.8633,-2.834,-2.8291,-2.8291,-2.8291,-2.8174,-2.8144,-2.8271,-2.8174,-2.8144,-2.8281,-2.8291,-2.8125,-2.7748,-2.7539,-2.7148,-2.6435,-2.6387,-2.6328,-2.6182,-2.5849,-2.583,-2.6172,-2.584,-2.5624,-2.5557,-2.4284,-2.2525,-2.0254,-2.0635,-1.9974,-1.9132,-1.8749,-1.8305,-1.7949,-1.7422,-1.6934,-1.6747,-1.6253,-1.5784,-1.5784,-1.5784,-1.5784,-1.5784,-1.5784,-1.5904,-1.6313,-1.6466,-1.668,0.0,0.0,0.0,-1.9285,0.0,0.0,-2.149,-2.169,-2.1824,-2.1824,-2.155,-2.139,-2.139,-2.1102,-2.1029,-2.1279,-2.1329,-2.1243,-2.0949,-2.0768,-2.0621,-2.0508,-2.0508,-2.0408,-2.0173,-2.0307,-2.0247,-2.0054,-1.9766,-1.9639,0.0,-1.9446,-1.9424,-1.9417,-1.9245,-1.9199,-1.9185,-1.9078,-1.9367,-1.9871,-2.0423,-2.0693,-2.1055,-2.2501,-2.3766,-2.4931,-2.649,-2.6943,-2.7114,-2.8067,-2.8291,-2.8291,-2.8291,-2.8291,-2.8291,-2.8291,-2.8291,-2.8291,-2.8291,-2.8623,-2.8838,-2.8584,-2.874,-2.8838,-2.8574,-2.8398,-2.8291,-2.8291,-2.8291,-2.8291,-2.8291,-2.8291,-2.8291,-2.8291,-2.8291,-2.8184,-2.792,-2.791,-2.7607,-2.6914,-2.6875,-2.6797,-2.6631,-2.6367,-2.6348,-2.6621,-2.6357,-2.6357,-2.6621,-2.5509,-2.3586,-2.0991,-2.162,-2.0792,0.0,-1.8664,-1.8672,-1.7694,-1.7048,-1.6647,-1.6647,-1.6219,0.0,-1.5784,-1.5784,-1.5791,-1.5804,-1.5798,-1.5798,-1.5838,-1.6146,-1.6583,0.0,-1.7756,0.0,0.0,-2.0201,0.0,-2.0681,-2.1253,-2.1581,-2.1581,-2.1249,-2.1076,-2.1076,-2.0802,-2.0641,-2.0641,-2.0909,-2.0915,-2.0648,-2.0628,-2.0474,-2.0201,-2.0201,-2.0187,-2.0167,-1.9913,-1.9786,-1.9753,-1.9486,-1.9417,-1.9332,-1.9332,-1.9325,-1.9336,-1.8998,-1.8891,-1.8858,-1.8695,-1.9442,-2.0387,-1.9633,-2.1059,-2.3078,-2.2207,-2.3869,-2.649,-2.7897,-2.8291,-2.8291,-2.8291,-2.8291,-2.8291,-2.8291,-2.8291,-2.8291,-2.8291,-2.8291,-2.8291,-2.8291,-2.8643,-2.8945,-2.8887,-2.8926,-2.8955,-2.8926,-2.8574,-2.8301,-2.833,-2.834,-2.833,-2.8301,-2.832,-2.8267,-2.8184,-2.8237,-2.8237,-2.8121,-2.8237,-2.8115,-2.7748,-2.7718,-2.748,-2.708,-2.7031,-2.7031,-2.706,-2.706,-2.7041,-2.7012,-2.708,-2.5721,-2.3152,-2.3201,-2.1854,-1.8239,0.0,-1.7717,-1.6511,-1.6139,-1.6032,0.0,-1.5878,-1.5784,-1.5784,0.0,-1.5899,-1.6126,-1.5979,-1.5924,-1.6426,-1.6747,-1.7119,-1.7481,0.0,0.0,-2.0287,-2.0748,-2.0922,-2.0702,-2.1002,-2.1216,-2.1216,-2.0942,-2.0775,-2.0775,-2.0494,-2.0334,-2.0334,-2.0408,-2.0408,-2.0334,-2.0114,-1.9973,-1.99,-1.99,-1.9786,-1.9579,-1.9733,-1.9679,-1.9466,-1.9457,-1.9239,-1.9025,-1.9025,-1.8898,-1.8691,-1.8617,-1.8591,-1.8689,-1.9683,-2.0241,-2.0814,-2.3091,-2.3557,-2.3406,-2.4616,-2.6282,-2.7843,-2.8184,-2.8291,-2.8291,-2.8291,-2.8291,-2.8291,-2.8291,-2.8291,-2.8291,-2.8291,-2.8291,-2.8291,-2.8291,-2.8887,-2.9228,-2.8564,-2.8965,-2.9307,-2.8975,-2.8574,-2.8398,-2.8721,-2.8769,-2.8662,-2.833,-2.8574,-2.8189,-2.6744,-2.7618,-2.7843,-2.6717,-2.7672,-2.8115,-2.7748,-2.7718,-2.7669,-2.7519,-2.7197,-2.7178,-2.751,-2.7562,-2.7344,-2.7012,-2.7676,-2.6224,-2.2835,-2.3387,-2.2002,-1.8056,-1.7692,-1.7412,-1.6109,-1.5784,-1.5784,-1.5784,0.0,0.0,0.0,0.0,-1.5879,-1.6039,-1.6052,-1.6139,-1.6453,-1.6981,0.0,0.0,0.0,-1.9867,-2.0588,-2.0815,-2.0902,-2.0882,-2.1015,-2.1056,-2.0922,-2.0768,-2.0615,-2.0481,-2.0194,-2.0034,-2.0034,-1.9907,-1.99,-2.0034,-1.988,-1.9733,-1.9599,-1.9599,-1.9519,-1.943,-1.9533,-1.9439,-1.9165,-1.9165,-1.8998,-1.8724,-1.8724,-1.8631,-1.8532,-1.9029,-1.9238,-1.9372,-2.0582,-2.1454,-2.2138,-2.3458,-2.4022,-2.4546,-2.6488,-2.7628,-2.8291,-2.8291,-2.8291,-2.8291,-2.8291,-2.8291,-2.8291,-2.8291,-2.8291,-2.8291,-2.8291,-2.8291,-2.8291,-2.8291,-2.8809,-2.9131,-2.8672,-2.8955,-2.9258,-2.9228,-2.8857,-2.873,-2.915,-2.9053,-2.8838,-2.8613,-2.8613,-2.8255,-2.7251,-2.7843,-2.796,-2.7168,-2.7843,-2.8193,-2.7969,-2.8002,-2.8002,-2.8002,-2.7725,-2.7715,-2.7949,-2.7284,-2.6842,-2.6616,-2.6342,-2.4833,-2.2206,-2.2584,-2.1503,-1.7669,-1.7485,-1.7254,-1.6082,-1.5784,-1.5784,-1.5784,0.0,0.0,0.0,0.0,0.0,0.0,-1.6132,0.0,0.0,0.0,0.0,-1.9332,-1.9598,-1.9846,-2.0588,-2.0715,-2.0822,-2.1022,-2.1042,-2.0942,-2.0695,-2.0595,-2.0434,-2.018,-1.9887,-1.9733,-1.9733,-1.9499,-1.9486,-1.9733,-1.9733,-1.9606,-1.9424,-1.9424,-1.9424,-1.9424,-1.9424,-1.9205,-1.8925,-1.8925,-1.8731,-1.8424,-1.8424,-1.8397,-1.8433,-1.9374,-1.9736,-1.9858,-2.1205,-2.245,-2.3435,-2.3066,-2.4193,-2.6085,-2.7781,-2.8291,-2.8291,-2.8291,-2.8291,-2.8291,-2.8291,-2.8291,-2.8291,-2.8291,-2.8291,-2.8291,-2.8291,-2.8291,-2.8291,-2.8291,-2.8672,-2.8994,-2.8926,-2.9023,-2.9228,-2.96,-2.9307,-2.917,-2.96,-2.9355,-2.9092,-2.9023,-2.876,-2.8501,-2.8153,-2.831,-2.8272,-2.8057,-2.8223,-2.8291,-2.8291,-2.8291,-2.8291,-2.8291,-2.8291,-2.8184,-2.795,-2.6717,-2.5991,-2.5763,-2.4433,-2.3039,-2.1586,-2.1586,-2.0809,-1.6088,-1.6477,-1.6693,-1.6,-1.5784,-1.5784,-1.5784,0.0,0.0,0.0,0.0,0.0,0.0,-1.6406,-1.6489,0.0,0.0,-1.8758,0.0,0.0,-2.0521,-2.0661,-2.0895,-2.0962,-2.0762,-2.0742,-2.0722,-2.0681,-2.0214,-1.9913,-1.9867,-1.9593,-1.9432,-1.9432,-1.945,-1.945,-1.9432,-1.9432,-1.947,-1.9424,-1.9424,-1.9424,-1.9424,-1.9424,-1.9205,-1.8925,-1.8925,-1.8617,-1.8062,-1.8062,-1.7956,-1.7769,-1.7926,-1.7959,-1.8314,-2.0751,-2.2053,-2.2954,-2.5847,-2.729,-2.7927,-2.8218,-2.8291,-2.8291,-2.8291,-2.8291,-2.8291,-2.8291,-2.8291,-2.8291,-2.8291,-2.8291,-2.8291,-2.8291,-2.8291,-2.8291,-2.8291,-2.8916,-2.9365,-2.8994,-2.9502,-3.0019,-3.0088,-2.9756,-2.9609,-3.0039,-3.0039,-2.9873,-2.9512,-2.9726,-2.9295,-2.761,-2.8243,-2.8317,-2.7022,-2.7774,-2.8291,-2.8291,-2.8291,-2.8291,-2.8291,-2.8291,-2.7726,-2.6436,-2.6209,-2.5434,-2.4156,-2.3933,-2.3039,-2.1586,-2.1586,-2.0809,-1.5518,-1.5792,-1.6012,-1.6059,-1.6306,-1.646,-1.6139,0.0,0.0,0.0,0.0,0.0,0.0,0.0,-1.5834,-1.6935,0.0,-1.9265,-2.0114,-2.0214,-2.0321,-2.0641,-2.0795,-2.0822,-2.0688,-2.0675,-2.0541,-2.0227,-1.9953,-1.9733,-1.9573,-1.9497,-1.9424,-1.9424,-1.9424,-1.9424,-1.9424,-1.9424,-1.9424,-1.9424,-1.9424,-1.9424,-1.9424,-1.9424,-1.9118,-1.8691,-1.8691,-1.835,-1.7796,-1.7796,-1.7709,-1.7687,-1.8401,-1.9161,-2.0151,-2.3162,-2.4345,-2.4831,-2.6981,-2.7845,-2.7988,-2.8223,-2.8291,-2.8291,-2.8291,-2.8291,-2.8291,-2.8291,-2.8291,-2.834,-2.8574,-2.8633,-2.8691,-2.8926,-2.8984,-2.8984,-2.8984,-2.9297,-2.9567,-2.9307,-2.959,-2.9932,-3.0156,-3.0039,-3.0059,-3.0508,-3.0361,-3.0127,-2.9932,-2.9883,-2.955,-2.8662,-2.8986,-2.8981,-2.8294,-2.8484,-2.8535,-2.831,-2.8291,-2.8291,-2.8291,-2.8291,-2.7618,-2.6155,-2.5261,-2.41,-2.2589,-2.182,-2.1095,-2.0422,-2.0422,-2.004,-1.5398,-1.5551,-1.5691,-1.6072,-1.6506,-1.6844,-1.667,0.0,0.0,0.0,0.0,0.0,0.0,-1.5746,0.0,-1.7307,-1.8336,-1.9266,-2.028,-2.0247,-2.0274,-2.0722,-2.0775,-2.0755,-2.0681,-2.0615,-2.0361,-1.984,-1.974,-1.9599,-1.9437,-1.9299,-1.9299,-1.9424,-1.9299,-1.9299,-1.9424,-1.9299,-1.9299,-1.9424,-1.9424,-1.9424,-1.9424,-1.9292,-1.8978,-1.849,-1.8417,-1.8083,-1.7582,-1.7582,-1.7582,-1.7733,-1.9072,-2.0688,-2.2646,-2.5269,-2.6418,-2.6797,-2.7559,-2.7812,-2.7861,-2.8193,-2.8291,-2.8291,-2.8291,-2.8291,-2.831,-2.8408,-2.8437,-2.8516,-2.8838,-2.8916,-2.9033,-2.9463,-2.9626,-2.9626,-2.9626,-2.9648,-2.9717,-2.9717,-2.9805,-2.998,-3.0303,-3.0361,-3.0478,-3.084,-3.0586,-3.0361,-3.0361,-3.0078,-2.9883,-2.9883,-2.9785,-2.9678,-2.9636,-2.9258,-2.8887,-2.8467,-2.835,-2.8291,-2.8291,-2.8291,-2.7447,-2.5599,-2.4378,-2.287,-2.1088,-1.9924,-1.9424,-1.9424,-1.9424,-1.9424,-1.5645,-1.5999,-1.6152,-1.5919,-1.5892,0.0,-1.7248,-1.7347,0.0,0.0,0.0,0.0,0.0,-1.6675,-1.6422,-1.8859,-1.8258,-1.8386,-2.0734,-2.1029,-2.1029,-2.1076,-2.1076,-2.0969,-2.0702,-2.0428,-2.0134,-1.982,-1.9553,-1.945,-1.9424,-1.9105,-1.9085,-1.9417,-1.9098,-1.9085,-1.9424,-1.9092,-1.9092,-1.9424,-1.9424,-1.9424,-1.9417,-1.9085,-1.8784,-1.8477,-1.8142,-1.7889,-1.7582,-1.7582,-1.7582,-1.7733,-1.9072,-2.1447,-2.4263,-2.529,-2.6464,-2.7689,-2.8096,-2.8252,-2.8252,-2.8281,-2.8291,-2.8291,-2.8291,-2.8291,-2.8369,-2.876,-2.8877,-2.8877,-2.8916,-2.8916,-2.9033,-2.9463,-2.9626,-2.9626,-2.9626,-2.9873,-3.0156,-3.0156,-3.0498,-3.081,-3.083,-3.084,-3.085,-3.0889,-3.0859,-3.084,-3.084,-3.081,-3.0791,-3.0791,-3.041,-2.999,-2.96,-2.9597,-2.9336,-2.8906,-2.8506,-2.8291,-2.8291,-2.8291,-2.6943,-2.4044,-2.3877,-2.2379,-1.9533,-1.9424,-1.9424,-1.9424,-1.9424,-1.9424,-1.513,-1.5504,-1.5745,-1.5812,-1.5972,0.0,0.0,-1.7515,0.0,0.0,0.0,0.0,0.0,0.0,-1.6805,-1.7757,-1.7943,-1.8563,-2.0288,-2.0722,-2.0768,-2.0588,-2.0568,-2.0448,-2.016,-2.0027,-1.9766,-1.9292,-1.9152,-1.9011,-1.8831,-1.8718,-1.8704,-1.8818,-1.8711,-1.8711,-1.8818,-1.8711,-1.8711,-1.8824,-1.8824,-1.8918,-1.9085,-1.8791,-1.849,-1.8155,-1.8042,-1.7869,-1.7582,-1.7582,-1.7695,-1.8097,-2.0582,-2.2837,-2.4918,-2.6394,-2.7218,-2.7777,-2.8144,-2.8291,-2.8291,-2.8291,-2.8291,-2.834,-2.8603,-2.8682,-2.8769,-2.9209,-2.9326,-2.9385,-2.9648,-2.9717,-2.9824,-3.0283,-3.0391,-3.0391,-3.0391,-3.0518,-3.0635,-3.0635,-3.0771,-3.0889,-3.0889,-3.0889,-3.0889,-3.0889,-3.0889,-3.0889,-3.0889,-3.0889,-3.0889,-3.0889,-3.0732,-3.0449,-3.0,-2.9961,-2.9775,-2.9346,-2.8074,-2.7213,-2.6952,-2.5991,-2.4544,-2.2476,-2.242,-2.143,-1.9424,-1.9424,-1.9424,-1.9424,-1.9424,-1.9424,-1.5008,-1.5244,-1.5464,-1.5711,0.0,0.0,-1.6394,0.0,0.0,0.0,0.0,0.0,0.0,0.0,0.0,-1.7484,-1.7853,-1.8533,-1.9998,-2.0408,-2.0461,-2.0261,-2.0173,-2.0114,-1.9826,-1.98,-1.9553,-1.8965,-1.8925,-1.8798,-1.8504,-1.8404,-1.8397,-1.849,-1.8397,-1.8397,-1.849,-1.8397,-1.8397,-1.849,-1.8297,-1.841,-1.8778,-1.8484,-1.8237,-1.7989,-1.7889,-1.7776,-1.7582,-1.7582,-1.828,-1.9602,-2.1993,-2.4095,-2.6016,-2.7371,-2.7861,-2.791,-2.8193,-2.8291,-2.8291,-2.8291,-2.8291,-2.8369,-2.8789,-2.8916,-2.9033,-2.9609,-2.9766,-2.9863,-3.0303,-3.0303,-3.0312,-3.0781,-3.0889,-3.0889,-3.0889,-3.0889,-3.0889,-3.0889,-3.0889,-3.0889,-3.0889,-3.0889,-3.0889,-3.0889,-3.0889,-3.0889,-3.0889,-3.0889,-3.0889,-3.0889,-3.0889,-3.0762,-3.0449,-3.042,-3.0234,-2.9795,-2.7636,-2.6388,-2.6433,-2.4838,-2.3263,-2.1735,-2.1638,-2.0866,-1.9424,-1.9424,-1.9424,-1.9424,-1.9424,-1.9424,-1.5311,-1.5391,-1.5464,0.0,0.0,0.0,-1.4988,0.0,0.0,0.0,0.0,-1.9279,-1.8985,-1.7359,0.0,-1.8588,-1.8031,-1.8052,-1.9932,-2.0167,-2.0227,-2.0167,-2.016,-2.0107,-1.982,-1.9786,-1.9546,-1.8958,-1.8918,-1.8791,-1.8497,-1.8203,-1.8176,-1.847,-1.8196,-1.8183,-1.8477,-1.8135,-1.8135,-1.8477,-1.7869,-1.7896,-1.8477,-1.8176,-1.7989,-1.7969,-1.7716,-1.7582,-1.7582,-1.7635,-1.947,-2.2391,-2.312,-2.5201,-2.7777,-2.8135,-2.8291,-2.8291,-2.8291,-2.8291,-2.8291,-2.8291,-2.8291,-2.8369,-2.8789,-2.8926,-2.9101,-2.9961,-3.0205,-3.0303,-3.0771,-3.0547,-3.0322,-3.0781,-3.0889,-3.0889,-3.0889,-3.0889,-3.0889,-3.0889,-3.0889,-3.0889,-3.0889,-3.0889,-3.0889,-3.0889,-3.0889,-3.0889,-3.0889,-3.0889,-3.0889,-3.0889,-3.0889,-3.0889,-3.0889,-3.0889,-3.0693,-3.0225,-2.7287,-2.6058,-2.7025,-2.5252,-2.3508,-2.2013,-2.17,-2.0873,-1.943,-1.943,-1.943,-1.943,-1.943,-1.943,-1.4756,-1.4378,0.0,-1.3881,0.0,0.0,0.0,0.0,0.0,0.0,-1.6837,-1.6656,-1.8834,-1.6977,0.0,-1.8477,-1.8031,-1.7924,-1.9456,-1.98,-1.9853,-1.9646,-1.9439,-1.9279,-1.9192,-1.8998,-1.8724,-1.8282,-1.8249,-1.8176,-1.7869,-1.7769,-1.7756,-1.7849,-1.7769,-1.7762,-1.7849,-1.7762,-1.7769,-1.7849,-1.7669,-1.7789,-1.8115,-1.7856,-1.7722,-1.7716,-1.7622,-1.7582,-1.7701,-1.8844,-2.0695,-2.2845,-2.4286,-2.6175,-2.8125,-2.8252,-2.8291,-2.8291,-2.8291,-2.8291,-2.8291,-2.8291,-2.8291,-2.8428,-2.916,-2.916,-2.917,-3.0351,-3.0449,-3.0303,-3.0771,-3.0791,-3.0723,-3.0859,-3.0889,-3.0889,-3.0889,-3.0889,-3.0889,-3.0889,-3.0889,-3.0889,-3.0889,-3.0889,-3.0889,-3.0889,-3.0889,-3.0889,-3.0889,-3.0889,-3.0889,-3.0889,-3.0889,-3.0889,-3.0889,-3.0889,-3.0334,-2.9031,-2.703,-2.5786,-2.5576,-2.2889,-2.1205,-2.0734,-2.0651,-2.0378,-1.9973,-1.9973,-1.9873,-1.9679,-1.988,-1.9867,-1.4027,-1.3641,0.0,-1.2792,-1.2187,-1.1438,-1.0457,0.0,0.0,0.0,0.0,-1.611,-1.7902,-1.7092,-1.6649,-1.8269,-1.8141,-1.8147,-1.8924,-1.9165,-1.9212,-1.9038,-1.8858,-1.8751,-1.8751,-1.8591,-1.837,-1.8015,-1.7995,-1.7862,-1.7435,-1.746,-1.7355,-1.7241,-1.7235,-1.7288,-1.746,-1.746,-1.7468,-1.7582,-1.7582,-1.7682,-1.7856,-1.7669,-1.7582,-1.7582,-1.7582,-1.7891,-1.8475,-1.9625,-2.1213,-2.3048,-2.4757,-2.6579,-2.8291,-2.8291,-2.8291,-2.8291,-2.8291,-2.8291,-2.8291,-2.8291,-2.8291,-2.8418,-2.9101,-2.9121,-2.916,-3.0293,-3.041,-3.0303,-3.0771,-3.0889,-3.0889,-3.0889,-3.0889,-3.0889,-3.0889,-3.0889,-3.0889,-3.0889,-3.0889,-3.0889,-3.0889,-3.0889,-3.0889,-3.0889,-3.0889,-3.0889,-3.0889,-3.0889,-3.0889,-3.0889,-3.0889,-3.0889,-3.0889,-3.0889,-3.0206,-2.8477,-2.6893,-2.5484,-2.4412,-2.1836,-2.0408,-2.0408,-2.0294,-2.0173,-2.0173,-2.0114,-2.0034,-1.9973,-2.0034,-2.0027,-1.3246,-1.309,0.0,-1.2176,-1.1132,0.0,-0.9353,-1.0819,-1.2825,-1.4792,0.0,-1.65,-1.6477,-1.7453,-1.8225,-1.8049,-1.8303,-1.849,-1.849,-1.849,-1.849,-1.849,-1.8444,-1.841,-1.841,-1.8357,-1.8217,-1.7889,-1.7869,-1.7689,-1.7186,-1.7159,-1.6987,-1.6714,-1.6707,-1.6834,-1.7159,-1.7159,-1.7293,-1.7502,-1.7502,-1.7515,-1.7542,-1.7569,-1.7569,-1.7594,-1.7726,-1.8387,-1.9457,-2.0151,-2.137,-2.3051,-2.4863,-2.663,-2.8242,-2.8281,-2.8291,-2.8291,-2.8291,-2.8291,-2.8291,-2.8291,-2.8291,-2.8369,-2.8789,-2.8887,-2.9043,-2.9893,-3.0137,-3.0244,-3.0703,-3.0859,-3.0889,-3.0889,-3.0889,-3.0889,-3.0889,-3.0889,-3.0889,-3.0889,-3.0889,-3.0889,-3.0889,-3.0889,-3.0889,-3.0889,-3.0889,-3.0889,-3.0889,-3.0889,-3.0889,-3.0889,-3.0889,-3.0889,-3.0889,-3.0762,-2.9962,-2.8298,-2.6651,-2.5077,-2.345,-2.1707,-2.0715,-2.0715,-2.0448,-2.0253,-2.0253,-2.0047,-2.004,-2.0267,-2.0027,-2.0047,-1.3073,-1.2312,0.0,0.0,-0.9752,-0.9254,-0.9313,-0.972,-1.0578,-1.2247,-1.2772,-1.3626,-1.592,-1.6514,-1.7037,-1.8225,-1.8444,-1.849,-1.849,-1.849,-1.849,-1.849,-1.807,-1.7776,-1.7776,-1.7361,-1.7061,-1.7001,-1.6994,-1.6941,-1.6807,-1.68,-1.6774,-1.6707,-1.6707,-1.6734,-1.68,-1.68,-1.6834,-1.6894,-1.6894,-1.7014,-1.73,-1.7475,-1.7514,-1.7358,-1.8608,-1.8624,-1.797,-2.1474,-2.2715,-2.2735,-2.5539,-2.7143,-2.7894,-2.8174,-2.8291,-2.8291,-2.8291,-2.8291,-2.8291,-2.8291,-2.8291,-2.8369,-2.8789,-2.8691,-2.8603,-2.9463,-2.9707,-2.9805,-3.0234,-3.0615,-3.0889,-3.0889,-3.0889,-3.0889,-3.0889,-3.0889,-3.0889,-3.0889,-3.0889,-3.0889,-3.0889,-3.0889,-3.0889,-3.0889,-3.0889,-3.0889,-3.0889,-3.0889,-3.0889,-3.0889,-3.0889,-3.0889,-3.0889,-2.9707,-2.8239,-2.6651,-2.5024,-2.338,-2.1727,-2.1231,-2.1015,-2.1015,-2.0955,-2.0922,-2.0922,-2.0855,-2.0742,-2.0581,-2.0748,-2.0742,-1.2383,0.0,0.0,-0.9546,0.0,-0.8998,-0.9222,-0.9327,-0.9816,-1.1265,-1.2245,-1.3466,-1.5606,-1.6575,-1.7266,-1.7968,-1.8056,-1.8056,-1.8056,-1.7936,-1.7903,-1.7903,-1.7442,-1.7161,-1.7161,-1.6887,-1.6707,-1.6707,-1.6707,-1.6647,-1.6506,-1.65,-1.6433,-1.6286,-1.6286,-1.6353,-1.65,-1.65,-1.6567,-1.6707,-1.6707,-1.6787,-1.6947,-1.7293,-1.7695,-1.8201,-1.881,-1.8709,-1.8412,-2.1917,-2.2937,-2.2592,-2.5571,-2.7109,-2.7748,-2.7963,-2.8125,-2.8291,-2.8291,-2.8291,-2.8291,-2.8291,-2.8291,-2.833,-2.8555,-2.8467,-2.8476,-2.9326,-2.9626,-2.9717,-3.0361,-3.0713,-3.0889,-3.0889,-3.0889,-3.0889,-3.0889,-3.0889,-3.0889,-3.0889,-3.0889,-3.0889,-3.0889,-3.0889,-3.0889,-3.0889,-3.0889,-3.0889,-3.0889,-3.0889,-3.0889,-3.0889,-3.0889,-3.0889,-3.0889,-2.9344,-2.7683,-2.6098,-2.4479,-2.2834,-2.1172,-2.1109,-2.1109,-2.1109,-2.1109,-2.1109,-2.1109,-2.0969,-2.0895,-2.0882,-2.0895,-2.0895,-1.1566,0.0,-1.0208,-0.8855,-0.8693,0.0,-0.9169,-0.9232,-0.967,-1.1008,-1.2674,-1.4198,-1.541,-1.6911,-1.7883,-1.7622,-1.7582,-1.7562,-1.7515,-1.7353,-1.7186,-1.7132,-1.6814,-1.6627,-1.6627,-1.6587,-1.6553,-1.6553,-1.6553,-1.6453,-1.6213,-1.6192,-1.6086,-1.5791,-1.5784,-1.5945,-1.6192,-1.6192,-1.6319,-1.6553,-1.6607,-1.6627,-1.664,-1.6938,-1.7742,-1.902,-1.8954,-1.9148,-1.961,-2.21,-2.288,-2.28,-2.5418,-2.6865,-2.7568,-2.7689,-2.793,-2.8291,-2.8291,-2.8291,-2.8291,-2.8291,-2.8291,-2.8291,-2.8291,-2.8291,-2.8437,-2.915,-2.9453,-2.9792,-3.0469,-3.0781,-3.0889,-3.0889,-3.0889,-3.0889,-3.0889,-3.0889,-3.0889,-3.0889,-3.0889,-3.0889,-3.0889,-3.0889,-3.0889,-3.0889,-3.0889,-3.0889,-3.0889,-3.0889,-3.0889,-3.0889,-3.0889,-3.0889,-3.0889,-2.9098,-2.7443,-2.6098,-2.4232,-2.2529,-2.1172,-2.1109,-2.1109,-2.1109,-2.1109,-2.1109,-2.1109,-2.0869,-2.0875,-2.1102,-2.0862,-2.0882,0.0,0.0,-0.8453,0.0,-0.8611,-0.8811,0.0,0.0,-0.9408,0.0,-1.2506,-1.3964,-1.5194,-1.6662,-1.7629,-1.7589,-1.7582,-1.7495,-1.7293,-1.7226,-1.7105,-1.6794,-1.6506,-1.6333,-1.6333,-1.6099,-1.5898,-1.5898,-1.5898,-1.5878,-1.5892,-1.5885,-1.5872,-1.5784,-1.5784,-1.5798,-1.5885,-1.5885,-1.5858,-1.5904,-1.6206,-1.6333,-1.6333,-1.6422,-1.7107,-1.8327,-1.9962,-2.059,-2.0597,-2.2725,-2.3574,-2.3709,-2.5664,-2.668,-2.7148,-2.7529,-2.793,-2.8291,-2.8291,-2.8291,-2.8291,-2.8291,-2.8291,-2.8291,-2.8291,-2.8291,-2.831,-2.8428,-2.8994,-2.9655,-2.9717,-3.0312,-3.0889,-3.0889,-3.0889,-3.0889,-3.0889,-3.0889,-3.0889,-3.0889,-3.0889,-3.0889,-3.0889,-3.0889,-3.0889,-3.0889,-3.0889,-3.0889,-3.0889,-3.0889,-3.0889,-3.0889,-3.0889,-3.0889,-3.0889,-2.8119,-2.6227,-2.6037,-2.3124,-2.1355,-2.1109,-2.1109,-2.1109,-2.1109,-2.1109,-2.1109,-2.1109,-2.1069,-2.1069,-2.1109,-2.1069,-2.1076,-1.1781,-0.9999,-0.8724,0.0,-0.892,-0.8638,-0.8855,0.0,-0.9313,-1.0799,-1.2292,-1.3725,-1.4936,-1.6377,-1.7281,-1.7121,-1.7094,-1.7048,-1.6921,-1.6811,-1.6656,-1.648,-1.6206,-1.6025,-1.6025,-1.5905,-1.5784,-1.5784,-1.5784,-1.5784,-1.5784,-1.5784,-1.5784,-1.5784,-1.5784,-1.5784,-1.5784,-1.5784,-1.5784,-1.5784,-1.5965,-1.6025,-1.6025,-1.6777,-1.7435,-1.813,-1.8843,-1.9678,-2.0739,-2.239,-2.3344,-2.3859,-2.5377,-2.6289,-2.6689,-2.6885,-2.7217,-2.7617,-2.7851,-2.7939,-2.7978,-2.8223,-2.8291,-2.8291,-2.8291,-2.8291,-2.834,-2.8574,-2.8916,-2.9316,-2.9795,-3.0215,-3.0566,-3.083,-3.0889,-3.0889,-3.0889,-3.0889,-3.0889,-3.0889,-3.0889,-3.0889,-3.0889,-3.0889,-3.0889,-3.0889,-3.0889,-3.0889,-3.0889,-3.0889,-3.0889,-3.0889,-3.0889,-3.0889,-3.0889,-2.788,-2.5976,-2.5976,-2.2944,-2.1109,-2.1109,-2.1109,-2.1109,-2.1109,-2.1109,-2.1109,-2.1109,-2.1109,-2.1109,-2.1109,-2.1109,-2.1109,0.0,0.0,-0.9448,-0.9623,-0.9268,-0.8775,0.0,0.0,-0.9056,-1.0097,-1.1549,-1.2974,-1.4057,-1.5888,-1.7105,-1.6754,-1.6707,-1.668,-1.6607,-1.6413,-1.6295,-1.6166,-1.5965,-1.5784,-1.5784,-1.5784,-1.5784,-1.5784,-1.5784,-1.5784,-1.5784,-1.5784,-1.5784,-1.5784,-1.5784,-1.5784,-1.5784,-1.5784,-1.5784,-1.5784,-1.5784,-1.5784,-1.5832,-1.6763,-1.7678,-1.8454,-1.8341,-1.9343,-2.1202,-2.217,-2.322,-2.4295,-2.5208,-2.5908,-2.6387,-2.6387,-2.665,-2.708,-2.7562,-2.7718,-2.7787,-2.8154,-2.8291,-2.8291,-2.8291,-2.8291,-2.8359,-2.8672,-2.8838,-2.9092,-2.9844,-3.0117,-3.0312,-3.0781,-3.0889,-3.0889,-3.0889,-3.0889,-3.0889,-3.0889,-3.0889,-3.0889,-3.0889,-3.0889,-3.0889,-3.0889,-3.0889,-3.0889,-3.0889,-3.0889,-3.0889,-3.0889,-3.0889,-3.0889,-3.0889,-2.788,-2.5976,-2.5976,-2.2944,-2.1109,-2.1109,-2.1109,-2.1109,-2.1109,-2.1109,-2.1109,-2.1109,-2.1109,-2.1109,-2.1109,-2.1109,-2.1109,0.0,-1.1027,0.0,-0.9493,-0.9535,0.0,0.0,0.0,-0.8555,-0.8598,-0.9791,-1.1129,-1.2143,-1.5017,-1.7105,-1.6754,-1.6707,-1.6607,-1.6382,-1.6335,-1.6166,-1.5838,-1.5791,-1.5784,-1.5784,-1.5784,-1.5784,-1.5784,-1.5784,-1.5784,-1.5784,-1.5784,-1.5784,-1.5784,-1.5784,-1.5784,-1.5784,-1.5784,-1.5784,-1.5784,-1.5784,-1.5784,-1.5784,-1.5872,-1.7171,-1.9446,-1.9674,-2.0836,-2.251,-2.2416,-2.3669,-2.5548,-2.5264,-2.5625,-2.6387,-2.6387,-2.665,-2.708,-2.7562,-2.7718,-2.7787,-2.8154,-2.8291,-2.8291,-2.8291,-2.8291,-2.8301,-2.832,-2.8613,-2.9023,-2.9482,-2.9902,-3.0312,-3.0781,-3.0889,-3.0889,-3.0889,-3.0889,-3.0889,-3.0889,-3.0889,-3.0889,-3.0889,-3.0889,-3.0889,-3.0889,-3.0889,-3.0889,-3.0889,-3.0889,-3.0889,-3.0889,-3.0889,-3.0889,-3.0889,-2.788,-2.5976,-2.5976,-2.2944,-2.1109,-2.1109,-2.1109,-2.1109,-2.1109,-2.1109,-2.1109,-2.1109,-2.1109,-2.1109,-2.1109,-2.1109,-2.1109,0.0,0.0,0.0,-1.1053,-1.0283,-0.9441,-0.9338,-0.8903,-0.8455,-0.8367,-0.9593,-1.0703,-1.0794,-1.3303,-1.5519,-1.604,-1.6146,-1.6106,-1.6005,-1.5985,-1.5945,-1.5791,-1.5784,-1.5784,-1.5784,-1.5784,-1.5784,-1.5784,-1.5784,-1.5784,-1.5784,-1.5784,-1.5784,-1.5784,-1.5784,-1.5784,-1.5784,-1.5784,-1.5784,-1.5784,-1.5784,-1.5784,-1.5832,-1.6669,-1.7498,-1.8419,-2.0078,-2.1789,-2.3311,-2.2465,-2.342,-2.5293,-2.5174,-2.5439,-2.5967,-2.5967,-2.6015,-2.6249,-2.7002,-2.7246,-2.7363,-2.8066,-2.8291,-2.8291,-2.8291,-2.8291,-2.8291,-2.8291,-2.8398,-2.8682,-2.9385,-2.9687,-2.998,-3.0723,-3.0889,-3.0889,-3.0889,-3.0889,-3.0889,-3.0889,-3.0889,-3.0889,-3.0889,-3.0889,-3.0889,-3.0889,-3.0889,-3.0889,-3.0889,-3.0889,-3.0889,-3.0889,-3.0889,-3.0889,-3.0889,-2.788,-2.5976,-2.5976,-2.2944,-2.1109,-2.1109,-2.1109,-2.1109,-2.1109,-2.1109,-2.1109,-2.1109,-2.1109,-2.1109,-2.1109,-2.1109,-2.1109,-1.4485,0.0,0.0,0.0,-1.1107,-0.9716,-0.9856,-0.9045,-0.8245,-0.8201,-0.9075,-0.9829,-0.9995,-1.157,-1.334,-1.4927,-1.5146,-1.5289,-1.573,-1.5784,-1.5784,-1.5784,-1.5784,-1.5784,-1.5784,-1.5784,-1.5784,-1.5784,-1.5784,-1.5784,-1.5784,-1.5784,-1.5784,-1.5784,-1.5784,-1.5784,-1.5784,-1.5784,-1.5784,-1.5784,-1.5784,-1.6015,-1.648,-1.7318,-1.8141,-1.9001,-2.0621,-2.204,-2.3128,-2.2616,-2.3453,-2.5106,-2.4912,-2.5215,-2.5693,-2.5693,-2.5693,-2.581,-2.6719,-2.7012,-2.7158,-2.8018,-2.8291,-2.8291,-2.8291,-2.8291,-2.8291,-2.8291,-2.8291,-2.8486,-2.9346,-2.9841,-3.0166,-3.0752,-3.0889,-3.0889,-3.0889,-3.0889,-3.0889,-3.0889,-3.0889,-3.0889,-3.0889,-3.0889,-3.0889,-3.0889,-3.0889,-3.0889,-3.0889,-3.0889,-3.0889,-3.0889,-3.0889,-3.0889,-3.0889,-2.788,-2.5976,-2.5976,-2.2944,-2.1109,-2.1109,-2.1109,-2.1109,-2.1109,-2.1109,-2.1109,-2.1109,-2.1109,-2.1109,-2.1109,-2.1109,-2.1109,0.0,0.0,0.0,0.0,0.0,0.0,-1.0132,-0.8915,-0.789,-0.8001,-0.8035,-0.8375,-0.9702,-0.9948,-1.0774,-1.3392,-1.3872,-1.4364,-1.5635,-1.5784,-1.5784,-1.5784,-1.5784,-1.5784,-1.5784,-1.5784,-1.5784,-1.5784,-1.5784,-1.5784,-1.5784,-1.5784,-1.5784,-1.5784,-1.5784,-1.5784,-1.5784,-1.5784,-1.5784,-1.5784,-1.5825,-1.648,-1.7692,-1.7777,-1.9085,-2.1293,-2.1337,-2.1617,-2.2071,-2.2824,-2.3906,-2.5057,-2.459,-2.4923,-2.5693,-2.5693,-2.5693,-2.581,-2.6699,-2.7002,-2.7158,-2.7998,-2.8281,-2.8291,-2.8291,-2.8291,-2.8291,-2.8291,-2.8247,-2.8452,-2.931,-3.0234,-3.0889,-3.0889,-3.0889,-3.0889,-3.0889,-3.0889,-3.0889,-3.0889,-3.0889,-3.0889,-3.0889,-3.0889,-3.0889,-3.0889,-3.0889,-3.0889,-3.0889,-3.083,-3.083,-3.083,-3.0762,-3.0762,-3.0762,-2.7811,-2.5924,-2.5924,-2.2882,-2.1109,-2.1109,-2.1109,-2.1109,-2.1109,-2.1109,-2.1109,-2.1109,-2.1109,-2.1109,-2.1109,-2.1109,-2.1109,-1.621,0.0,0.0,0.0,0.0,0.0,-1.1592,-1.0021,-0.8672,-0.9016,-0.8452,-0.8004,-0.846,-0.8528,-0.9118,-1.0823,-1.2668,-1.4364,-1.5635,-1.5784,-1.5784,-1.5784,-1.5784,-1.5784,-1.5784,-1.5784,-1.5784,-1.5784,-1.5784,-1.5784,-1.5784,-1.5784,-1.5784,-1.5784,-1.5784,-1.5784,-1.5784,-1.5784,-1.5784,-1.5832,-1.6716,-1.7365,-1.7777,-1.9497,-2.0666,-2.1337,-2.2217,-2.2656,-2.2834,-2.3392,-2.4004,-2.4619,-2.4814,-2.5234,-2.5693,-2.5693,-2.5693,-2.5762,-2.6367,-2.6758,-2.7109,-2.7666,-2.8047,-2.8291,-2.8291,-2.8291,-2.8291,-2.8291,-2.7675,-2.7188,-2.8054,-2.9563,-3.0889,-3.0889,-3.0889,-3.0889,-3.0889,-3.0889,-3.0889,-3.0889,-3.0889,-3.0889,-3.0889,-3.0889,-3.0889,-3.0889,-3.0889,-3.0889,-3.0889,-2.9844,-2.9098,-2.9098,-2.8059,-2.7383,-2.7383,-2.5452,-2.4232,-2.4232,-2.2278,-2.1109,-2.1109,-2.1109,-2.1109,-2.1109,-2.1109,-2.1109,-2.1109,-2.1109,-2.1109,-2.1109,-2.1109,-2.1109,0.0,0.0,0.0,0.0,0.0,0.0,-1.2787,-1.1257,-0.9937,-0.9951,-0.9066,-0.835,-0.8582,-0.8234,-0.8354,-0.9792,-1.1258,-1.2909,-1.4752,-1.5439,-1.5784,-1.5784,-1.5784,-1.5784,-1.5784,-1.5784,-1.5784,-1.5784,-1.5784,-1.5784,-1.5784,-1.5784,-1.5784,-1.5784,-1.5784,-1.5784,-1.5784,-1.5784,-1.6062,-1.6622,-1.7365,-1.8234,-1.9268,-2.0666,-2.1569,-2.2085,-2.3002,-2.3408,-2.3457,-2.4072,-2.4365,-2.4463,-2.4893,-2.5342,-2.5693,-2.5693,-2.5693,-2.5771,-2.6435,-2.6807,-2.7119,-2.7725,-2.8096,-2.8291,-2.8291,-2.8291,-2.8291,-2.8291,-2.7478,-2.6783,-2.7575,-2.8187,-2.8827,-2.967,-2.9344,-2.9039,-2.9717,-2.9344,-2.9039,-2.9717,-2.9844,-2.9844,-2.9844,-2.9844,-3.0079,-3.0772,-3.0889,-3.0645,-2.9962,-2.897,-2.811,-2.7443,-2.6582,-2.5976,-2.5976,-2.454,-2.3574,-2.3574,-2.2034,-2.1109,-2.1109,-2.1109,-2.1109,-2.1109,-2.1109,-2.1109,-2.1109,-2.1109,-2.1109,-2.1109,-2.1109,-2.1109,0.0,0.0,0.0,0.0,-1.5918,0.0,-1.3967,-1.2785,-1.1596,-1.1146,-1.0061,-0.9298,-0.972,-0.8909,-0.8594,-0.9909,-1.0311,-1.1258,-1.3584,-1.4848,-1.5635,-1.5778,-1.5784,-1.5784,-1.5784,-1.5784,-1.5784,-1.5784,-1.5784,-1.5784,-1.5784,-1.5784,-1.5784,-1.5784,-1.5784,-1.5784,-1.5784,-1.5784,-1.6433,-1.7692,-1.7824,-1.9085,-2.1293,-2.1436,-2.2076,-2.312,-2.3545,-2.374,-2.3857,-2.4658,-2.4795,-2.4531,-2.4971,-2.5391,-2.5693,-2.5693,-2.5693,-2.5801,-2.6611,-2.6934,-2.7139,-2.79,-2.8213,-2.8291,-2.8291,-2.8291,-2.8247,-2.8125,-2.7397,-2.683,-2.7338,-2.6454,-2.5881,-2.7652,-2.7013,-2.635,-2.7794,-2.7013,-2.634,-2.7632,-2.7991,-2.811,-2.811,-2.811,-2.8664,-3.0147,-3.0333,-2.9835,-2.8298,-2.7991,-2.7323,-2.5863,-2.5558,-2.5436,-2.5436,-2.417,-2.3325,-2.3325,-2.1908,-2.1109,-2.1109,-2.1109,-2.1109,-2.1109,-2.1109,-2.1109,-2.1109,-2.1109,-2.1109,-2.1109,-2.1109,-2.1109,0.0,0.0,0.0,0.0,0.0,0.0,-1.5907,-1.4769,-1.3866,-1.3757,-1.2224,-1.1049,-1.1428,-1.0918,-1.0561,-1.0836,-1.2131,-1.3343,-1.3824,-1.4118,-1.4657,-1.5683,-1.5784,-1.5784,-1.5784,-1.5784,-1.5784,-1.5784,-1.5784,-1.5784,-1.5784,-1.5784,-1.5784,-1.5784,-1.5784,-1.5784,-1.5784,-1.5784,-1.6433,-1.7684,-1.868,-1.9898,-2.1337,-2.2306,-2.2862,-2.3101,-2.3188,-2.3467,-2.3828,-2.4336,-2.4697,-2.498,-2.543,-2.5615,-2.5693,-2.5693,-2.5693,-2.5713,-2.5879,-2.6386,-2.7041,-2.7217,-2.7734,-2.8291,-2.8291,-2.8291,-2.8091,-2.7133,-2.6772,-2.6533,-2.5658,-2.5303,-2.5327,-2.5999,-2.5845,-2.5741,-2.6342,-2.6219,-2.568,-2.4725,-2.5566,-2.647,-2.647,-2.647,-2.6591,-2.6893,-2.6961,-2.6832,-2.653,-2.5322,-2.4425,-2.4116,-2.2889,-2.209,-2.209,-2.179,-2.1607,-2.1607,-2.1292,-2.1109,-2.1109,-2.1109,-2.1109,-2.1109,-2.1109,-2.1109,-2.1109,-2.1109,-2.1109,-2.1109,-2.1109,-2.1109,0.0,0.0,0.0,-1.8776,0.0,0.0,0.0,-1.6646,-1.6356,-1.5513,-1.3913,-1.2835,-1.3461,-1.2842,-1.2148,-1.1839,-1.2634,-1.3456,-1.3837,-1.4459,-1.5092,-1.573,-1.5784,-1.5784,-1.5784,-1.5784,-1.5784,-1.5784,-1.5784,-1.5784,-1.5784,-1.5784,-1.5784,-1.5784,-1.5784,-1.5784,-1.5784,-1.5784,-1.6749,-1.8596,-1.9222,-2.044,-2.2217,-2.2818,-2.3091,-2.311,-2.3369,-2.3711,-2.4141,-2.456,-2.5,-2.543,-2.5596,-2.5693,-2.5713,-2.5977,-2.6064,-2.6123,-2.6553,-2.6836,-2.708,-2.7519,-2.7803,-2.8018,-2.8232,-2.8291,-2.8218,-2.7786,-2.6514,-2.5194,-2.4936,-2.3665,-2.2761,-2.3869,-2.3601,-2.3346,-2.4358,-2.404,-2.3311,-2.2522,-2.3007,-2.3792,-2.4655,-2.4778,-2.5077,-2.5855,-2.5976,-2.5733,-2.4901,-2.4116,-2.3263,-2.2466,-2.1601,-2.1109,-2.1109,-2.1109,-2.1109,-2.1109,-2.1109,-2.1109,-2.1109,-2.1109,-2.1109,-2.1109,-2.1109,-2.1109,-2.1109,-2.1109,-2.1109,-2.1109,-2.1109,-2.1109,0.0,0.0,0.0,0.0,0.0,-2.0488,0.0,0.0,0.0,-1.7427,-1.5922,-1.5115,-1.5708,-1.4844,-1.3884,-1.3504,-1.3627,-1.3979,-1.4562,-1.5631,-1.6223,-1.5872,-1.5731,-1.5718,-1.5771,-1.5784,-1.5784,-1.5784,-1.5784,-1.5784,-1.5784,-1.5784,-1.5784,-1.5784,-1.6062,-1.6157,-1.6157,-1.6379,-1.7615,-1.9852,-1.9852,-2.0989,-2.3091,-2.3091,-2.3091,-2.312,-2.3603,-2.4033,-2.4453,-2.4893,-2.5332,-2.5693,-2.5693,-2.5693,-2.5732,-2.6133,-2.6318,-2.6484,-2.7229,-2.7246,-2.7139,-2.792,-2.7998,-2.7904,-2.8193,-2.8291,-2.8359,-2.8701,-2.6408,-2.3962,-2.454,-2.225,-2.0135,-2.1779,-2.1327,-2.0965,-2.2342,-2.1818,-2.1109,-2.1109,-2.1109,-2.1538,-2.2897,-2.3146,-2.3566,-2.4885,-2.5069,-2.4586,-2.3263,-2.3146,-2.2591,-2.1235,-2.1109,-2.1109,-2.1109,-2.1109,-2.1109,-2.1109,-2.1109,-2.1109,-2.1109,-2.1109,-2.1109,-2.1109,-2.1109,-2.1109,-2.1109,-2.1109,-2.1109,-2.1109,-2.1109,-2.1109,0.0,0.0,0.0,0.0,-2.1146,0.0,-2.1084,0.0,-2.2013,-2.0584,0.0,-1.8552,-1.803,0.0,0.0,-1.6706,-1.7209,-1.7534,-1.7363,-1.7994,-1.7788,-1.6028,-1.5605,-1.5545,-1.5758,-1.5784,-1.5784,-1.5784,-1.5784,-1.5784,-1.5784,-1.5784,-1.5784,-1.5784,-1.6897,-1.7505,-1.7505,-1.8542,-1.9761,-2.1114,-2.1114,-2.18,-2.3091,-2.3091,-2.3091,-2.312,-2.3603,-2.4033,-2.4453,-2.4893,-2.5332,-2.5693,-2.5693,-2.5693,-2.5693,-2.5742,-2.6055,-2.6396,-2.6494,-2.6748,-2.71,-2.7578,-2.7959,-2.8232,-2.8281,-2.8291,-2.8301,-2.835,-2.6145,-2.3838,-2.3929,-2.1683,-1.9544,-2.001,-2.0187,-2.0415,-2.0862,-2.1027,-2.1109,-2.1109,-2.1109,-2.1172,-2.1355,-2.1355,-2.1475,-2.1657,-2.1657,-2.1601,-2.1418,-2.1355,-2.1292,-2.1109,-2.1109,-2.1109,-2.1109,-2.1109,-2.1109,-2.1109,-2.1109,-2.1109,-2.1109,-2.1109,-2.1109,-2.1109,-2.1109,-2.1109,-2.1109,-2.1109,-2.1109,-2.1109,-2.1109,-2.1109,0.0,0.0,0.0,0.0,0.0,0.0,-2.1623,-2.2361,-2.2861,-2.1456,0.0,0.0,0.0,0.0,0.0,0.0,-1.8408,-1.8512,-1.8074,-1.7966,-1.7569,-1.6617,-1.6398,-1.6178,-1.5846,-1.5678,-1.5651,-1.5764,-1.5671,-1.5651,-1.5771,-1.5784,-1.5784,-1.5784,-1.7037,-1.7692,-1.7692,-1.891,-2.0124,-2.1293,-2.1293,-2.1933,-2.3091,-2.3091,-2.3091,-2.312,-2.3603,-2.4033,-2.4453,-2.4893,-2.5332,-2.5693,-2.5693,-2.5693,-2.5713,-2.6025,-2.6387,-2.6758,-2.6758,-2.7031,-2.7422,-2.766,-2.7949,-2.8291,-2.8291,-2.8291,-2.8121,-2.7276,-2.5489,-2.3599,-2.2758,-2.0988,-1.9457,-1.9519,-1.99,-2.0267,-2.0394,-2.0782,-2.1109,-2.1109,-2.1109,-2.1109,-2.1109,-2.1109,-2.1109,-2.1109,-2.1109,-2.1109,-2.1109,-2.1109,-2.1109,-2.1109,-2.1109,-2.1109,-2.1109,-2.1109,-2.1109,-2.1109,-2.1109,-2.1109,-2.1109,-2.1109,-2.1109,-2.1109,-2.1109,-2.1109,-2.1109,-2.1109,-2.1109,-2.1109,-2.1109,-2.1109,-2.2002,0.0,0.0,-2.1494,-2.2362,-2.3029,-2.1996,-2.2868,-2.3404,-2.1882,-2.1424,0.0,0.0,0.0,-1.9735,-1.9279,0.0,-1.9316,-1.8925,-1.8581,-1.8104,-1.7418,-1.7423,-1.7295,-1.6854,-1.6512,-1.6419,-1.66,-1.6455,-1.625,-1.6147,-1.6558,-1.6655,-1.6339,-1.7855,-1.8688,-1.8688,-1.9861,-2.0944,-2.18,-2.18,-2.2262,-2.3091,-2.3091,-2.3091,-2.312,-2.3603,-2.4033,-2.4453,-2.4893,-2.5332,-2.5693,-2.5693,-2.5693,-2.5723,-2.6094,-2.6484,-2.6846,-2.6846,-2.7207,-2.7699,-2.7529,-2.7851,-2.8291,-2.8291,-2.8291,-2.8004,-2.6545,-2.4986,-2.3487,-2.1975,-2.0537,-1.9424,-1.9424,-1.9813,-2.0173,-2.0173,-2.0695,-2.1109,-2.1109,-2.1109,-2.1109,-2.1109,-2.1109,-2.1109,-2.1109,-2.1109,-2.1109,-2.1109,-2.1109,-2.1109,-2.1109,-2.1109,-2.1109,-2.1109,-2.1109,-2.1109,-2.1109,-2.1109,-2.1109,-2.1109,-2.1109,-2.1109,-2.1109,-2.1109,-2.1109,-2.1109,-2.1109,-2.1109,-2.1109,-2.1109,-2.1109,-2.2002,-2.1885,-2.1885,-2.1865,-2.2595,-2.3196,-2.2754,-2.374,-2.4233,-2.2347,-2.2314,-2.2232,-2.0839,-2.0195,-2.0059,-2.0459,-2.0527,0.0,0.0,-2.0828,-2.0363,-1.839,-1.8518,-1.8913,-1.9319,-1.8942,-1.8685,-1.8693,-1.8693,-1.8195,-1.6995,-1.8482,-1.8864,-1.7692,-1.9943,-2.1159,-2.1159,-2.2403,-2.3003,-2.3047,-2.3047,-2.3047,-2.3091,-2.3091,-2.3091,-2.312,-2.3603,-2.4033,-2.4453,-2.4893,-2.5332,-2.5693,-2.5693,-2.5693,-2.5693,-2.5703,-2.6035,-2.6406,-2.6406,-2.6963,-2.765,-2.7178,-2.7607,-2.8291,-2.8291,-2.8291,-2.8004,-2.6545,-2.4986,-2.3487,-2.1975,-2.0537,-1.9424,-1.9424,-1.9813,-2.0173,-2.0173,-2.0695,-2.1109,-2.1109,-2.1109,-2.1109,-2.1109,-2.1109,-2.1109,-2.1109,-2.1109,-2.1109,-2.1109,-2.1109,-2.1109,-2.1109,-2.1109,-2.1109,-2.1109,-2.1109,-2.1109,-2.1109,-2.1109,-2.1109,-2.1109,-2.1109,-2.1109,-2.1109,-2.1109,-2.1109,-2.1109,-2.1109,-2.1109,-2.1109,-2.1109,-2.1109,-2.2711,-2.2672,-2.2646,-2.2373,-2.2745,-2.3157,-2.3119,-2.371,-2.3945,-2.2727,-2.2587,-2.2283,-2.0868,-2.0488,-2.0429,-2.0576,-2.0605,-2.0605,0.0,-2.0732,-2.066,-2.0218,-1.9368,-1.8769,-1.8663,-1.8584,-1.851,-1.8423,-1.8253,-1.8146,-1.8268,-1.8755,-1.8978,-1.8902,-2.044,-2.1293,-2.1293,-2.2492,-2.3091,-2.3091,-2.3091,-2.3091,-2.3091,-2.3091,-2.3091,-2.312,-2.3603,-2.4033,-2.4453,-2.4893,-2.5332,-2.5693,-2.5693,-2.5693,-2.5693,-2.5693,-2.6016,-2.6465,-2.7041,-2.7236,-2.7305,-2.7725,-2.8057,-2.8291,-2.8291,-2.8291,-2.7789,-2.527,-2.4211,-2.3215,-2.0759,-1.9758,-1.9412,-1.9606,-1.9953,-2.0287,-2.0481,-2.0835,-2.1109,-2.1109,-2.1109,-2.1109,-2.1109,-2.1109,-2.1109,-2.1109,-2.1109,-2.1109,-2.1109,-2.1109,-2.1109,-2.1109,-2.1109,-2.1109,-2.1109,-2.1109,-2.1109,-2.1109,-2.1109,-2.1109,-2.1109,-2.1109,-2.1109,-2.1109,-2.1109,-2.1109,-2.1109,-2.1109,-2.1109,-2.1109,-2.1109,-2.1109,-2.3091,-2.3091,-2.3033,-2.276,-2.2896,-2.3079,-2.3041,-2.3348,-2.343,-2.2603,-2.2409,-2.2088,-2.0997,-2.0713,-2.0605,-2.0605,-2.0605,-2.0605,0.0,-2.0605,-2.0713,-2.0967,-2.0204,-1.9616,-1.9511,-1.9456,-1.9377,-1.9251,-1.9108,-1.9071,-1.9297,-1.9808,-2.0139,-2.0152,-2.1302,-2.1943,-2.1943,-2.2721,-2.3091,-2.3091,-2.3091,-2.3091,-2.3091,-2.3091,-2.3091,-2.312,-2.3603,-2.4033,-2.4453,-2.4893,-2.5332,-2.5693,-2.5693,-2.5693,-2.5693,-2.5693,-2.6016,-2.6484,-2.7197,-2.7353,-2.7334,-2.7891,-2.8174,-2.8291,-2.8291,-2.8291,-2.7672,-2.4654,-2.3822,-2.3103,-2.0148,-1.9424,-1.9497,-1.9733,-2.002,-2.0314,-2.0615,-2.0902,-2.1109,-2.1109,-2.1109,-2.1109,-2.1109,-2.1109,-2.1109,-2.1109,-2.1109,-2.1109,-2.1109,-2.1109,-2.1109,-2.1109,-2.1109,-2.1109,-2.1109,-2.1109,-2.1109,-2.1109,-2.1109,-2.1109,-2.1109,-2.1109,-2.1156,-2.1263,-2.1162,-2.1162,-2.1269,-2.1162,-2.1109,-2.1109,-2.1109,-2.1109]},{"header":{"parameterUnit":"m.s-1","parameterCategory":1,"la1":30.6,"la2":29.2853,"lo1":-89.7004,"lo2":-87.6739,"dy":0.0162,"dx":0.0183,"nx":112,"ny":82,"refTime":"2024-02-07T18:00:00:Z","depth":0,"parameterNumber":3,"parameterNumberName":"V-component_of_WINDS"},"data":[0.0,0.0,0.0,0.0,0.0,0.0,0.0,0.0,0.0,0.0,0.0,0.0,0.0,0.0,0.0,0.0,0.0,0.0,0.0,0.0,0.0,0.0,0.0,0.0,0.0,0.0,0.0,0.0,0.0,0.0,0.0,0.0,0.0,0.0,0.0,0.0,0.0,0.0,0.0,0.0,0.0,0.0,0.0,0.0,0.0,0.0,0.0,0.0,0.0,0.0,0.0,0.0,0.0,0.0,0.0,0.0,0.0,0.0,0.0,0.0,0.0,0.0,0.0,0.0,0.0,0.0,0.0,0.0,0.0,0.0,0.0,0.0,0.0,0.0,0.0,0.0,0.0,0.0,0.0,0.0,0.0,0.0,0.0,0.0,0.0,0.0,0.0,0.0,0.0,0.0,2.031,2.0477,2.6192,2.9877,2.9695,3.2514,3.3233,3.081,0.0,0.0,0.0,0.0,0.0,0.0,0.0,0.0,0.0,0.0,0.0,0.0,0.0,0.0,0.0,0.0,0.0,0.0,0.0,0.0,0.0,0.0,0.0,0.0,0.0,0.0,0.0,0.0,0.0,0.0,0.0,0.0,0.0,0.0,0.0,0.0,0.0,0.0,0.0,0.0,0.0,0.0,0.0,0.0,0.0,0.0,0.0,0.0,0.0,0.0,0.0,0.0,0.0,0.0,0.0,0.0,0.0,0.0,0.0,0.0,0.0,0.0,0.0,0.0,0.0,0.0,0.0,0.0,0.0,0.0,0.0,0.0,0.0,0.0,0.0,0.0,0.0,0.0,0.0,0.0,0.0,0.0,0.0,0.0,0.0,0.0,0.0,0.0,0.0,0.0,0.0,0.0,0.0,0.0,0.0,0.0,0.0,0.0,0.0,0.0,0.0,0.0,0.0,0.0,2.1209,2.3022,2.6563,2.8679,2.8254,3.0783,3.1513,2.9353,0.0,0.0,0.0,0.0,0.0,0.0,0.0,0.0,0.0,0.0,0.0,0.0,0.0,0.0,0.0,0.0,0.0,0.0,0.0,0.0,0.0,0.0,0.0,0.0,0.0,0.0,0.0,0.0,0.0,0.0,0.0,0.0,0.0,0.0,0.0,0.0,0.0,0.0,0.0,0.0,0.0,0.0,0.0,0.0,0.0,0.0,0.0,0.0,0.0,0.0,0.0,0.0,0.0,0.0,0.0,0.0,0.0,0.0,0.0,0.0,0.0,0.0,0.0,0.0,0.0,0.0,0.0,0.0,0.0,0.0,0.0,0.0,0.0,0.0,0.0,0.0,0.0,0.0,0.0,0.0,0.0,0.0,0.0,0.0,0.0,0.0,0.0,0.0,0.0,0.0,0.0,0.0,0.0,0.0,0.0,0.0,0.0,0.0,0.0,0.0,0.0,0.0,0.0,2.1142,2.234,2.4436,2.6799,2.8394,2.8772,3.0758,3.1192,2.9295,2.8918,0.0,0.0,0.0,0.0,0.0,0.0,0.0,0.0,0.0,0.0,0.0,0.0,0.0,0.0,0.0,0.0,0.0,0.0,0.0,0.0,0.0,0.0,0.0,0.0,0.0,0.0,0.0,0.0,0.0,0.0,0.0,0.0,0.0,0.0,0.0,0.0,0.0,0.0,0.0,0.0,0.0,0.0,0.0,0.0,0.0,0.0,0.0,0.0,0.0,0.0,0.0,0.0,0.0,0.0,0.0,0.0,0.0,0.0,0.0,0.0,0.0,0.0,0.0,0.0,0.0,0.0,0.0,0.0,0.0,0.0,0.0,0.0,0.0,0.0,0.0,0.0,0.0,0.0,0.0,0.0,0.0,0.0,0.0,0.0,0.0,0.0,0.0,0.0,0.0,0.0,0.0,0.0,0.0,0.0,0.0,0.0,0.0,0.0,0.0,0.0,0.0,0.0,2.2934,2.3873,2.5508,2.7114,2.8433,2.9171,3.0582,3.0774,2.9241,2.8292,0.0,0.0,0.0,0.0,0.0,0.0,0.0,0.0,0.0,0.0,0.0,0.0,0.0,0.0,0.0,0.0,0.0,0.0,0.0,0.0,0.0,0.0,0.0,0.0,0.0,0.0,0.0,0.0,0.0,0.0,0.0,0.0,0.0,0.0,0.0,0.0,0.0,0.0,0.0,0.0,0.0,0.0,0.0,0.0,0.0,0.0,0.0,0.0,0.0,0.0,0.0,0.0,0.0,0.0,0.0,0.0,0.0,0.0,0.0,0.0,0.0,0.0,0.0,0.0,0.0,0.0,0.0,0.0,0.0,0.0,0.0,0.0,0.0,0.0,0.0,0.0,0.0,0.0,0.0,0.0,0.0,0.0,0.0,0.0,0.0,0.0,0.0,0.0,0.0,0.0,0.0,0.0,0.0,0.0,0.0,0.0,0.0,0.0,0.0,0.0,0.0,0.0,2.4429,2.6138,2.6393,2.7798,2.8603,2.8238,2.911,2.9324,2.8528,2.7755,0.0,0.0,0.0,0.0,0.0,0.0,0.0,0.0,0.0,0.0,0.0,0.0,0.0,0.0,0.0,0.0,0.0,0.0,0.0,0.0,0.0,0.0,0.0,0.0,0.0,0.0,0.0,0.0,0.0,0.0,0.0,0.0,0.0,0.0,0.0,0.0,0.0,0.0,0.0,0.0,0.0,0.0,0.0,0.0,0.0,0.0,0.0,0.0,0.0,0.0,0.0,0.0,0.0,0.0,0.0,0.0,0.0,0.0,0.0,0.0,0.0,0.0,0.0,0.0,0.0,0.0,0.0,0.0,0.0,0.0,0.0,0.0,0.0,0.0,0.0,0.0,0.0,0.0,0.0,0.0,0.0,0.0,0.0,0.0,0.0,0.0,0.0,0.0,0.0,0.0,0.0,0.0,0.0,0.0,0.0,0.0,0.0,0.0,0.0,0.0,0.0,0.0,2.5213,2.6716,0.0,2.8032,2.8818,2.9961,3.051,3.0208,2.8847,0.0,0.0,0.0,0.0,0.0,0.0,0.0,0.0,0.0,0.0,0.0,0.0,0.0,0.0,0.0,0.0,0.0,0.0,0.0,0.0,0.0,0.0,0.0,0.0,0.0,0.0,0.0,0.0,0.0,0.0,0.0,0.0,0.0,0.0,0.0,0.0,0.0,0.0,0.0,0.0,0.0,0.0,0.0,0.0,0.0,0.0,0.0,0.0,0.0,0.0,0.0,0.0,0.0,0.0,0.0,0.0,0.0,0.0,0.0,0.0,0.0,0.0,0.0,0.0,0.0,0.0,0.0,0.0,0.0,0.0,0.0,0.0,0.0,0.0,0.0,0.0,0.0,0.0,0.0,0.0,0.0,0.0,0.0,0.0,0.0,0.0,0.0,0.0,0.0,0.0,0.0,0.0,0.0,0.0,0.0,0.0,0.0,0.0,0.0,0.0,0.0,0.0,2.4904,2.6354,2.7752,0.0,2.8479,2.9131,3.1042,3.0694,3.0082,2.9387,0.0,0.0,0.0,0.0,0.0,0.0,0.0,0.0,0.0,0.0,0.0,0.0,0.0,0.0,0.0,0.0,0.0,0.0,0.0,0.0,0.0,0.0,0.0,0.0,0.0,0.0,0.0,0.0,0.0,0.0,0.0,0.0,0.0,0.0,0.0,0.0,0.0,0.0,0.0,0.0,0.0,0.0,0.0,0.0,0.0,0.0,0.0,0.0,0.0,0.0,0.0,0.0,0.0,0.0,0.0,0.0,0.0,0.0,0.0,0.0,0.0,0.0,0.0,0.0,0.0,0.0,0.0,0.0,0.0,0.0,0.0,0.0,0.0,0.0,0.0,0.0,0.0,0.0,0.0,0.0,0.0,0.0,0.0,0.0,0.0,0.0,0.0,0.0,0.0,0.0,0.0,0.0,0.0,0.0,0.0,0.0,0.0,0.0,0.0,0.0,0.0,0.0,2.6106,2.8028,2.9532,2.982,2.9315,2.9578,3.1077,2.9103,2.8409,0.0,0.0,0.0,0.0,0.0,0.0,0.0,0.0,0.0,0.0,0.0,0.0,0.0,0.0,0.0,0.0,0.0,0.0,0.0,0.0,0.0,0.0,0.0,0.0,0.0,0.0,0.0,0.0,0.0,0.0,0.0,0.0,0.0,0.0,0.0,0.0,0.0,0.0,0.0,0.0,0.0,0.0,0.0,0.0,0.0,0.0,0.0,0.0,0.0,0.0,0.0,0.0,0.0,0.0,0.0,0.0,0.0,0.0,0.0,0.0,0.0,0.0,0.0,0.0,0.0,0.0,0.0,0.0,0.0,0.0,0.0,0.0,0.0,0.0,0.0,0.0,0.0,0.0,0.0,0.0,0.0,0.0,0.0,0.0,0.0,0.0,0.0,0.0,0.0,0.0,0.0,0.0,0.0,0.0,0.0,0.0,0.0,0.0,0.0,0.0,0.0,0.0,0.0,2.8263,2.9598,3.0752,3.1671,3.1631,3.1787,3.2478,3.1045,3.0389,3.1058,0.0,0.0,0.0,0.0,0.0,0.0,0.0,0.0,0.0,0.0,0.0,0.0,0.0,0.0,0.0,0.0,0.0,0.0,0.0,0.0,0.0,0.0,0.0,0.0,0.0,0.0,0.0,0.0,0.0,0.0,0.0,0.0,0.0,0.0,0.0,0.0,0.0,0.0,0.0,0.0,0.0,0.0,0.0,0.0,0.0,0.0,0.0,0.0,0.0,0.0,0.0,0.0,0.0,0.0,0.0,0.0,0.0,0.0,0.0,0.0,0.0,0.0,0.0,0.0,0.0,0.0,0.0,0.0,0.0,0.0,0.0,0.0,0.0,0.0,0.0,0.0,0.0,0.0,0.0,0.0,0.0,0.0,0.0,0.0,0.0,0.0,0.0,0.0,0.0,0.0,0.0,0.0,0.0,0.0,0.0,0.0,0.0,0.0,0.0,0.0,0.0,0.0,2.9794,3.0764,3.164,3.2504,3.2421,3.2493,3.3063,3.1907,3.1137,3.1095,0.0,0.0,0.0,0.0,0.0,0.0,0.0,0.0,0.0,0.0,0.0,0.0,0.0,0.0,0.0,0.0,0.0,0.0,0.0,0.0,0.0,0.0,0.0,0.0,0.0,0.0,0.0,0.0,0.0,0.0,0.0,0.0,0.0,0.0,0.0,0.0,0.0,0.0,0.0,0.0,0.0,0.0,0.0,0.0,0.0,0.0,0.0,0.0,0.0,0.0,0.0,0.0,0.0,0.0,0.0,0.0,0.0,0.0,0.0,0.0,0.0,0.0,0.0,0.0,0.0,0.0,0.0,0.0,0.0,0.0,0.0,0.0,0.0,0.0,0.0,0.0,0.0,0.0,0.0,0.0,0.0,0.0,0.0,0.0,0.0,0.0,0.0,0.0,0.0,0.0,0.0,0.0,0.0,0.0,0.0,0.0,0.0,0.0,0.0,0.0,0.0,0.0,3.0795,3.1673,3.2387,3.2835,3.2423,3.243,3.3167,3.2052,3.1157,3.0705,0.0,0.0,0.0,0.0,0.0,0.0,0.0,0.0,0.0,0.0,0.0,0.0,0.0,0.0,0.0,0.0,0.0,0.0,0.0,0.0,0.0,0.0,0.0,0.0,0.0,0.0,0.0,0.0,0.0,0.0,0.0,0.0,0.0,0.0,0.0,0.0,0.0,0.0,0.0,0.0,0.0,0.0,0.0,0.0,0.0,0.0,0.0,0.0,0.0,0.0,0.0,0.0,0.0,0.0,0.0,0.0,0.0,0.0,0.0,0.0,4.0853,3.9652,0.0,0.0,0.0,0.0,0.0,0.0,0.0,0.0,0.0,0.0,0.0,0.0,0.0,0.0,0.0,0.0,0.0,0.0,0.0,0.0,0.0,0.0,0.0,0.0,0.0,0.0,0.0,0.0,0.0,0.0,0.0,0.0,0.0,0.0,0.0,0.0,0.0,0.0,0.0,0.0,3.169,3.2647,3.3634,3.474,3.4769,3.4573,3.4216,3.3,3.2184,3.2064,3.059,0.0,0.0,0.0,0.0,0.0,0.0,0.0,0.0,0.0,0.0,0.0,0.0,0.0,0.0,0.0,0.0,0.0,0.0,0.0,0.0,0.0,0.0,0.0,0.0,0.0,0.0,0.0,0.0,0.0,0.0,0.0,0.0,0.0,0.0,0.0,0.0,0.0,0.0,0.0,0.0,0.0,0.0,0.0,0.0,0.0,0.0,0.0,0.0,0.0,0.0,0.0,0.0,0.0,0.0,0.0,0.0,0.0,0.0,0.0,4.4646,4.3171,0.0,0.0,0.0,0.0,0.0,0.0,0.0,0.0,0.0,0.0,0.0,0.0,0.0,0.0,0.0,0.0,0.0,0.0,0.0,0.0,0.0,0.0,0.0,0.0,0.0,0.0,0.0,0.0,0.0,0.0,0.0,0.0,0.0,0.0,0.0,0.0,0.0,0.0,0.0,0.0,3.2617,3.3844,3.4945,3.5966,3.6399,3.6168,3.5125,3.4394,3.3587,3.2614,3.1834,0.0,0.0,0.0,0.0,0.0,0.0,0.0,0.0,0.0,0.0,0.0,0.0,0.0,0.0,0.0,0.0,0.0,0.0,0.0,0.0,0.0,0.0,0.0,0.0,0.0,0.0,0.0,0.0,0.0,0.0,0.0,0.0,0.0,0.0,0.0,0.0,0.0,0.0,0.0,0.0,0.0,0.0,0.0,0.0,0.0,0.0,0.0,0.0,0.0,0.0,0.0,0.0,0.0,5.4901,5.4561,5.3802,5.3854,5.3522,5.2712,4.9669,4.8059,4.7408,4.511,0.0,0.0,0.0,0.0,0.0,0.0,0.0,0.0,0.0,0.0,0.0,0.0,0.0,0.0,0.0,0.0,0.0,0.0,0.0,0.0,0.0,0.0,3.9754,4.077,4.0527,3.9588,3.7758,0.0,0.0,0.0,0.0,0.0,0.0,0.0,0.0,0.0,0.0,0.0,3.3531,3.4754,3.5762,3.6438,3.7169,3.7131,3.5906,3.5784,3.5112,3.3443,3.3546,3.2987,0.0,0.0,0.0,0.0,0.0,0.0,0.0,0.0,0.0,0.0,0.0,0.0,0.0,0.0,0.0,0.0,0.0,0.0,0.0,0.0,0.0,0.0,0.0,0.0,0.0,0.0,0.0,0.0,0.0,0.0,0.0,0.0,5.109,5.2584,0.0,0.0,0.0,0.0,0.0,0.0,0.0,0.0,0.0,0.0,0.0,0.0,0.0,5.6724,5.7428,5.8796,5.9481,5.9481,6.02,6.0109,5.9359,5.9341,5.9286,5.9079,5.6664,0.0,5.0521,4.8108,0.0,0.0,0.0,0.0,0.0,0.0,0.0,0.0,0.0,0.0,0.0,0.0,0.0,0.0,0.0,0.0,0.0,0.0,0.0,0.0,0.0,0.0,4.1572,4.051,4.018,4.0011,3.9716,3.8783,3.7702,3.6706,3.5594,3.4547,0.0,0.0,0.0,0.0,0.0,0.0,3.4287,3.4611,3.5,3.568,3.6394,3.6761,3.6581,3.6621,3.6522,3.6278,3.511,3.4619,3.4988,3.3265,0.0,0.0,0.0,0.0,0.0,0.0,0.0,0.0,0.0,0.0,0.0,0.0,0.0,0.0,0.0,0.0,0.0,0.0,0.0,0.0,0.0,0.0,0.0,0.0,0.0,0.0,0.0,0.0,0.0,5.0737,5.2031,5.2139,5.2375,5.2165,0.0,0.0,0.0,0.0,0.0,0.0,0.0,0.0,0.0,5.7972,5.9465,6.0434,6.0799,6.191,6.2236,6.1777,6.2603,6.2567,6.1759,6.1759,6.1502,6.0982,5.953,5.7698,5.5504,5.2319,5.0095,4.8518,0.0,0.0,0.0,0.0,4.4889,4.4412,4.6322,4.5476,4.386,4.5653,0.0,0.0,0.0,0.0,0.0,0.0,0.0,4.1864,4.1227,4.154,4.1968,4.1731,4.1108,4.0673,4.1111,4.0163,3.8966,3.8187,3.7877,3.7256,3.5698,3.482,0.0,0.0,0.0,3.3949,3.4534,3.5333,3.5943,3.6232,3.7314,3.7801,3.7357,3.7742,3.7791,3.74,3.6767,3.6175,3.5656,3.5116,3.4544,0.0,0.0,0.0,0.0,0.0,0.0,0.0,0.0,0.0,0.0,0.0,0.0,0.0,0.0,0.0,0.0,0.0,0.0,0.0,0.0,0.0,0.0,0.0,0.0,0.0,0.0,0.0,0.0,5.2078,5.3074,5.2355,5.3697,5.3993,0.0,0.0,0.0,0.0,0.0,0.0,5.7568,5.875,6.0225,6.2068,6.3364,6.4163,6.4365,6.4806,6.4806,6.4365,6.4604,6.4475,6.4053,6.3631,6.3117,6.2475,6.1245,6.0254,5.9247,5.5819,5.3164,5.1208,5.0816,4.947,4.7951,4.9031,4.871,4.7949,4.9627,4.8829,4.7237,4.8212,4.6932,4.4784,4.3643,0.0,0.0,0.0,0.0,4.181,4.181,4.181,4.1952,4.2497,4.185,4.129,4.1893,4.1229,4.0236,3.9197,3.9445,3.9244,3.7394,3.6307,0.0,3.5277,0.0,3.4648,3.483,3.5803,3.6485,3.6485,3.7821,3.8487,3.7866,3.8678,3.8977,3.842,3.8205,3.7536,3.6236,3.6383,3.569,3.4015,0.0,0.0,0.0,0.0,0.0,0.0,0.0,0.0,0.0,0.0,0.0,0.0,0.0,0.0,0.0,0.0,0.0,0.0,0.0,0.0,0.0,0.0,0.0,0.0,0.0,0.0,0.0,0.0,0.0,5.5404,5.6915,0.0,0.0,0.0,0.0,5.6747,5.8087,5.9956,6.232,6.2528,6.369,6.6111,6.7026,6.7816,6.8605,6.7871,6.7871,6.8586,6.7081,6.6751,6.7393,6.587,6.5154,6.4989,6.2585,6.108,6.0162,5.7652,5.5736,5.4225,5.2701,5.1682,5.104,5.0939,5.0859,5.0783,5.0757,4.9807,4.8836,5.0267,4.9281,4.708,4.4749,4.3532,0.0,0.0,4.181,4.181,4.181,4.181,4.181,4.1864,4.1807,4.1768,4.1821,4.1764,4.117,3.9333,3.9022,3.8802,3.7976,0.0,3.5934,3.6592,3.5511,3.4847,3.547,3.5611,3.565,3.565,3.7043,3.7932,3.7908,3.9192,4.0028,3.9995,3.9327,3.8608,3.7838,3.6411,3.56,3.5481,3.4095,0.0,0.0,0.0,0.0,0.0,0.0,0.0,0.0,0.0,0.0,0.0,0.0,0.0,0.0,0.0,0.0,0.0,0.0,0.0,0.0,0.0,0.0,0.0,0.0,0.0,0.0,0.0,0.0,5.7157,5.9511,0.0,5.8513,5.8842,5.9633,6.0656,6.1727,6.3411,6.5815,6.6439,6.7614,6.9541,6.9871,6.9908,6.9669,6.9376,6.8862,6.8109,6.754,6.7412,6.7659,6.6035,6.5319,6.5173,6.2677,6.1135,6.0291,5.8891,5.7423,5.5957,5.5373,5.4401,5.3299,5.3207,5.2853,5.24,5.2373,5.1339,4.9859,4.8796,4.7943,4.7055,4.5677,4.4717,4.4028,4.3756,4.3302,4.2885,4.2885,4.2885,4.2885,4.2885,4.2619,4.2382,4.2382,4.2062,4.1485,4.0429,4.0229,3.9887,3.879,3.7764,3.7035,3.6817,3.5912,3.5339,3.5577,3.56,3.56,3.56,3.6969,3.7905,3.7905,3.8819,3.9402,3.9402,3.87,3.7956,3.7212,3.6654,3.591,3.4912,3.437,3.388,0.0,0.0,0.0,0.0,0.0,0.0,0.0,0.0,0.0,0.0,0.0,0.0,0.0,0.0,0.0,0.0,0.0,0.0,0.0,0.0,0.0,0.0,0.0,0.0,0.0,5.6823,5.9168,5.9079,6.177,6.3135,6.1777,6.2144,6.3007,6.4347,6.5246,6.6641,6.8788,6.9431,7.022,7.1256,7.1293,7.0917,7.011,6.9834,6.9155,6.8091,6.754,6.7283,6.7228,6.5632,6.4732,6.4347,6.2144,6.075,5.9942,5.9134,5.818,5.7207,5.7207,5.625,5.4843,5.4569,5.3949,5.3204,5.2904,5.2105,5.0839,4.8655,4.7939,4.7737,4.6636,4.5755,4.5057,4.4764,4.4121,4.3515,4.3515,4.3515,4.3515,4.3515,4.3232,4.292,4.275,4.2521,4.2126,4.1358,4.1041,4.0509,3.9212,3.8396,3.7736,3.7229,3.6282,3.5701,3.5977,3.5752,3.5701,3.5994,3.7144,3.7905,3.7905,3.8802,3.9157,3.865,3.8176,3.7567,3.6829,3.6535,3.591,3.4895,3.4802,3.4533,3.4038,0.0,0.0,0.0,0.0,0.0,0.0,0.0,0.0,0.0,0.0,0.0,0.0,0.0,0.0,0.0,0.0,0.0,0.0,0.0,0.0,0.0,0.0,0.0,5.448,5.8299,6.1225,6.1379,6.3767,6.5118,6.4347,6.5687,6.6953,6.7742,6.8531,6.9688,7.1238,7.1329,7.1311,7.1293,7.1293,7.0917,7.0073,6.9265,6.8862,6.8807,6.7228,6.6457,6.6402,6.4806,6.3613,6.2707,6.1098,5.9942,5.9129,5.8327,5.7997,5.7997,5.7997,5.7102,5.5695,5.4911,5.408,5.3175,5.2264,5.1958,5.1683,5.0088,4.9555,4.9262,4.759,4.6562,4.5773,4.4911,4.4122,4.3498,4.3463,4.3462,4.348,4.348,4.3497,4.3357,4.2845,4.3124,4.316,4.2021,4.1358,4.0555,3.9236,3.8437,3.7939,3.7905,3.6614,0.0,3.6745,3.6146,3.5977,3.6761,3.7483,3.7939,3.7939,3.9208,3.9436,3.799,3.7855,3.7516,3.6829,3.6062,3.5633,3.5633,3.5459,3.5347,3.5347,0.0,0.0,0.0,0.0,0.0,0.0,0.0,0.0,0.0,0.0,0.0,0.0,0.0,0.0,0.0,0.0,0.0,0.0,0.0,0.0,0.0,5.4988,5.7444,5.8724,6.121,6.3571,6.54,6.698,6.8054,6.8421,6.8843,6.9431,7.0257,7.0532,7.1101,7.2129,7.2184,7.1908,7.1311,7.1293,7.0642,6.9247,6.8421,6.7742,6.7155,6.6127,6.5632,6.5613,6.4567,6.3613,6.2707,6.1098,5.9942,5.9129,5.8327,5.7997,5.7997,5.7997,5.7043,5.5624,5.5405,5.4432,5.3028,5.1621,5.1132,5.0857,4.9205,4.8655,4.8471,4.7406,4.6947,4.6415,4.4614,4.3955,4.3552,4.2528,4.2599,4.292,4.292,4.3214,4.3444,4.3303,4.3392,4.316,4.2021,4.2021,4.1665,3.9882,3.9082,3.8514,3.799,3.755,3.7364,3.7567,3.7415,3.7364,3.7567,3.8261,3.87,3.87,3.8582,3.8328,3.7939,3.6834,3.64,3.6778,3.6592,3.6468,3.6468,3.6609,3.6488,0.0,0.0,0.0,0.0,0.0,0.0,0.0,0.0,0.0,0.0,0.0,0.0,0.0,0.0,0.0,0.0,0.0,0.0,0.0,0.0,0.0,0.0,5.7532,6.0251,6.3005,6.3973,6.5448,6.8316,6.8777,6.9486,7.0954,7.0807,7.0954,7.1743,7.1817,7.2018,7.2477,7.2184,7.1633,7.0825,7.0477,6.9688,6.8403,6.7595,6.6953,6.6494,6.5338,6.4806,6.4769,6.3943,6.2915,6.1741,6.0823,5.9758,5.8676,5.8198,5.7997,5.796,0.0,0.0,0.0,0.0,5.3261,5.2496,5.0867,5.0508,5.0527,4.8857,4.8306,4.8159,4.7333,4.6856,4.6287,4.469,4.3996,4.3539,4.2727,4.2771,4.3032,4.3032,4.3268,4.3427,4.3214,4.3339,4.3232,4.2344,4.246,0.0,4.0889,3.9905,3.9218,3.8868,3.8311,3.8024,3.8328,3.8091,3.8024,3.8328,3.8734,3.8988,3.8988,3.8886,0.0,0.0,0.0,3.6462,3.6299,3.6626,0.0,0.0,0.0,3.7808,3.8031,3.858,0.0,0.0,3.875,3.8922,0.0,0.0,0.0,0.0,0.0,0.0,0.0,0.0,0.0,0.0,0.0,0.0,0.0,0.0,0.0,0.0,6.0613,6.3124,6.6737,6.6398,6.6988,7.0248,6.9688,6.9963,7.2275,7.178,7.1651,7.2441,7.2422,7.2367,7.2367,7.1706,0.0,0.0,0.0,6.8513,6.7714,6.6806,6.6366,6.6347,6.4732,6.3943,6.3906,6.3062,6.1851,6.0401,6.0309,5.941,5.7997,5.7997,5.7886,5.7648,5.695,5.5806,5.4297,5.1904,5.1465,5.1864,5.0181,0.0,0.0,4.882,4.8306,4.8159,4.7333,4.6599,4.5828,4.4875,4.4106,4.3502,4.3339,4.3356,4.341,4.341,4.3444,4.3375,4.2902,4.316,4.3339,4.2789,4.275,4.2559,4.1814,4.0775,4.0043,4.0077,3.9044,3.8434,3.9046,3.8548,3.8396,3.9039,3.9106,0.0,3.9106,3.9656,3.9436,3.8108,3.8024,3.7415,3.6039,3.6775,3.7415,3.7827,3.834,3.9167,4.0312,4.0771,4.1082,4.1189,3.9589,3.9441,0.0,0.0,0.0,0.0,0.0,0.0,0.0,0.0,0.0,0.0,0.0,0.0,0.0,0.0,0.0,5.9583,6.2226,6.4968,6.775,6.7768,6.8499,7.1157,7.053,7.055,7.233,7.178,7.1651,7.2441,7.1908,7.1513,7.1513,7.1366,7.0642,6.9192,6.899,6.8513,6.7714,6.6256,6.554,6.5521,6.3851,0.0,6.3025,6.2199,6.1318,6.0364,5.9698,5.8896,5.7997,5.7997,5.7226,5.6033,5.5886,5.5251,5.4206,5.2453,5.1883,5.1794,5.0158,4.9702,4.9665,4.8636,4.8306,4.8159,4.7333,4.6984,0.0,4.4593,4.3952,4.3565,4.2407,4.2501,4.2864,4.2864,4.3196,4.3462,4.3375,4.3427,4.3339,4.2789,4.305,4.2847,4.134,4.1257,4.1111,4.0237,4.0233,4.0223,3.9909,3.9774,3.974,3.9876,3.9893,3.9893,3.9893,3.9462,3.9089,3.8802,3.8785,3.865,3.8345,3.9331,3.9713,3.9383,3.9682,3.9985,4.0312,4.0348,4.0959,4.2066,4.1714,4.1679,0.0,0.0,0.0,0.0,0.0,0.0,0.0,0.0,0.0,0.0,0.0,5.518,5.6215,0.0,6.0585,6.2713,6.4981,6.7109,6.8821,6.8813,6.9405,7.1459,7.0753,7.0734,7.2349,7.2147,7.2074,7.2477,7.2147,7.1725,7.1311,7.0936,7.0146,6.8953,6.8513,6.8109,6.7687,6.6109,6.5319,6.5283,6.3191,6.2199,6.2181,6.1374,6.0566,5.9795,5.9368,5.8749,5.7997,5.7997,5.7042,5.5614,5.5614,5.4858,5.3647,5.2435,5.1995,5.1777,5.0161,4.961,4.9463,4.8581,4.8031,4.7535,4.6746,4.6214,4.559,4.4108,4.3706,4.3541,4.2824,4.2865,4.3105,4.3105,4.3322,4.3515,4.3515,4.3515,4.3427,4.316,4.3322,4.3123,4.2,4.2059,4.1746,4.0328,4.0797,4.1059,4.0204,4.0319,4.0392,4.0121,4.0096,4.0096,4.0096,3.9774,3.9554,3.9554,3.9554,3.9377,3.9005,3.9519,3.9806,3.9794,3.9923,4.0357,4.1046,4.1026,4.1359,4.2062,4.2359,4.2505,0.0,0.0,0.0,0.0,0.0,0.0,0.0,0.0,5.3186,5.4375,5.602,5.7768,5.9438,6.1435,6.3563,6.5763,6.7582,6.9025,6.9889,6.9774,7.0086,7.1382,7.0696,7.0734,7.2349,7.2367,7.2275,7.2275,7.2129,7.1688,7.0899,7.022,6.9504,6.8697,6.8036,6.7687,6.7687,6.6109,6.5319,6.5283,6.2787,6.1594,6.1557,6.0621,5.9813,5.9184,5.9019,5.8602,5.7997,5.7831,5.6914,5.5596,5.5449,5.4473,5.3093,5.2289,5.1885,5.1555,5.0106,4.95,4.9224,4.8526,4.7846,4.7168,4.6379,4.5571,4.4782,4.3956,4.3608,4.3515,4.3515,4.3515,4.3515,4.3515,4.3515,4.3515,4.3515,4.3515,4.3515,4.3515,4.3515,4.3321,4.2788,4.2711,4.2139,4.0514,4.1145,4.1397,4.0254,4.0577,4.0703,4.0171,4.0096,4.0096,4.0096,4.0096,4.0096,4.0096,4.0204,3.9982,3.9387,3.9576,3.9871,4.0182,4.0182,4.0723,4.181,4.1686,4.1746,4.1979,4.2342,4.2596,4.9561,4.9066,4.9501,5.2008,5.2153,5.2479,0.0,0.0,5.615,5.7009,5.8847,6.038,6.0608,6.3301,6.5801,6.6801,6.8625,7.0205,7.1006,7.0889,7.08,7.0987,7.0468,7.0734,7.2349,7.1853,7.145,7.145,7.077,7.0018,6.921,6.9082,6.866,6.7852,6.7742,6.7687,6.7687,6.6109,6.5319,6.5283,6.2787,6.1594,6.1539,6.0034,5.9276,5.9148,5.8437,5.807,5.7941,5.7226,5.6418,5.5519,5.4803,5.3995,5.3093,5.2289,5.1555,5.0802,4.9922,4.9077,4.8434,4.8343,4.8251,4.8031,4.7204,4.6397,4.5608,4.48,4.4048,4.3515,4.3515,4.3515,4.3515,4.3515,4.3515,4.3515,4.3515,4.3515,4.3515,4.3515,4.3515,4.3321,4.2788,4.2711,4.2282,4.0995,4.138,4.1397,4.0254,4.0577,4.0703,4.0171,4.0096,4.0096,4.0096,4.0096,4.0096,4.0096,4.0552,4.0752,4.0682,4.1708,4.2058,4.1584,4.1584,4.1658,4.181,4.1268,4.1556,4.2596,4.2121,4.2183,5.0517,5.0474,0.0,0.0,5.2967,5.4348,5.6483,5.7245,5.7721,5.8533,6.0601,6.2317,6.2503,6.4925,6.7064,0.0,6.915,7.046,7.0801,7.0477,7.0201,7.0201,6.9732,6.9853,7.0991,7.0807,7.0605,7.0605,7.0293,6.9743,6.8953,6.8898,6.8531,6.7724,6.7687,6.7467,6.7008,6.587,6.5063,6.4567,6.2089,6.0896,6.086,5.9245,5.851,5.8492,5.8143,5.7997,5.7941,5.7134,5.6326,5.5522,5.4711,5.3922,5.317,5.2821,5.1903,5.0747,5.0417,4.9426,4.8306,4.8306,4.7994,4.7443,4.6654,4.5847,4.5039,4.4232,4.3754,4.3515,4.3515,4.3515,4.3515,4.3515,4.3515,4.3515,4.3515,4.3515,4.3515,4.3515,4.3515,4.3321,4.2788,4.242,4.1895,4.1041,4.1707,4.2018,4.1213,4.1286,4.1082,4.0179,4.0096,4.0096,4.0096,4.0096,4.0096,4.0096,4.0601,4.0903,4.0903,4.138,4.1534,4.1291,4.0984,4.0814,4.0814,4.0874,4.1155,4.1664,4.2121,4.246,5.0749,0.0,0.0,5.2455,5.4268,5.6281,5.7428,5.8357,5.9181,5.9861,6.148,6.2946,6.3489,6.5477,6.7176,6.7597,6.9317,7.0549,7.0304,7.0009,6.9657,6.9193,6.8612,6.8385,6.8733,6.9577,7.0,6.9798,6.9761,6.9412,6.8605,6.8568,6.8293,6.7705,6.7467,6.7081,6.6512,6.5485,6.4567,6.3704,6.1465,6.0291,6.0034,5.8639,5.7997,5.7997,5.7776,5.7666,5.7593,5.6565,5.5794,5.5188,5.4381,5.372,5.3185,5.3185,5.2197,5.0802,5.0802,4.9701,4.8306,4.8306,4.7901,4.7241,4.6214,4.5498,4.4819,4.3791,4.3515,4.3515,4.3515,4.3515,4.3515,4.3515,4.3515,4.3515,4.3515,4.3515,4.3515,4.3515,4.3515,4.3375,4.2976,4.2442,4.1958,4.1651,4.2083,4.2183,4.1442,4.1331,4.1007,4.0196,4.0096,4.0096,4.0096,4.0096,4.0096,4.0096,4.0601,4.0972,4.1155,4.1155,4.1155,4.1155,4.0601,4.0254,4.0096,4.0631,4.0995,4.1161,4.2221,4.2788,5.0,0.0,5.3053,5.5069,5.6904,5.8423,5.9242,6.0108,6.082,6.1172,6.1357,6.1804,6.2914,6.4502,6.5917,6.6709,6.9125,7.0616,6.9839,6.9932,6.9495,6.7961,6.7071,6.6274,0.0,6.8274,6.9779,6.9009,6.8953,6.8586,6.776,6.7724,6.7724,6.7687,6.6935,6.6512,6.6494,6.4916,6.3704,6.2823,6.119,5.9997,5.9203,5.8382,5.7997,5.796,5.7189,5.684,5.6712,5.5133,5.4454,5.4363,5.3555,5.3203,5.3185,5.3185,5.2197,5.0802,5.0802,4.9701,4.8306,4.8306,4.8288,4.7976,4.6379,4.5883,4.5535,4.3938,4.3515,4.3515,4.3515,4.3515,4.3515,4.3515,4.3515,4.3515,4.3515,4.3515,4.3515,4.3515,4.3515,4.3479,4.3479,4.3032,4.2827,4.3357,4.2523,4.142,4.0303,4.0146,4.0146,4.0096,4.0096,4.0096,4.0096,4.0096,4.0096,4.0096,4.0601,4.1155,4.175,4.1771,4.1771,4.1771,4.1178,4.0607,4.0096,4.0631,4.1201,4.1789,4.242,4.2976,5.0415,5.2597,5.5075,5.6274,5.7838,5.9319,6.0165,6.0354,6.0373,6.048,5.9885,5.9507,6.0078,6.1105,6.2388,6.3891,6.6297,6.8251,6.9063,6.9723,6.9302,6.7155,6.7136,0.0,0.0,0.0,0.0,6.7302,6.7302,6.7412,6.7687,6.7173,6.6898,6.6898,6.6127,6.5448,6.4897,6.3796,6.2823,6.1979,6.0382,5.9189,5.84,5.8125,5.7703,5.7189,5.6932,5.651,5.5923,5.484,5.4399,5.4326,5.3518,5.3185,5.3151,5.2601,5.172,5.0802,5.0802,4.9701,4.8306,4.8306,4.7938,4.7296,4.6232,4.5535,4.5002,4.4452,4.3901,4.3608,4.4158,4.3901,4.3515,4.3515,4.3515,4.3515,4.3515,4.3515,4.3515,4.3515,4.3515,4.3392,4.3032,4.2826,4.2635,4.2404,4.2402,4.1976,4.0774,4.1088,4.1096,4.0214,4.0527,4.0629,4.0146,4.0096,4.0096,4.0096,4.0601,4.0995,4.1183,4.1183,4.1183,4.1183,4.0648,4.0449,4.0631,4.1201,4.181,4.242,4.2958,4.3339,5.1308,5.3889,5.6551,5.7643,5.8934,6.0084,6.0463,6.0324,6.0087,6.0039,5.8729,5.7771,5.8343,5.8426,5.9005,6.0803,6.2897,6.4989,6.6916,6.7632,6.7595,6.6623,6.6696,6.6439,0.0,0.0,0.0,6.6843,6.7192,6.732,6.7265,6.6769,6.6366,6.609,6.4989,6.4163,6.3631,6.2511,6.1539,6.0731,5.941,5.851,5.7997,5.7997,5.7556,5.6785,5.651,5.5904,5.5097,5.4308,5.3977,5.3922,5.3387,5.3185,5.3151,5.2619,5.1738,5.0765,5.0472,4.9462,4.8306,4.8306,4.7755,4.6947,4.614,4.5351,4.4636,4.436,4.3901,4.3608,4.414,4.3883,4.3515,4.3515,4.3718,4.3846,4.3552,4.3938,4.4176,4.3625,4.3577,4.3542,4.3165,4.2913,4.2483,4.1613,4.181,4.1789,4.0995,4.1416,4.1465,4.0578,4.0916,4.1018,4.0527,4.0265,4.0096,4.0096,4.0424,4.0703,4.088,4.0726,4.0685,4.0903,4.0552,4.0552,4.0903,4.1707,4.2322,4.2711,4.325,4.3515,5.2606,5.5156,5.7514,5.9088,6.0135,6.0647,6.0189,6.0036,5.9909,5.9695,5.7743,5.6395,0.0,0.0,5.604,5.7712,5.9462,6.147,6.3959,6.4382,6.4945,0.0,0.0,0.0,0.0,0.0,0.0,6.7577,6.8366,6.8109,6.6586,6.6457,6.6054,6.5209,6.3594,6.2707,6.2695,6.1135,5.9942,5.9129,5.8364,5.7997,5.7997,5.796,5.7501,5.6693,5.5886,5.5078,5.4289,5.3518,5.3185,5.3185,5.3185,5.3185,5.3185,5.3148,5.216,5.0674,4.9886,4.9022,4.8306,4.8306,4.7755,4.6947,4.6195,4.5369,4.4562,4.3828,4.3589,4.357,4.3625,4.3608,4.3608,4.3608,4.4213,4.4562,4.379,4.4801,4.5407,4.3866,4.3759,4.388,4.382,4.3294,4.2484,4.1221,4.1001,4.096,4.0926,4.1109,4.1271,4.1271,4.1288,4.1305,4.1271,4.0561,4.0163,4.0163,4.013,4.0336,4.085,4.0368,4.0343,4.0833,4.088,4.0926,4.0949,4.2121,4.2711,4.2751,4.3268,4.3515,5.3841,5.6551,5.909,5.9433,5.9888,6.025,6.0132,5.9105,5.781,5.6574,5.4605,5.2804,0.0,0.0,0.0,5.7323,6.091,0.0,6.6657,6.8085,0.0,6.7224,0.0,6.7296,6.629,6.6733,0.0,6.765,6.732,6.6935,6.6512,6.5925,6.4952,6.3477,6.2438,6.1612,6.1025,5.9992,5.9116,5.8309,5.8107,5.7997,5.7978,5.7373,5.6675,5.5849,5.506,5.4252,5.35,5.3277,5.3185,5.3185,5.3185,5.3185,5.3133,5.2527,5.1665,5.0674,4.9886,4.9022,4.8306,4.8306,4.7755,4.7058,4.6856,4.581,4.4782,4.5186,4.4856,4.4525,4.5131,4.5278,4.5278,4.5278,4.5443,4.5535,4.5333,4.5257,4.5093,4.4695,4.4265,4.3983,4.3961,4.3488,4.3006,4.2687,4.2226,4.175,4.1188,4.1646,4.2016,4.2016,4.2523,4.2625,4.2066,4.1339,4.0916,4.0916,4.0417,4.0171,4.0311,4.0154,4.0171,4.0311,4.0703,4.1133,4.1578,4.2322,4.2902,4.3286,4.3427,4.3515,5.4809,5.7114,5.9323,5.9437,5.9367,5.9036,5.8102,5.6887,5.5396,5.3587,5.1704,0.0,4.9187,5.0654,0.0,0.0,0.0,0.0,6.5674,6.7438,6.8261,0.0,6.8232,0.0,6.7124,6.743,6.754,0.0,6.7063,6.6714,6.6017,6.5209,6.4016,6.2328,6.1484,6.0529,5.9355,5.8914,5.8455,5.7997,5.7997,5.7997,5.7978,5.7538,5.6895,5.6069,5.528,5.4473,5.3702,5.3353,5.3185,5.3185,5.3185,5.3185,5.3148,5.2692,5.1793,5.0747,5.027,4.9315,4.8306,4.8306,4.7755,4.7094,4.7094,4.6214,4.5333,4.5773,4.5571,4.5333,4.5773,4.5902,4.5902,4.5902,4.6177,4.625,4.564,4.5784,4.5795,4.4898,4.4413,4.393,4.3357,4.3269,4.3177,4.2834,4.2507,4.2269,4.2185,4.254,4.2777,4.2777,4.3166,4.325,4.2828,4.2117,4.1542,4.1221,4.0798,4.0451,4.0113,4.0096,4.0096,4.0096,4.0891,4.1468,4.181,4.2638,4.3214,4.3515,4.3515,4.3681,5.5639,5.7251,5.8798,5.9152,5.8581,5.7461,5.5548,5.4354,5.2995,5.0773,0.0,4.8086,4.7865,4.875,5.015,5.2101,0.0,5.9232,6.3593,6.5235,6.6613,6.8402,6.8609,6.8363,6.7749,6.7687,6.7357,6.6549,6.7045,6.6733,6.5228,6.4365,6.3099,6.1337,6.0511,5.941,5.8015,5.7997,5.7997,5.7997,5.7997,5.7997,5.7997,5.7886,5.7464,5.6767,5.5831,5.5042,5.4344,5.3537,5.3185,5.3185,5.3185,5.3185,5.3206,5.3096,5.2105,5.0784,5.0674,4.9609,4.8306,4.8306,4.7828,4.7259,4.7259,4.6691,4.6067,4.6067,4.6067,4.6067,4.6067,4.614,4.6195,4.6122,4.6707,4.6937,4.5632,4.6453,4.6868,4.4953,4.4518,4.4087,4.2816,4.3149,4.3352,4.2692,4.2591,4.2828,4.3487,4.346,4.3426,4.3555,4.3572,4.3572,4.3572,4.2878,4.2134,4.139,4.1255,4.0865,4.013,4.0096,4.0146,4.0204,4.1263,4.1853,4.1916,4.2977,4.3515,4.3515,4.3608,4.403,5.6467,5.7479,5.8301,5.8314,5.7469,5.6351,5.5343,5.3659,0.0,0.0,4.7498,4.6892,4.5572,4.74,5.0295,5.3963,5.6588,0.0,0.0,0.0,6.7797,0.0,0.0,0.0,0.0,6.7687,0.0,0.0,6.6017,6.5301,6.4347,6.3503,6.1998,5.9703,5.8841,5.8272,5.7997,5.7997,5.7997,5.7997,5.7997,5.7997,5.7978,5.7317,5.6932,5.673,5.5244,5.4528,5.4344,5.3537,5.3185,5.3185,5.3185,5.3185,5.3112,5.2454,5.161,5.071,5.0051,4.915,4.8306,4.8306,4.8214,4.8104,4.8104,4.7516,4.6892,4.6892,4.6892,4.6892,4.6892,4.7388,4.775,4.7257,4.7708,4.8059,4.7328,4.7402,4.7237,4.5766,4.5467,4.5202,4.4344,4.4327,4.4361,4.4225,4.4209,4.4259,4.4395,4.3809,4.3656,4.4316,4.4384,4.4384,4.4384,4.3673,4.2895,4.2151,4.1542,4.0865,4.013,4.0096,4.0311,4.0756,4.1446,4.2059,4.2557,4.3196,4.3515,4.3533,4.4176,4.458,5.6648,5.764,5.8297,5.7597,5.6371,5.4783,5.2712,0.0,0.0,0.0,4.5241,4.4984,4.4213,4.6226,0.0,5.1768,5.4744,0.0,0.0,0.0,0.0,0.0,0.0,0.0,0.0,6.7302,6.6733,6.5944,6.5136,6.4512,6.4108,6.2879,6.1447,5.9863,5.9043,5.8419,5.7997,5.7997,5.7997,5.7997,5.7997,5.7997,5.7997,5.7593,5.7428,5.7336,5.5721,5.5023,5.4932,5.3702,5.3185,5.3185,5.3185,5.2949,5.2527,5.2142,5.1224,5.0105,4.9739,4.9022,4.8306,4.8306,4.8306,4.8306,4.8306,4.8031,4.7662,4.7352,4.7272,4.7264,4.7349,4.7663,4.7975,4.8059,4.808,4.8003,4.7708,4.743,4.7051,4.6416,4.6261,4.616,4.5805,4.5415,4.5162,4.5162,4.4869,4.4615,4.4615,4.4248,4.4164,4.4564,4.4615,4.4615,4.4615,4.4231,4.369,4.2929,4.254,4.2016,4.1297,4.0865,4.0932,4.152,4.1719,4.2317,4.3344,4.3853,4.4342,4.4745,4.5149,4.5553,5.6495,5.7393,5.7851,5.7007,5.5592,5.3555,5.0345,4.8434,0.0,0.0,4.3515,4.3515,4.3515,4.5057,4.704,0.0,5.1898,5.5323,0.0,0.0,0.0,0.0,0.0,0.0,0.0,6.6604,0.0,6.5099,6.4273,6.3741,6.3558,6.231,6.1153,6.0181,5.9515,5.8822,5.7997,5.7997,5.7997,5.7997,5.7997,5.7997,5.7997,5.7997,5.7997,5.7905,5.629,5.5614,5.5464,5.3867,5.3185,5.3185,5.3185,5.2821,5.2234,5.205,5.1208,5.0088,4.9922,4.9297,4.8618,4.8783,4.86,4.8343,4.8526,4.8466,4.8287,4.7983,4.7803,4.7707,4.7819,4.7833,4.7978,4.8587,4.8205,4.7789,4.7944,4.7619,4.7208,4.7073,4.7039,4.6989,4.6819,4.6312,4.594,4.594,4.5297,4.4902,4.5055,4.4936,4.4902,4.5055,4.4801,4.4666,4.4835,4.4699,4.4248,4.3443,4.3392,4.3081,4.232,4.1745,4.1716,4.2327,4.2176,4.2757,4.4139,4.4562,4.5151,4.5902,4.6085,4.6507,5.6183,5.6353,5.6048,5.6638,5.5592,5.3555,5.0345,0.0,0.0,4.4157,4.3515,4.3515,4.3515,4.368,4.5076,0.0,4.919,5.1543,0.0,0.0,0.0,0.0,0.0,0.0,0.0,6.5466,6.5081,6.4255,6.3411,6.2603,6.1869,6.1667,6.0896,5.9349,5.9239,5.8822,5.7997,5.7997,5.7997,5.7997,5.7997,5.7997,5.7997,5.7997,5.7997,5.7905,5.629,5.5614,5.5464,5.3867,5.3185,5.3185,5.3185,5.3148,5.3004,5.227,5.1924,5.1665,5.0949,5.016,4.961,5.0325,4.9554,4.8453,4.9243,4.9008,4.8612,4.9311,4.9037,4.8572,4.8611,4.8586,4.863,4.8742,4.8317,4.8077,4.8738,4.886,4.8612,4.7922,4.7787,4.7597,4.6904,4.6735,4.6684,4.6684,4.6075,4.5838,4.6498,4.6007,4.5855,4.6515,4.541,4.4886,4.5551,4.4976,4.4248,4.3443,4.3392,4.3081,4.232,4.2219,4.2483,4.3106,4.3093,4.3657,4.4892,4.4953,4.5284,4.592,4.6636,4.7021,5.528,5.6198,5.6271,5.6124,5.4491,5.2234,4.9444,0.0,4.5626,4.3846,4.3515,4.3515,4.3515,4.3515,4.4341,4.6911,4.6654,4.7997,5.3347,0.0,0.0,0.0,0.0,0.0,0.0,0.0,6.4237,6.3392,6.2548,6.1942,6.1612,6.2053,6.1594,5.9979,5.9924,5.93,5.7997,5.7997,5.7997,5.7997,5.7997,5.7997,5.7997,5.7997,5.7997,5.7905,5.629,5.5614,5.5464,5.3867,5.3185,5.3185,5.3185,5.2913,5.2435,5.2105,5.1683,5.1224,5.0912,5.0582,5.038,5.071,5.0044,4.9135,4.9029,4.9112,4.9023,4.8094,4.7943,4.8136,4.8204,4.8557,4.8885,4.8919,4.874,4.8646,4.8951,4.9001,4.8917,4.8629,4.8578,4.8477,4.8173,4.7767,4.7462,4.7462,4.6836,4.6464,4.6752,4.6532,4.6633,4.7394,4.6532,4.5855,4.572,4.5432,4.4925,4.4164,4.4113,4.3978,4.3718,4.3217,4.3267,4.386,4.3435,4.3844,4.5116,4.5537,4.6099,4.6812,4.7492,4.8104,5.372,5.5115,5.5666,5.5317,5.361,5.1353,0.0,0.0,4.4764,4.3699,4.3515,4.3515,4.3515,4.3515,4.3938,4.5314,4.5076,4.5954,4.9505,5.047,0.0,0.0,0.0,6.0181,0.0,6.3411,6.3099,6.2493,6.1704,6.1245,6.1245,6.1796,6.1465,6.0107,6.0052,5.9391,5.8015,5.7997,5.7997,5.7997,5.7997,5.7997,5.7997,5.7758,5.7648,5.7556,5.5941,5.5244,5.5133,5.3775,5.3185,5.3185,5.3185,5.2858,5.2344,5.2344,5.1995,5.1518,5.1518,5.1353,5.1187,5.1426,5.0845,4.9915,4.9238,4.9227,4.9163,4.7962,4.7848,4.8123,4.8209,4.8612,4.9001,4.9001,4.9001,4.9001,4.9001,4.9001,4.9001,4.9001,4.9001,4.9001,4.9001,4.8578,4.824,4.824,4.7597,4.7192,4.7411,4.7259,4.7411,4.8156,4.7767,4.7141,4.6413,4.616,4.5703,4.4959,4.4925,4.4835,4.4615,4.4062,4.396,4.4379,4.3872,4.4177,4.5286,4.5772,4.6391,4.7128,4.7993,4.8957,5.1353,5.2619,5.3424,5.4216,5.3188,5.1353,0.0,4.7058,4.5424,4.3845,4.3515,4.3515,4.3515,4.3515,4.3754,4.458,4.4727,4.5847,4.9133,5.0288,0.0,0.0,0.0,5.6602,5.9019,6.0694,6.1612,6.1612,6.0878,6.0419,6.0419,6.0419,6.0052,5.9239,5.9203,5.8822,5.7997,5.7997,5.7997,5.7997,5.7997,5.7997,5.796,5.7189,5.6822,5.673,5.5115,5.4418,5.4344,5.3555,5.3185,5.3185,5.3185,5.3185,5.3206,5.3206,5.3167,5.3167,5.3167,5.2656,5.2105,5.2931,5.2142,5.077,5.0169,4.9424,4.8972,4.9762,4.9487,4.8984,4.8984,4.9001,4.9001,4.9001,4.9001,4.9001,4.9001,4.9001,4.9001,4.9001,4.9001,4.9001,4.9001,4.9001,4.8984,4.8984,4.8376,4.8142,4.8883,4.8359,4.8159,4.8917,4.8984,4.868,4.7922,4.7208,4.6464,4.5737,4.5703,4.5348,4.4632,4.4598,4.4598,4.4598,4.4581,4.4889,4.5494,4.5494,4.5815,4.6448,4.7913,4.9371,4.8411,4.9807,5.0784,5.1061,4.9884,4.8287,4.6966,4.5406,4.4121,4.3625,4.3515,4.3515,4.3515,4.3515,4.3938,4.5296,4.5516,4.6085,0.0,0.0,0.0,5.3371,5.673,5.9189,0.0,6.0493,6.0786,6.0786,6.0034,5.957,5.957,5.9061,5.8896,5.9184,5.9184,5.8822,5.7997,5.7446,5.7189,5.7189,5.7189,5.6895,5.6363,5.6675,5.651,5.5923,5.4858,5.4399,5.4344,5.3537,5.3185,5.3185,5.3185,5.3185,5.3185,5.3185,5.3185,5.3124,5.2621,5.2605,5.2712,5.1987,5.1433,5.0919,5.0204,4.982,4.9579,4.9364,4.9152,4.9001,4.9001,4.9001,4.9001,4.9001,4.9001,4.9001,4.9001,4.9407,4.9593,4.9103,4.9407,4.9593,4.9086,4.9001,4.9001,4.9001,4.8798,4.8748,4.8968,4.8798,4.8748,4.8984,4.9001,4.8714,4.7939,4.7699,4.7022,4.5788,4.5703,4.5602,4.5348,4.4886,4.4852,4.5331,4.4869,4.4947,4.5636,4.5552,4.6056,4.7142,4.9208,5.0384,4.6047,4.7445,4.8475,4.8983,4.7865,4.6526,4.6012,4.4654,4.3515,4.3515,4.3515,4.3515,4.3515,4.3515,4.3845,4.4819,4.5241,4.5828,0.0,0.0,0.0,5.2986,0.0,0.0,5.9043,5.9593,5.996,5.996,5.9208,5.8767,5.8767,5.7978,5.7776,5.8267,5.8602,5.8364,5.7556,5.706,5.6657,5.6345,5.6345,5.6069,5.5614,5.5794,5.5629,5.5097,5.4308,5.3959,0.0,5.3427,5.3185,5.3167,5.2876,5.2747,5.2711,5.2417,5.2145,5.1934,5.2013,5.2032,5.195,5.1596,5.1112,5.0554,4.9821,4.9622,4.9551,4.9107,4.9001,4.9001,4.9001,4.9001,4.9001,4.9001,4.9001,4.9001,4.9001,4.9576,4.9949,4.9509,4.9779,4.9949,4.9492,4.9187,4.9001,4.9001,4.9001,4.9001,4.9001,4.9001,4.9001,4.9001,4.9001,4.8815,4.8359,4.8342,4.7817,4.6616,4.6549,4.6413,4.6126,4.5669,4.5635,4.6109,4.5652,4.5652,4.6109,4.602,4.6794,4.8419,4.9871,5.0982,0.0,4.5479,4.6361,4.7641,4.6838,4.5736,4.5736,4.4562,0.0,4.3515,4.3515,4.3533,4.357,4.3551,4.3551,4.3662,4.436,4.5406,0.0,4.8783,0.0,0.0,5.55,0.0,5.6822,5.8194,5.9093,5.9093,5.8382,5.7905,5.7905,5.7152,5.6712,5.6712,5.7446,5.7464,5.673,5.6675,5.6253,5.55,5.55,5.5464,5.5409,5.4711,5.4363,5.4271,5.3537,5.3167,5.3115,5.3115,5.3096,5.2947,5.2197,5.1903,5.1811,5.1018,5.032,4.9987,5.1314,5.0999,5.0204,5.1532,5.1042,4.9821,4.9182,4.9001,4.9001,4.9001,4.9001,4.9001,4.9001,4.9001,4.9001,4.9001,4.9001,4.9001,4.9001,4.961,5.0135,5.0033,5.0101,5.0152,5.0101,4.9492,4.9018,4.9069,4.9086,4.9069,4.9018,4.9052,4.9083,4.9063,4.9032,4.9032,4.9077,4.9032,4.8697,4.7939,4.7889,4.7597,4.6904,4.6819,4.6819,4.687,4.687,4.6836,4.6786,4.6904,4.7995,4.9933,5.0039,5.1173,4.2969,0.0,4.3714,4.4455,4.4342,4.4048,0.0,4.3772,4.3515,4.3515,0.0,4.3681,4.4305,4.3901,4.39,4.5131,4.6012,4.6874,4.7865,0.0,0.0,5.5739,5.7005,5.7483,5.6877,5.7703,5.829,5.829,5.7538,5.7079,5.7079,5.6308,5.5868,5.5868,5.6069,5.6069,5.5868,5.5262,5.4876,5.4675,5.4675,5.4363,5.3794,5.4216,5.4069,5.3482,5.3277,5.2858,5.227,5.227,5.1922,5.1353,5.1151,5.1077,5.1,5.0289,4.9941,4.9789,4.966,4.9808,5.0051,5.0469,4.9953,4.9212,4.9063,4.9001,4.9001,4.9001,4.9001,4.9001,4.9001,4.9001,4.9001,4.9001,4.9001,4.9001,4.9001,5.0033,5.0625,4.9475,5.0168,5.076,5.0185,4.9492,4.9187,4.9746,4.983,4.9644,4.9069,4.9492,4.9824,4.9774,4.9316,4.9212,4.9722,4.9286,4.8697,4.7939,4.7889,4.7804,4.7665,4.7107,4.7073,4.7648,4.7618,4.7361,4.6786,4.7936,4.8678,4.9111,5.0297,5.1365,4.2537,4.2711,4.2826,4.3375,4.3515,4.3515,4.3515,0.0,0.0,0.0,0.0,4.3626,4.4066,4.4103,4.4342,4.5204,4.6654,0.0,0.0,0.0,5.4583,5.6565,5.7189,5.7428,5.7373,5.774,5.785,5.7483,5.706,5.6638,5.6271,5.5482,5.5042,5.5042,5.4693,5.4675,5.5042,5.462,5.4216,5.3849,5.3849,5.3628,5.3203,5.3665,5.3408,5.2656,5.2656,5.2197,5.1444,5.1444,5.1187,5.0745,5.006,4.9792,4.9656,4.8637,4.8045,4.7884,4.823,4.8846,4.9502,4.9556,4.9333,4.9001,4.9001,4.9001,4.9001,4.9001,4.9001,4.9001,4.9001,4.9001,4.9001,4.9001,4.9001,4.9001,4.9001,4.9898,5.0456,4.9661,5.0152,5.0676,5.0625,4.9982,4.9763,5.049,5.0321,4.9949,4.956,4.956,4.9562,4.9543,4.9212,4.9168,4.9521,4.9212,4.8832,4.8443,4.8379,4.8379,4.8379,4.802,4.8003,4.8409,4.872,4.8675,4.8265,4.9413,5.008,5.0318,5.1176,5.1914,4.2657,4.3007,4.3248,4.3447,4.3515,4.3515,4.3515,0.0,0.0,0.0,0.0,0.0,0.0,4.4323,0.0,0.0,0.0,0.0,5.3115,5.3662,5.4528,5.6565,5.6914,5.7207,5.7758,5.7813,5.7538,5.6859,5.6583,5.6143,5.5445,5.4638,5.4216,5.4216,5.3573,5.3537,5.4216,5.4216,5.3867,5.3185,5.3185,5.3185,5.3185,5.3185,5.2766,5.1995,5.1995,5.1463,5.0618,5.0618,5.0545,5.0303,4.9026,4.8544,4.8388,4.6936,4.6158,4.5995,4.7292,4.826,4.893,4.8978,4.9001,4.9001,4.9001,4.9001,4.9001,4.9001,4.9001,4.9001,4.9001,4.9001,4.9001,4.9001,4.9001,4.9001,4.9001,4.9661,5.0219,5.0101,5.027,5.0625,5.1268,5.076,5.0524,5.1268,5.0845,5.0388,5.027,4.9813,4.9489,4.9508,4.9283,4.9215,4.9338,4.9131,4.9001,4.9001,4.9001,4.9001,4.9001,4.9001,4.9063,4.9152,4.9722,5.0061,5.0157,5.0796,5.1444,5.2112,5.2112,5.249,4.3174,4.4363,4.5096,4.381,4.3515,4.3515,4.3515,0.0,0.0,0.0,0.0,0.0,0.0,4.5076,4.515,0.0,0.0,5.1536,0.0,0.0,5.6381,5.6767,5.7409,5.7593,5.7042,5.6987,5.6932,5.6822,5.5537,5.4711,5.4583,5.383,5.339,5.339,5.3259,5.3259,5.339,5.339,5.3314,5.3185,5.3185,5.3185,5.3185,5.3185,5.2766,5.1995,5.1995,5.1151,4.9794,4.9794,4.9334,4.8654,4.8429,4.8355,4.818,4.6882,4.676,4.7325,4.7728,4.8358,4.8985,4.8998,4.9001,4.9001,4.9001,4.9001,4.9001,4.9001,4.9001,4.9001,4.9001,4.9001,4.9001,4.9001,4.9001,4.9001,4.9001,5.0084,5.0862,5.0219,5.1099,5.1995,5.2114,5.1539,5.1285,5.2029,5.2029,5.1742,5.1116,5.1488,5.1779,5.1791,5.069,5.0178,5.0821,4.9722,4.9001,4.9001,4.9001,4.9001,4.9001,4.9001,4.9256,4.985,4.9947,5.0324,5.0929,5.1034,5.1444,5.2112,5.2112,5.249,4.2635,4.3387,4.3993,4.4121,4.48,4.5223,4.4342,0.0,0.0,0.0,0.0,0.0,0.0,0.0,4.7323,5.025,0.0,5.2931,5.5262,5.5537,5.5831,5.6712,5.7134,5.7207,5.684,5.6804,5.6436,5.5574,5.4821,5.4216,5.3775,5.3387,5.3185,5.3185,5.3185,5.3185,5.3185,5.3185,5.3185,5.3185,5.3185,5.3185,5.3185,5.3185,5.2527,5.1353,5.1353,5.0417,4.8893,4.8893,4.8655,4.8267,4.7937,4.7575,4.7186,4.6329,4.6272,4.67,4.7568,4.8108,4.8477,4.8883,4.9001,4.9001,4.9001,4.9001,4.9001,4.9001,4.9001,4.9086,4.9492,4.9593,4.9695,5.0101,5.0202,5.0202,5.0202,5.0744,5.1083,5.076,5.1251,5.1843,5.2232,5.2029,5.2063,5.2841,5.2587,5.2181,5.1843,5.1758,5.1702,5.1708,5.1102,5.0835,5.1176,5.0218,4.9424,4.9035,4.9001,4.9001,4.9001,4.9001,4.9316,4.9976,5.039,5.0955,5.1643,5.2036,5.2376,5.2684,5.2684,5.2893,4.2304,4.2727,4.3112,4.4158,4.5351,4.6122,4.5645,0.0,0.0,0.0,0.0,0.0,0.0,4.723,0.0,5.3069,5.3632,5.4218,5.5908,5.5629,5.5702,5.6932,5.7079,5.7024,5.6822,5.6638,5.5941,5.4509,5.4234,5.3849,5.3222,5.3023,5.3023,5.3185,5.3023,5.3023,5.3185,5.3023,5.3023,5.3185,5.3185,5.3185,5.3185,5.3004,5.2142,5.0802,5.06,4.9682,4.8306,4.8306,4.8306,4.823,4.7653,4.7017,4.6432,4.6419,4.6338,4.6413,4.7733,4.8173,4.8257,4.8832,4.9001,4.9001,4.9001,4.9001,4.9035,4.9204,4.9255,4.939,4.9949,5.0084,5.0287,5.1031,5.1185,5.1185,5.1185,5.1352,5.1471,5.1471,5.1623,5.1928,5.2486,5.2587,5.279,5.3416,5.2976,5.2587,5.2587,5.2097,5.1758,5.1758,5.1589,5.1403,5.1202,5.0676,5.0033,4.9306,4.9103,4.9001,4.9001,4.9001,4.9389,5.0241,5.0823,5.1519,5.2358,5.2937,5.3185,5.3185,5.3185,5.3185,4.2983,4.3956,4.4378,4.3736,4.3663,0.0,4.7388,4.7498,0.0,0.0,0.0,0.0,0.0,4.9658,5.0728,5.289,5.4174,5.5552,5.7551,5.7776,5.7776,5.7905,5.7905,5.7611,5.6877,5.6124,5.5317,5.4454,5.372,5.3259,5.3185,5.2491,5.2435,5.3167,5.2472,5.2435,5.3185,5.2454,5.2454,5.3185,5.3185,5.3185,5.3167,5.2435,5.161,5.0765,5.0014,4.915,4.8306,4.8306,4.8306,4.823,4.7653,4.7062,4.6733,4.8069,4.8237,4.7838,4.8663,4.8934,4.8934,4.8984,4.9001,4.9001,4.9001,4.9001,4.9137,4.9813,5.0016,5.0016,5.0084,5.0084,5.0287,5.1031,5.1185,5.1185,5.1185,5.1742,5.2232,5.2232,5.2824,5.3365,5.3399,5.3416,5.3433,5.3501,5.345,5.3416,5.3416,5.3365,5.3331,5.3331,5.2672,5.1944,5.1268,5.1134,5.0811,5.0067,4.9373,4.9001,4.9001,4.9001,4.9622,5.0981,5.106,5.1777,5.3124,5.3185,5.3185,5.3185,5.3185,5.3185,4.157,4.2598,4.3259,4.3442,4.3883,0.0,0.0,4.8122,0.0,0.0,0.0,0.0,0.0,0.0,5.2698,5.3456,5.5224,5.6501,5.6507,5.6932,5.706,5.6565,5.651,5.618,5.539,5.5023,5.4308,5.3004,5.2619,5.2234,5.1738,5.1426,5.1389,5.1701,5.1408,5.1408,5.1701,5.1408,5.1408,5.172,5.172,5.1977,5.2435,5.1628,5.0802,5.0051,4.9739,4.9095,4.8306,4.8306,4.8618,4.9053,4.8488,4.7879,4.7361,4.7986,4.8107,4.799,4.8748,4.9001,4.9001,4.9001,4.9001,4.9086,4.9543,4.9678,4.983,5.0591,5.0794,5.0896,5.1352,5.1471,5.1657,5.2452,5.2638,5.2638,5.2638,5.2858,5.3061,5.3061,5.3298,5.3501,5.3501,5.3501,5.3501,5.3501,5.3501,5.3501,5.3501,5.3501,5.3501,5.3501,5.323,5.2739,5.1961,5.1894,5.1572,5.0828,5.0516,5.012,4.9639,5.0061,5.0743,5.1692,5.1716,5.2219,5.3185,5.3185,5.3185,5.3185,5.3185,5.3185,4.1095,4.1882,4.2488,4.3313,0.0,0.0,4.7277,0.0,0.0,0.0,0.0,0.0,0.0,0.0,0.0,5.3217,5.5151,5.6409,5.5698,5.6069,5.6216,5.5666,5.5614,5.5262,5.4473,5.4399,5.372,5.2105,5.1995,5.1646,5.0839,5.0563,5.0545,5.0802,5.0545,5.0545,5.0802,5.0545,5.0545,5.0802,5.027,5.0582,5.1591,5.0784,5.0105,4.9592,4.9317,4.8838,4.8306,4.8306,4.8568,4.8977,4.9109,4.8592,4.7792,4.8133,4.8257,4.8342,4.8832,4.9001,4.9001,4.9001,4.9001,4.9137,4.9864,5.0084,5.0287,5.1285,5.1555,5.1725,5.2486,5.2486,5.2503,5.3315,5.3501,5.3501,5.3501,5.3501,5.3501,5.3501,5.3501,5.3501,5.3501,5.3501,5.3501,5.3501,5.3501,5.3501,5.3501,5.3501,5.3501,5.3501,5.3501,5.3281,5.2739,5.2689,5.2367,5.1606,5.1977,5.179,5.0778,5.1208,5.1793,5.2473,5.2239,5.2468,5.3185,5.3185,5.3185,5.3185,5.3185,5.3185,4.2066,4.2286,4.2488,0.0,0.0,0.0,4.8457,0.0,0.0,0.0,0.0,5.2968,5.216,5.1694,0.0,5.195,5.3694,5.5148,5.5515,5.5596,5.5574,5.5596,5.5578,5.5244,5.4454,5.4363,5.3702,5.2087,5.1977,5.1628,5.082,5.0013,4.9939,5.0747,4.9994,4.9958,5.0765,4.9996,4.9996,5.0765,4.9095,4.9169,5.0765,4.9939,4.9592,4.9537,4.8673,4.8306,4.8306,4.8287,4.804,4.7745,4.9301,4.9062,4.799,4.8731,4.9001,4.9001,4.9001,4.9001,4.9001,4.9001,4.9001,4.9137,4.9864,5.0101,5.0405,5.1894,5.2317,5.2486,5.3298,5.2909,5.252,5.3315,5.3501,5.3501,5.3501,5.3501,5.3501,5.3501,5.3501,5.3501,5.3501,5.3501,5.3501,5.3501,5.3501,5.3501,5.3501,5.3501,5.3501,5.3501,5.3501,5.3501,5.3501,5.3501,5.3162,5.235,5.3699,5.3873,5.2473,5.2353,5.2646,5.3309,5.2551,5.2486,5.3203,5.3203,5.3203,5.3203,5.3203,5.3203,4.0543,4.1609,0.0,4.2251,0.0,0.0,0.0,0.0,0.0,0.0,5.4857,5.385,5.3003,5.3237,0.0,5.2177,5.3694,5.4758,5.4004,5.4399,5.4546,5.3977,5.3408,5.2968,5.2729,5.2197,5.1444,5.04,5.0308,4.9939,4.9095,4.882,4.8783,4.904,4.882,4.8802,4.904,4.8802,4.882,4.904,4.8545,4.8875,4.9941,4.9058,4.8691,4.8673,4.8416,4.8306,4.8304,4.8457,4.8461,4.8438,4.8977,4.8971,4.8714,4.8934,4.9001,4.9001,4.9001,4.9001,4.9001,4.9001,4.9001,4.9238,5.0507,5.0507,5.0524,5.257,5.2739,5.2486,5.3298,5.3331,5.3213,5.345,5.3501,5.3501,5.3501,5.3501,5.3501,5.3501,5.3501,5.3501,5.3501,5.3501,5.3501,5.3501,5.3501,5.3501,5.3501,5.3501,5.3501,5.3501,5.3501,5.3501,5.3501,5.3501,5.3615,5.3888,5.4811,5.4673,5.3173,5.4087,5.4706,5.4907,5.4688,5.4686,5.4876,5.4876,5.4601,5.4069,5.462,5.4583,4.0449,4.1672,0.0,4.3184,4.5283,4.7871,5.0272,0.0,0.0,0.0,0.0,5.3955,5.3119,5.2996,5.2604,5.1235,5.2315,5.3077,5.2348,5.2656,5.2784,5.2307,5.1811,5.1518,5.1518,5.1077,5.0472,4.9665,4.961,4.9077,4.7902,4.781,4.7682,4.737,4.7352,4.7498,4.781,4.781,4.7994,4.8306,4.8306,4.8581,4.9058,4.8545,4.8306,4.8306,4.8306,4.8172,4.7972,4.842,4.8642,4.8731,4.8851,4.8953,4.9001,4.9001,4.9001,4.9001,4.9001,4.9001,4.9001,4.9001,4.9001,4.9221,5.0405,5.0439,5.0507,5.2469,5.2672,5.2486,5.3298,5.3501,5.3501,5.3501,5.3501,5.3501,5.3501,5.3501,5.3501,5.3501,5.3501,5.3501,5.3501,5.3501,5.3501,5.3501,5.3501,5.3501,5.3501,5.3501,5.3501,5.3501,5.3501,5.3501,5.3501,5.3501,5.3799,5.4558,5.5291,5.5439,5.483,5.5613,5.6069,5.6069,5.5757,5.5614,5.5614,5.5262,5.5042,5.4876,5.5042,5.5023,4.1225,4.2155,0.0,4.5246,4.682,0.0,5.1402,5.4085,5.6111,5.6433,0.0,5.3551,5.2658,5.1601,5.0587,4.9757,5.0288,5.0802,5.0802,5.0802,5.0802,5.0802,5.0674,5.0582,5.0582,5.0435,5.005,4.9317,4.9262,4.86,4.7058,4.6984,4.6673,4.592,4.5902,4.625,4.6984,4.6984,4.7351,4.8086,4.8086,4.8122,4.8196,4.8269,4.8269,4.8177,4.8212,4.7901,4.7413,4.8055,4.8424,4.86,4.8665,4.8792,4.8917,4.8984,4.9001,4.9001,4.9001,4.9001,4.9001,4.9001,4.9001,4.9137,4.9864,5.0033,5.0304,5.1775,5.2198,5.2384,5.3179,5.345,5.3501,5.3501,5.3501,5.3501,5.3501,5.3501,5.3501,5.3501,5.3501,5.3501,5.3501,5.3501,5.3501,5.3501,5.3501,5.3501,5.3501,5.3501,5.3501,5.3501,5.3501,5.3501,5.3501,5.3551,5.3913,5.4651,5.5408,5.6159,5.6964,5.6919,5.6914,5.6914,5.618,5.5835,5.5835,5.5078,5.506,5.5684,5.5023,5.5078,4.0686,4.19,0.0,0.0,4.7665,5.0546,5.2481,5.342,5.3794,5.3579,5.3717,5.3406,5.187,5.1396,5.1102,5.0587,5.0674,5.0802,5.0802,5.0802,5.0802,5.0802,4.9646,4.8838,4.8838,4.77,4.6874,4.6709,4.6691,4.6544,4.6177,4.6159,4.6085,4.5902,4.5902,4.5975,4.6159,4.6159,4.625,4.6416,4.6416,4.6746,4.7369,4.8012,4.7957,4.7369,4.7543,4.7432,4.7119,4.6448,4.6832,4.7798,4.7406,4.7611,4.8193,4.8798,4.9001,4.9001,4.9001,4.9001,4.9001,4.9001,4.9001,4.9137,4.9864,4.9695,4.9543,5.1031,5.1454,5.1623,5.2367,5.3027,5.3501,5.3501,5.3501,5.3501,5.3501,5.3501,5.3501,5.3501,5.3501,5.3501,5.3501,5.3501,5.3501,5.3501,5.3501,5.3501,5.3501,5.3501,5.3501,5.3501,5.3501,5.3501,5.3501,5.4009,5.4682,5.5408,5.6204,5.6971,5.7726,5.7744,5.774,5.774,5.7574,5.7483,5.7483,5.7299,5.6987,5.6547,5.7005,5.6987,4.0982,0.0,0.0,4.5893,0.0,5.1029,5.2299,5.2895,5.2965,5.2157,5.2517,5.254,5.1046,5.0637,5.0323,4.9703,4.9609,4.9609,4.9609,4.9279,4.9021,4.9021,4.7921,4.715,4.715,4.6397,4.5902,4.5902,4.5902,4.5736,4.5351,4.5333,4.5149,4.4745,4.4745,4.4929,4.5333,4.5333,4.5516,4.5902,4.5902,4.6122,4.6562,4.7351,4.7327,4.6653,4.6411,4.6452,4.6592,4.5439,4.6005,4.7498,4.661,4.6955,4.7939,4.8311,4.8714,4.9001,4.9001,4.9001,4.9001,4.9001,4.9001,4.9069,4.9458,4.9306,4.9323,5.0794,5.1185,5.1471,5.2587,5.3196,5.3501,5.3501,5.3501,5.3501,5.3501,5.3501,5.3501,5.3501,5.3501,5.3501,5.3501,5.3501,5.3501,5.3501,5.3501,5.3501,5.3501,5.3501,5.3501,5.3501,5.3501,5.3501,5.3501,5.4186,5.4922,5.5649,5.6465,5.7234,5.7973,5.7997,5.7997,5.7997,5.7997,5.7997,5.7997,5.7611,5.7409,5.7373,5.7409,5.7409,4.118,0.0,4.3566,4.7204,4.9298,0.0,5.1673,5.2356,5.2496,5.1513,5.1551,5.1415,5.0208,4.964,4.9132,4.8416,4.8306,4.8251,4.8122,4.7516,4.7058,4.6911,4.6195,4.5681,4.5681,4.5571,4.548,4.548,4.548,4.5204,4.4544,4.4488,4.4195,4.3533,4.3515,4.3809,4.4488,4.4488,4.4837,4.548,4.5626,4.5681,4.5718,4.6379,4.637,4.5776,4.5338,4.5384,4.5781,4.4938,4.5641,4.7139,4.6093,4.6532,4.775,4.7838,4.8376,4.9001,4.9001,4.9001,4.9001,4.9001,4.9001,4.9001,4.9001,4.9001,4.9255,5.049,5.1014,5.1472,5.2773,5.3315,5.3501,5.3501,5.3501,5.3501,5.3501,5.3501,5.3501,5.3501,5.3501,5.3501,5.3501,5.3501,5.3501,5.3501,5.3501,5.3501,5.3501,5.3501,5.3501,5.3501,5.3501,5.3501,5.3501,5.4296,5.5042,5.5649,5.6571,5.7376,5.7973,5.7997,5.7997,5.7997,5.7997,5.7997,5.7997,5.7336,5.7354,5.7978,5.7317,5.7373,0.0,0.0,4.561,0.0,4.8836,4.9971,0.0,0.0,5.1074,0.0,5.1109,5.0568,4.9314,4.8734,4.8434,4.8324,4.8306,4.8067,4.7351,4.7168,4.6837,4.614,4.5351,4.4874,4.4874,4.4232,4.3827,4.3827,4.3827,4.3772,4.3663,4.3644,4.3608,4.3515,4.3515,4.3551,4.3644,4.3644,4.3717,4.3845,4.4525,4.4874,4.4874,4.4966,4.471,4.4245,4.4967,4.492,4.4422,4.5085,4.5528,4.5788,4.571,4.621,4.7022,4.7682,4.8376,4.9001,4.9001,4.9001,4.9001,4.9001,4.9001,4.9001,4.9001,4.9001,4.9035,4.9238,5.0219,5.1236,5.1471,5.2503,5.3501,5.3501,5.3501,5.3501,5.3501,5.3501,5.3501,5.3501,5.3501,5.3501,5.3501,5.3501,5.3501,5.3501,5.3501,5.3501,5.3501,5.3501,5.3501,5.3501,5.3501,5.3501,5.3501,5.4743,5.561,5.5678,5.7054,5.7886,5.7997,5.7997,5.7997,5.7997,5.7997,5.7997,5.7997,5.7886,5.7886,5.7997,5.7886,5.7905,3.9144,4.1648,4.4365,0.0,4.7549,4.899,5.0221,0.0,5.0556,4.9999,4.9995,4.9702,4.8474,4.7903,4.748,4.704,4.6966,4.6838,4.6489,4.603,4.5608,4.5278,4.4525,4.403,4.403,4.3699,4.3515,4.3515,4.3515,4.3515,4.3515,4.3515,4.3515,4.3515,4.3515,4.3515,4.3515,4.3515,4.3515,4.3515,4.3864,4.403,4.403,4.3707,4.3701,4.3904,4.3858,4.3939,4.4097,4.4182,4.4723,4.5468,4.5199,4.5534,4.6227,4.6566,4.7141,4.7834,4.824,4.8392,4.846,4.8883,4.9001,4.9001,4.9001,4.9001,4.9086,4.9492,5.0084,5.0777,5.1606,5.2334,5.2942,5.3399,5.3501,5.3501,5.3501,5.3501,5.3501,5.3501,5.3501,5.3501,5.3501,5.3501,5.3501,5.3501,5.3501,5.3501,5.3501,5.3501,5.3501,5.3501,5.3501,5.3501,5.3501,5.4866,5.5706,5.5706,5.7148,5.7997,5.7997,5.7997,5.7997,5.7997,5.7997,5.7997,5.7997,5.7997,5.7997,5.7997,5.7997,5.7997,0.0,0.0,4.2397,4.4319,4.6069,4.7636,0.0,0.0,4.9769,4.881,4.8808,4.8631,4.7454,4.7141,4.6837,4.603,4.5902,4.5828,4.5626,4.5094,4.4618,4.4415,4.3864,4.3515,4.3515,4.3515,4.3515,4.3515,4.3515,4.3515,4.3515,4.3515,4.3515,4.3515,4.3515,4.3515,4.3515,4.3515,4.3515,4.3515,4.3515,4.3515,4.3497,4.3105,4.3076,4.3344,4.2947,4.3191,4.3833,4.3395,4.4017,4.5214,4.4555,4.4874,4.5703,4.5703,4.616,4.6904,4.7618,4.7889,4.8007,4.8765,4.9001,4.9001,4.9001,4.9001,4.912,4.9661,4.9949,5.0388,5.1691,5.2164,5.2503,5.3315,5.3501,5.3501,5.3501,5.3501,5.3501,5.3501,5.3501,5.3501,5.3501,5.3501,5.3501,5.3501,5.3501,5.3501,5.3501,5.3501,5.3501,5.3501,5.3501,5.3501,5.3501,5.4866,5.5706,5.5706,5.7148,5.7997,5.7997,5.7997,5.7997,5.7997,5.7997,5.7997,5.7997,5.7997,5.7997,5.7997,5.7997,5.7997,0.0,3.8937,0.0,4.3268,4.4618,0.0,0.0,0.0,4.8212,4.8145,4.7856,4.7262,4.6123,4.6564,4.6837,4.603,4.5902,4.5626,4.4856,4.4728,4.4415,4.3662,4.3533,4.3515,4.3515,4.3515,4.3515,4.3515,4.3515,4.3515,4.3515,4.3515,4.3515,4.3515,4.3515,4.3515,4.3515,4.3515,4.3515,4.3515,4.3515,4.3515,4.3515,4.3462,4.2902,4.1941,4.2676,4.3077,4.3242,4.3291,4.3821,4.4586,4.3758,4.4384,4.5703,4.5703,4.616,4.6904,4.7618,4.7889,4.8007,4.8765,4.9001,4.9001,4.9001,4.9001,4.9018,4.9052,4.956,5.027,5.1065,5.1792,5.2503,5.3315,5.3501,5.3501,5.3501,5.3501,5.3501,5.3501,5.3501,5.3501,5.3501,5.3501,5.3501,5.3501,5.3501,5.3501,5.3501,5.3501,5.3501,5.3501,5.3501,5.3501,5.3501,5.4866,5.5706,5.5706,5.7148,5.7997,5.7997,5.7997,5.7997,5.7997,5.7997,5.7997,5.7997,5.7997,5.7997,5.7997,5.7997,5.7997,0.0,0.0,0.0,4.0369,4.2625,4.4657,4.5896,4.7175,4.7952,4.7451,4.7418,4.706,4.5615,4.564,4.5554,4.4523,4.436,4.425,4.3975,4.392,4.3809,4.3533,4.3515,4.3515,4.3515,4.3515,4.3515,4.3515,4.3515,4.3515,4.3515,4.3515,4.3515,4.3515,4.3515,4.3515,4.3515,4.3515,4.3515,4.3515,4.3515,4.3515,4.3497,4.3142,4.277,4.236,4.1859,4.1745,4.1946,4.2361,4.3023,4.3809,4.3494,4.4062,4.4976,4.4976,4.5173,4.5579,4.6769,4.7192,4.7394,4.8612,4.9001,4.9001,4.9001,4.9001,4.9001,4.9001,4.9187,4.9678,5.0896,5.142,5.1928,5.3213,5.3501,5.3501,5.3501,5.3501,5.3501,5.3501,5.3501,5.3501,5.3501,5.3501,5.3501,5.3501,5.3501,5.3501,5.3501,5.3501,5.3501,5.3501,5.3501,5.3501,5.3501,5.4866,5.5706,5.5706,5.7148,5.7997,5.7997,5.7997,5.7997,5.7997,5.7997,5.7997,5.7997,5.7997,5.7997,5.7997,5.7997,5.7997,3.3613,0.0,0.0,0.0,4.074,4.2938,4.4688,4.5994,4.6759,4.6509,4.6685,4.6492,4.5317,4.5142,4.4855,4.3816,4.3679,4.3629,4.3513,4.3515,4.3515,4.3515,4.3515,4.3515,4.3515,4.3515,4.3515,4.3515,4.3515,4.3515,4.3515,4.3515,4.3515,4.3515,4.3515,4.3515,4.3515,4.3515,4.3515,4.3515,4.3515,4.341,4.3214,4.2864,4.248,4.2059,4.1246,4.1126,4.1511,4.1437,4.2202,4.3375,4.3149,4.3673,4.4615,4.4615,4.4615,4.4818,4.6278,4.6786,4.7039,4.8528,4.9001,4.9001,4.9001,4.9001,4.9001,4.9001,4.9001,4.934,5.0828,5.1557,5.2249,5.3264,5.3501,5.3501,5.3501,5.3501,5.3501,5.3501,5.3501,5.3501,5.3501,5.3501,5.3501,5.3501,5.3501,5.3501,5.3501,5.3501,5.3501,5.3501,5.3501,5.3501,5.3501,5.4866,5.5706,5.5706,5.7148,5.7997,5.7997,5.7997,5.7997,5.7997,5.7997,5.7997,5.7997,5.7997,5.7997,5.7997,5.7997,5.7997,0.0,0.0,0.0,0.0,0.0,0.0,4.4105,4.4566,4.4462,4.5374,4.5566,4.5465,4.5161,4.5107,4.4877,4.4146,4.3998,4.3881,4.3548,4.3515,4.3515,4.3515,4.3515,4.3515,4.3515,4.3515,4.3515,4.3515,4.3515,4.3515,4.3515,4.3515,4.3515,4.3515,4.3515,4.3515,4.3515,4.3515,4.3515,4.3515,4.3479,4.3214,4.2711,4.2655,4.2,4.0903,4.088,4.1306,4.195,4.0652,4.1407,4.3291,4.2591,4.3278,4.4615,4.4615,4.4615,4.4818,4.6244,4.6769,4.7039,4.8494,4.8984,4.9001,4.9001,4.9001,4.9001,4.9001,4.9049,4.9405,5.0894,5.2367,5.3501,5.3501,5.3501,5.3501,5.3501,5.3501,5.3501,5.3501,5.3501,5.3501,5.3501,5.3501,5.3501,5.3501,5.3501,5.3501,5.3501,5.3534,5.3534,5.3534,5.3551,5.3551,5.3551,5.4878,5.5752,5.5752,5.7173,5.7997,5.7997,5.7997,5.7997,5.7997,5.7997,5.7997,5.7997,5.7997,5.7997,5.7997,5.7997,5.7997,3.1986,0.0,0.0,0.0,0.0,0.0,4.0259,4.1543,4.2623,4.4068,4.4517,4.4818,4.537,4.5457,4.5322,4.4865,4.4359,4.3881,4.3548,4.3515,4.3515,4.3515,4.3515,4.3515,4.3515,4.3515,4.3515,4.3515,4.3515,4.3515,4.3515,4.3515,4.3515,4.3515,4.3515,4.3515,4.3515,4.3515,4.3515,4.3497,4.3124,4.2845,4.2655,4.181,4.1223,4.088,4.0497,4.0455,4.0669,4.0824,4.1576,4.2642,4.298,4.3707,4.4615,4.4615,4.4615,4.4733,4.5669,4.6346,4.6955,4.7919,4.8578,4.9001,4.9001,4.9001,4.9001,4.9001,4.9799,5.0998,5.2485,5.3196,5.3501,5.3501,5.3501,5.3501,5.3501,5.3501,5.3501,5.3501,5.3501,5.3501,5.3501,5.3501,5.3501,5.3501,5.3501,5.3501,5.3501,5.3979,5.4296,5.4296,5.4774,5.5072,5.5072,5.6012,5.6571,5.6571,5.7474,5.7997,5.7997,5.7997,5.7997,5.7997,5.7997,5.7997,5.7997,5.7997,5.7997,5.7997,5.7997,5.7997,0.0,0.0,0.0,0.0,0.0,0.0,3.8354,3.942,4.0417,4.2262,4.288,4.3463,4.4671,4.4975,4.5072,4.5101,4.4738,4.429,4.3772,4.3597,4.3515,4.3515,4.3515,4.3515,4.3515,4.3515,4.3515,4.3515,4.3515,4.3515,4.3515,4.3515,4.3515,4.3515,4.3515,4.3515,4.3515,4.3515,4.3392,4.316,4.2845,4.244,4.1916,4.1223,4.078,4.057,4.0552,4.0544,4.0629,4.1694,4.2202,4.2371,4.3115,4.3893,4.4615,4.4615,4.4615,4.475,4.5788,4.643,4.6972,4.802,4.8663,4.9001,4.9001,4.9001,4.9001,4.9001,5.0086,5.1587,5.3112,5.3718,5.3931,5.3941,5.4186,5.4328,5.4027,5.4186,5.4328,5.4027,5.3979,5.3979,5.3979,5.3979,5.3848,5.3568,5.3501,5.3618,5.3913,5.4342,5.4726,5.5042,5.5419,5.5706,5.5706,5.6438,5.6912,5.6912,5.7589,5.7997,5.7997,5.7997,5.7997,5.7997,5.7997,5.7997,5.7997,5.7997,5.7997,5.7997,5.7997,5.7997,0.0,0.0,0.0,0.0,3.4234,0.0,3.7482,3.7799,3.8078,4.002,4.0729,4.151,4.3177,4.379,4.4211,4.4696,4.4885,4.4738,4.4087,4.374,4.3548,4.3496,4.3515,4.3515,4.3515,4.3515,4.3515,4.3515,4.3515,4.3515,4.3515,4.3515,4.3515,4.3515,4.3515,4.3515,4.3515,4.3515,4.3232,4.2711,4.2635,4.2,4.0903,4.085,4.0552,4.0146,4.0781,4.1119,4.1322,4.2709,4.2946,4.2489,4.325,4.3978,4.4615,4.4615,4.4615,4.4801,4.6092,4.665,4.7005,4.8325,4.8866,4.9001,4.9001,4.9001,4.9049,4.9209,5.0198,5.154,5.308,5.394,5.4412,5.4565,5.508,5.54,5.4844,5.5232,5.5535,5.4969,5.4787,5.4726,5.4726,5.4726,5.4482,5.3832,5.375,5.3962,5.4651,5.4787,5.5102,5.578,5.592,5.5976,5.5976,5.6598,5.7015,5.7015,5.7637,5.7997,5.7997,5.7997,5.7997,5.7997,5.7997,5.7997,5.7997,5.7997,5.7997,5.7997,5.7997,5.7997,0.0,0.0,0.0,0.0,0.0,0.0,3.5313,3.5656,3.6121,3.7289,3.8045,3.9012,4.0691,4.1841,4.2557,4.2669,4.3557,4.4161,4.4013,4.394,4.3804,4.3531,4.3515,4.3515,4.3515,4.3515,4.3515,4.3515,4.3515,4.3515,4.3515,4.3515,4.3515,4.3515,4.3515,4.3515,4.3515,4.3515,4.3232,4.2693,4.2203,4.1599,4.088,4.0449,4.0204,4.0113,4.0265,4.0646,4.1271,4.2151,4.2777,4.3267,4.4045,4.4479,4.4615,4.4615,4.4615,4.4649,4.4936,4.5816,4.6836,4.7141,4.8037,4.9001,4.9001,4.9001,4.9274,5.0496,5.102,5.1518,5.3046,5.3498,5.3702,5.4356,5.4645,5.4889,5.5383,5.5592,5.5865,5.6358,5.5938,5.5495,5.5495,5.5495,5.5437,5.5291,5.5279,5.532,5.5466,5.6049,5.651,5.6642,5.7191,5.7546,5.7546,5.7703,5.7792,5.7792,5.7909,5.7997,5.7997,5.7997,5.7997,5.7997,5.7997,5.7997,5.7997,5.7997,5.7997,5.7997,5.7997,5.7997,0.0,0.0,0.0,3.3786,0.0,0.0,0.0,3.3755,3.4005,3.5466,3.5894,3.6625,3.8682,3.9672,4.0523,4.163,4.2314,4.3003,4.3886,4.3849,4.3677,4.3513,4.3515,4.3515,4.3515,4.3515,4.3515,4.3515,4.3515,4.3515,4.3515,4.3515,4.3515,4.3515,4.3515,4.3515,4.3515,4.3515,4.3069,4.2262,4.1937,4.1335,4.0497,4.0229,4.0096,4.013,4.0476,4.1068,4.1813,4.254,4.3301,4.4045,4.4445,4.4615,4.4649,4.4993,4.5145,4.5246,4.5991,4.6481,4.6904,4.7665,4.8156,4.8528,4.89,4.9001,4.9246,5.0385,5.0934,5.1513,5.3023,5.3624,5.395,5.4408,5.5099,5.5674,5.5687,5.6293,5.6978,5.7358,5.7123,5.6737,5.6367,5.6313,5.6159,5.5762,5.5706,5.5819,5.6259,5.6642,5.704,5.7401,5.7774,5.7997,5.7997,5.7997,5.7997,5.7997,5.7997,5.7997,5.7997,5.7997,5.7997,5.7997,5.7997,5.7997,5.7997,5.7997,5.7997,5.7997,5.7997,5.7997,0.0,0.0,0.0,0.0,0.0,3.2868,0.0,0.0,0.0,3.4019,3.4146,3.466,3.6893,3.7564,3.8407,4.0359,4.0874,4.1477,4.2744,4.2947,4.3103,4.3462,4.3368,4.3331,4.3478,4.3515,4.3515,4.3515,4.3515,4.3515,4.3515,4.3515,4.3515,4.3515,4.3392,4.3357,4.3357,4.3232,4.2658,4.1621,4.1621,4.1082,4.0096,4.0096,4.0096,4.0146,4.0882,4.1627,4.2354,4.3115,4.3876,4.4615,4.4615,4.4615,4.4682,4.5263,4.5585,4.5872,4.7043,4.7192,4.7005,4.8359,4.8494,4.821,4.8832,4.9001,4.912,4.9712,5.046,5.1387,5.2626,5.355,5.4214,5.4417,5.5559,5.6447,5.6001,5.7023,5.7997,5.7997,5.7997,5.7797,5.7209,5.7109,5.6894,5.6223,5.6141,5.6376,5.704,5.7109,5.7351,5.795,5.7997,5.7997,5.7997,5.7997,5.7997,5.7997,5.7997,5.7997,5.7997,5.7997,5.7997,5.7997,5.7997,5.7997,5.7997,5.7997,5.7997,5.7997,5.7997,5.7997,0.0,0.0,0.0,0.0,3.4848,0.0,3.3578,0.0,3.2482,3.2623,0.0,3.3642,3.529,0.0,0.0,3.7523,3.8881,3.9613,3.9112,4.0178,4.1654,4.33,4.2873,4.2708,4.3441,4.3515,4.3515,4.3515,4.3515,4.3515,4.3515,4.3515,4.3515,4.3515,4.3032,4.2788,4.2788,4.2264,4.1664,4.0995,4.0995,4.0679,4.0096,4.0096,4.0096,4.0146,4.0882,4.1627,4.2354,4.3115,4.3876,4.4615,4.4615,4.4615,4.4615,4.4699,4.5128,4.572,4.5889,4.6329,4.6938,4.7767,4.8426,4.89,4.8984,4.9001,4.9018,4.9103,5.0091,5.1121,5.1316,5.2347,5.3515,5.4239,5.5089,5.59,5.6548,5.7382,5.7997,5.7997,5.7997,5.7973,5.7886,5.7886,5.7821,5.7732,5.7732,5.7774,5.7862,5.7886,5.7909,5.7997,5.7997,5.7997,5.7997,5.7997,5.7997,5.7997,5.7997,5.7997,5.7997,5.7997,5.7997,5.7997,5.7997,5.7997,5.7997,5.7997,5.7997,5.7997,5.7997,5.7997,0.0,0.0,0.0,0.0,0.0,0.0,3.386,3.3307,3.3108,3.3039,0.0,0.0,0.0,0.0,0.0,0.0,3.7329,3.8061,3.8982,3.886,3.9576,4.205,4.2032,4.2284,4.3388,4.3075,4.3002,4.346,4.3057,4.3002,4.3478,4.3515,4.3515,4.3515,4.2976,4.2711,4.2711,4.2101,4.149,4.0903,4.0903,4.0607,4.0096,4.0096,4.0096,4.0146,4.0882,4.1627,4.2354,4.3115,4.3876,4.4615,4.4615,4.4615,4.4649,4.5077,4.5703,4.6346,4.6346,4.6819,4.7496,4.7787,4.8409,4.9001,4.9001,4.9001,4.9077,4.9462,5.0297,5.1189,5.1569,5.244,5.3277,5.3628,5.4675,5.5684,5.6033,5.7097,5.7997,5.7997,5.7997,5.7997,5.7997,5.7997,5.7997,5.7997,5.7997,5.7997,5.7997,5.7997,5.7997,5.7997,5.7997,5.7997,5.7997,5.7997,5.7997,5.7997,5.7997,5.7997,5.7997,5.7997,5.7997,5.7997,5.7997,5.7997,5.7997,5.7997,5.7997,5.7997,5.7997,5.7997,3.8108,0.0,0.0,3.7229,3.6942,3.6323,3.4526,3.4143,3.4133,3.3857,3.3548,0.0,0.0,0.0,3.4882,3.6069,0.0,3.6713,3.8272,3.7679,3.8062,4.0665,4.1172,4.1755,4.2923,4.2323,4.2086,4.2687,4.2177,4.2194,4.2902,4.2996,4.3105,4.3268,4.258,4.2221,4.2221,4.1639,4.1105,4.0679,4.0679,4.0473,4.0096,4.0096,4.0096,4.0146,4.0882,4.1627,4.2354,4.3115,4.3876,4.4615,4.4615,4.4615,4.4666,4.5196,4.5872,4.6498,4.6498,4.7124,4.7855,4.7682,4.824,4.9001,4.9001,4.9001,4.9121,4.9792,5.0527,5.1241,5.1928,5.264,5.3185,5.3185,5.4436,5.5614,5.5614,5.6859,5.7997,5.7997,5.7997,5.7997,5.7997,5.7997,5.7997,5.7997,5.7997,5.7997,5.7997,5.7997,5.7997,5.7997,5.7997,5.7997,5.7997,5.7997,5.7997,5.7997,5.7997,5.7997,5.7997,5.7997,5.7997,5.7997,5.7997,5.7997,5.7997,5.7997,5.7997,5.7997,5.7997,5.7997,3.8108,3.7905,3.7905,3.7872,3.7327,3.6587,3.5803,3.5698,3.5507,3.4742,3.5111,3.5578,3.5554,3.4979,3.4742,3.5526,3.5644,0.0,0.0,3.635,3.7504,3.9438,4.0284,4.1026,4.1785,4.1206,4.0765,4.0783,4.0783,4.0987,4.1541,4.1757,4.2121,4.2711,4.1578,4.0972,4.0972,4.0417,4.0146,4.0121,4.0121,4.0121,4.0096,4.0096,4.0096,4.0146,4.0882,4.1627,4.2354,4.3115,4.3876,4.4615,4.4615,4.4615,4.4615,4.4632,4.5094,4.5737,4.5737,4.6701,4.777,4.7073,4.7817,4.9001,4.9001,4.9001,4.9121,4.9792,5.0527,5.1241,5.1928,5.264,5.3185,5.3185,5.4436,5.5614,5.5614,5.6859,5.7997,5.7997,5.7997,5.7997,5.7997,5.7997,5.7997,5.7997,5.7997,5.7997,5.7997,5.7997,5.7997,5.7997,5.7997,5.7997,5.7997,5.7997,5.7997,5.7997,5.7997,5.7997,5.7997,5.7997,5.7997,5.7997,5.7997,5.7997,5.7997,5.7997,5.7997,5.7997,5.7997,5.7997,3.9436,3.9368,3.9225,3.8751,3.8806,3.8539,3.682,3.6861,3.6872,3.5589,3.5539,3.5661,3.5605,3.5397,3.5295,3.5549,3.56,3.56,0.0,3.5819,3.6424,3.7627,3.9491,4.0598,4.0367,4.0081,3.9921,3.9962,3.9481,3.9702,4.0911,4.1034,4.1404,4.2083,4.1335,4.0903,4.0903,4.0368,4.0096,4.0096,4.0096,4.0096,4.0096,4.0096,4.0096,4.0146,4.0882,4.1627,4.2354,4.3115,4.3876,4.4615,4.4615,4.4615,4.4615,4.4615,4.506,4.5838,4.6836,4.7175,4.7293,4.802,4.8595,4.9001,4.9001,4.9001,4.9243,5.0407,5.0903,5.1386,5.2531,5.302,5.3335,5.3867,5.4821,5.5739,5.6271,5.7244,5.7997,5.7997,5.7997,5.7997,5.7997,5.7997,5.7997,5.7997,5.7997,5.7997,5.7997,5.7997,5.7997,5.7997,5.7997,5.7997,5.7997,5.7997,5.7997,5.7997,5.7997,5.7997,5.7997,5.7997,5.7997,5.7997,5.7997,5.7997,5.7997,5.7997,5.7997,5.7997,5.7997,5.7997,4.0096,4.0096,3.9994,3.952,3.9757,3.9674,3.797,3.8194,3.8328,3.6795,3.6479,3.64,3.6095,3.5785,3.56,3.56,3.56,3.56,0.0,3.56,3.5785,3.6315,3.8099,3.9237,3.9027,3.8705,3.8548,3.8611,3.8115,3.8461,3.9895,4.0057,4.0504,4.1433,4.092,4.0625,4.0625,4.0262,4.0096,4.0096,4.0096,4.0096,4.0096,4.0096,4.0096,4.0146,4.0882,4.1627,4.2354,4.3115,4.3876,4.4615,4.4615,4.4615,4.4615,4.4615,4.506,4.5872,4.7107,4.7378,4.7344,4.8308,4.8798,4.9001,4.9001,4.9001,4.9286,5.0689,5.1086,5.1436,5.2831,5.3185,5.3387,5.4216,5.5005,5.5812,5.6638,5.7428,5.7997,5.7997,5.7997,5.7997,5.7997,5.7997,5.7997,5.7997,5.7997,5.7997,5.7997,5.7997,5.7997,5.7997,5.7997,5.7997,5.7997,5.7997,5.7997,5.7997,5.7997,5.7997,5.7997,5.7997,5.8125,5.8419,5.8143,5.8143,5.8437,5.8143,5.7997,5.7997,5.7997,5.7997]}]]